[[{"header":{"parameterUnit":"m.s-1","parameterCategory":1,"la1":30.6,"la2":29.2853,"lo1":-89.7004,"lo2":-87.6739,"dy":0.0162,"dx":0.0183,"nx":112,"ny":82,"refTime":"2023-05-21T00:00:00:Z","depth":0,"parameterNumber":2,"parameterNumberName":"U-component_of_WINDS"},"data":[0.0,0.0,0.0,0.0,0.0,0.0,0.0,0.0,0.0,0.0,0.0,0.0,0.0,0.0,0.0,0.0,0.0,0.0,0.0,0.0,0.0,0.0,0.0,0.0,0.0,0.0,0.0,0.0,0.0,0.0,0.0,0.0,0.0,0.0,0.0,0.0,0.0,0.0,0.0,0.0,0.0,0.0,0.0,0.0,0.0,0.0,0.0,0.0,0.0,0.0,0.0,0.0,0.0,0.0,0.0,0.0,0.0,0.0,0.0,0.0,0.0,0.0,0.0,0.0,0.0,0.0,0.0,0.0,0.0,0.0,0.0,0.0,0.0,0.0,0.0,0.0,0.0,0.0,0.0,0.0,0.0,0.0,0.0,0.0,0.0,0.0,0.0,0.0,0.0,0.0,3.9096,3.9495,4.0575,4.1123,4.0669,4.077,4.028,3.9,0.0,0.0,0.0,0.0,0.0,0.0,0.0,0.0,0.0,0.0,0.0,0.0,0.0,0.0,0.0,0.0,0.0,0.0,0.0,0.0,0.0,0.0,0.0,0.0,0.0,0.0,0.0,0.0,0.0,0.0,0.0,0.0,0.0,0.0,0.0,0.0,0.0,0.0,0.0,0.0,0.0,0.0,0.0,0.0,0.0,0.0,0.0,0.0,0.0,0.0,0.0,0.0,0.0,0.0,0.0,0.0,0.0,0.0,0.0,0.0,0.0,0.0,0.0,0.0,0.0,0.0,0.0,0.0,0.0,0.0,0.0,0.0,0.0,0.0,0.0,0.0,0.0,0.0,0.0,0.0,0.0,0.0,0.0,0.0,0.0,0.0,0.0,0.0,0.0,0.0,0.0,0.0,0.0,0.0,0.0,0.0,0.0,0.0,0.0,0.0,0.0,0.0,0.0,0.0,3.9844,4.0857,4.1169,4.1274,4.1199,4.0795,4.0255,3.9509,0.0,0.0,0.0,0.0,0.0,0.0,0.0,0.0,0.0,0.0,0.0,0.0,0.0,0.0,0.0,0.0,0.0,0.0,0.0,0.0,0.0,0.0,0.0,0.0,0.0,0.0,0.0,0.0,0.0,0.0,0.0,0.0,0.0,0.0,0.0,0.0,0.0,0.0,0.0,0.0,0.0,0.0,0.0,0.0,0.0,0.0,0.0,0.0,0.0,0.0,0.0,0.0,0.0,0.0,0.0,0.0,0.0,0.0,0.0,0.0,0.0,0.0,0.0,0.0,0.0,0.0,0.0,0.0,0.0,0.0,0.0,0.0,0.0,0.0,0.0,0.0,0.0,0.0,0.0,0.0,0.0,0.0,0.0,0.0,0.0,0.0,0.0,0.0,0.0,0.0,0.0,0.0,0.0,0.0,0.0,0.0,0.0,0.0,0.0,0.0,0.0,0.0,0.0,3.9201,3.9873,4.1168,4.1299,4.1097,4.0694,4.0542,4.0055,3.9024,3.8727,0.0,0.0,0.0,0.0,0.0,0.0,0.0,0.0,0.0,0.0,0.0,0.0,0.0,0.0,0.0,0.0,0.0,0.0,0.0,0.0,0.0,0.0,0.0,0.0,0.0,0.0,0.0,0.0,0.0,0.0,0.0,0.0,0.0,0.0,0.0,0.0,0.0,0.0,0.0,0.0,0.0,0.0,0.0,0.0,0.0,0.0,0.0,0.0,0.0,0.0,0.0,0.0,0.0,0.0,0.0,0.0,0.0,0.0,0.0,0.0,0.0,0.0,0.0,0.0,0.0,0.0,0.0,0.0,0.0,0.0,0.0,0.0,0.0,0.0,0.0,0.0,0.0,0.0,0.0,0.0,0.0,0.0,0.0,0.0,0.0,0.0,0.0,0.0,0.0,0.0,0.0,0.0,0.0,0.0,0.0,0.0,0.0,0.0,0.0,0.0,0.0,0.0,3.9323,3.9864,4.0994,4.1047,4.0795,4.0236,4.0262,3.9854,3.8736,3.8562,0.0,0.0,0.0,0.0,0.0,0.0,0.0,0.0,0.0,0.0,0.0,0.0,0.0,0.0,0.0,0.0,0.0,0.0,0.0,0.0,0.0,0.0,0.0,0.0,0.0,0.0,0.0,0.0,0.0,0.0,0.0,0.0,0.0,0.0,0.0,0.0,0.0,0.0,0.0,0.0,0.0,0.0,0.0,0.0,0.0,0.0,0.0,0.0,0.0,0.0,0.0,0.0,0.0,0.0,0.0,0.0,0.0,0.0,0.0,0.0,0.0,0.0,0.0,0.0,0.0,0.0,0.0,0.0,0.0,0.0,0.0,0.0,0.0,0.0,0.0,0.0,0.0,0.0,0.0,0.0,0.0,0.0,0.0,0.0,0.0,0.0,0.0,0.0,0.0,0.0,0.0,0.0,0.0,0.0,0.0,0.0,0.0,0.0,0.0,0.0,0.0,0.0,3.9697,4.016,4.0516,4.0338,4.0262,4.044,4.0032,3.9677,3.9545,3.9045,0.0,0.0,0.0,0.0,0.0,0.0,0.0,0.0,0.0,0.0,0.0,0.0,0.0,0.0,0.0,0.0,0.0,0.0,0.0,0.0,0.0,0.0,0.0,0.0,0.0,0.0,0.0,0.0,0.0,0.0,0.0,0.0,0.0,0.0,0.0,0.0,0.0,0.0,0.0,0.0,0.0,0.0,0.0,0.0,0.0,0.0,0.0,0.0,0.0,0.0,0.0,0.0,0.0,0.0,0.0,0.0,0.0,0.0,0.0,0.0,0.0,0.0,0.0,0.0,0.0,0.0,0.0,0.0,0.0,0.0,0.0,0.0,0.0,0.0,0.0,0.0,0.0,0.0,0.0,0.0,0.0,0.0,0.0,0.0,0.0,0.0,0.0,0.0,0.0,0.0,0.0,0.0,0.0,0.0,0.0,0.0,0.0,0.0,0.0,0.0,0.0,0.0,4.0185,4.0795,4.1438,4.1254,4.1149,4.1254,4.0703,4.0247,3.9931,0.0,0.0,0.0,0.0,0.0,0.0,0.0,0.0,0.0,0.0,0.0,0.0,0.0,0.0,0.0,0.0,0.0,0.0,0.0,0.0,0.0,0.0,0.0,0.0,0.0,0.0,0.0,0.0,0.0,0.0,0.0,0.0,0.0,0.0,0.0,0.0,0.0,0.0,0.0,0.0,0.0,0.0,0.0,0.0,0.0,0.0,0.0,0.0,0.0,0.0,0.0,0.0,0.0,0.0,0.0,0.0,0.0,0.0,0.0,0.0,0.0,0.0,0.0,0.0,0.0,0.0,0.0,0.0,0.0,0.0,0.0,0.0,0.0,0.0,0.0,0.0,0.0,0.0,0.0,0.0,0.0,0.0,0.0,0.0,0.0,0.0,0.0,0.0,0.0,0.0,0.0,0.0,0.0,0.0,0.0,0.0,0.0,0.0,0.0,0.0,0.0,0.0,3.975,4.0282,4.0849,4.1627,4.1385,4.125,4.1411,4.09,4.0368,3.9971,0.0,0.0,0.0,0.0,0.0,0.0,0.0,0.0,0.0,0.0,0.0,0.0,0.0,0.0,0.0,0.0,0.0,0.0,0.0,0.0,0.0,0.0,0.0,0.0,0.0,0.0,0.0,0.0,0.0,0.0,0.0,0.0,0.0,0.0,0.0,0.0,0.0,0.0,0.0,0.0,0.0,0.0,0.0,0.0,0.0,0.0,0.0,0.0,0.0,0.0,0.0,0.0,0.0,0.0,0.0,0.0,0.0,0.0,0.0,0.0,0.0,0.0,0.0,0.0,0.0,0.0,0.0,0.0,0.0,0.0,0.0,0.0,0.0,0.0,0.0,0.0,0.0,0.0,0.0,0.0,0.0,0.0,0.0,0.0,0.0,0.0,0.0,0.0,0.0,0.0,0.0,0.0,0.0,0.0,0.0,0.0,0.0,0.0,0.0,0.0,0.0,0.0,3.9545,3.9855,4.0245,4.0868,4.0381,4.0272,4.0868,4.0354,3.9916,0.0,0.0,0.0,0.0,0.0,0.0,0.0,0.0,0.0,0.0,0.0,0.0,0.0,0.0,0.0,0.0,0.0,0.0,0.0,0.0,0.0,0.0,0.0,0.0,0.0,0.0,0.0,0.0,0.0,0.0,0.0,0.0,0.0,0.0,0.0,0.0,0.0,0.0,0.0,0.0,0.0,0.0,0.0,0.0,0.0,0.0,0.0,0.0,0.0,0.0,0.0,0.0,0.0,0.0,0.0,0.0,0.0,0.0,0.0,0.0,0.0,0.0,0.0,0.0,0.0,0.0,0.0,0.0,0.0,0.0,0.0,0.0,0.0,0.0,0.0,0.0,0.0,0.0,0.0,0.0,0.0,0.0,0.0,0.0,0.0,0.0,0.0,0.0,0.0,0.0,0.0,0.0,0.0,0.0,0.0,0.0,0.0,0.0,0.0,0.0,0.0,0.0,0.0,4.012,4.0715,4.1285,4.1703,4.137,4.1313,4.1703,4.1197,4.0668,4.0264,0.0,0.0,0.0,0.0,0.0,0.0,0.0,0.0,0.0,0.0,0.0,0.0,0.0,0.0,0.0,0.0,0.0,0.0,0.0,0.0,0.0,0.0,0.0,0.0,0.0,0.0,0.0,0.0,0.0,0.0,0.0,0.0,0.0,0.0,0.0,0.0,0.0,0.0,0.0,0.0,0.0,0.0,0.0,0.0,0.0,0.0,0.0,0.0,0.0,0.0,0.0,0.0,0.0,0.0,0.0,0.0,0.0,0.0,0.0,0.0,0.0,0.0,0.0,0.0,0.0,0.0,0.0,0.0,0.0,0.0,0.0,0.0,0.0,0.0,0.0,0.0,0.0,0.0,0.0,0.0,0.0,0.0,0.0,0.0,0.0,0.0,0.0,0.0,0.0,0.0,0.0,0.0,0.0,0.0,0.0,0.0,0.0,0.0,0.0,0.0,0.0,0.0,4.0191,4.095,4.1573,4.1859,4.1606,4.1573,4.1859,4.1459,4.0982,4.0498,0.0,0.0,0.0,0.0,0.0,0.0,0.0,0.0,0.0,0.0,0.0,0.0,0.0,0.0,0.0,0.0,0.0,0.0,0.0,0.0,0.0,0.0,0.0,0.0,0.0,0.0,0.0,0.0,0.0,0.0,0.0,0.0,0.0,0.0,0.0,0.0,0.0,0.0,0.0,0.0,0.0,0.0,0.0,0.0,0.0,0.0,0.0,0.0,0.0,0.0,0.0,0.0,0.0,0.0,0.0,0.0,0.0,0.0,0.0,0.0,0.0,0.0,0.0,0.0,0.0,0.0,0.0,0.0,0.0,0.0,0.0,0.0,0.0,0.0,0.0,0.0,0.0,0.0,0.0,0.0,0.0,0.0,0.0,0.0,0.0,0.0,0.0,0.0,0.0,0.0,0.0,0.0,0.0,0.0,0.0,0.0,0.0,0.0,0.0,0.0,0.0,0.0,3.998,4.0696,4.1287,4.1549,4.1344,4.1287,4.1549,4.1344,4.0956,4.0427,0.0,0.0,0.0,0.0,0.0,0.0,0.0,0.0,0.0,0.0,0.0,0.0,0.0,0.0,0.0,0.0,0.0,0.0,0.0,0.0,0.0,0.0,0.0,0.0,0.0,0.0,0.0,0.0,0.0,0.0,0.0,0.0,0.0,0.0,0.0,0.0,0.0,0.0,0.0,0.0,0.0,0.0,0.0,0.0,0.0,0.0,0.0,0.0,0.0,0.0,0.0,0.0,0.0,0.0,0.0,0.0,0.0,0.0,0.0,0.0,3.0921,3.145,0.0,0.0,0.0,0.0,0.0,0.0,0.0,0.0,0.0,0.0,0.0,0.0,0.0,0.0,0.0,0.0,0.0,0.0,0.0,0.0,0.0,0.0,0.0,0.0,0.0,0.0,0.0,0.0,0.0,0.0,0.0,0.0,0.0,0.0,0.0,0.0,0.0,0.0,0.0,0.0,4.0029,4.0696,4.1201,4.1287,4.123,4.1201,4.1287,4.123,4.0956,4.0427,4.0339,0.0,0.0,0.0,0.0,0.0,0.0,0.0,0.0,0.0,0.0,0.0,0.0,0.0,0.0,0.0,0.0,0.0,0.0,0.0,0.0,0.0,0.0,0.0,0.0,0.0,0.0,0.0,0.0,0.0,0.0,0.0,0.0,0.0,0.0,0.0,0.0,0.0,0.0,0.0,0.0,0.0,0.0,0.0,0.0,0.0,0.0,0.0,0.0,0.0,0.0,0.0,0.0,0.0,0.0,0.0,0.0,0.0,0.0,0.0,3.0733,3.1223,0.0,0.0,0.0,0.0,0.0,0.0,0.0,0.0,0.0,0.0,0.0,0.0,0.0,0.0,0.0,0.0,0.0,0.0,0.0,0.0,0.0,0.0,0.0,0.0,0.0,0.0,0.0,0.0,0.0,0.0,0.0,0.0,0.0,0.0,0.0,0.0,0.0,0.0,0.0,0.0,3.9833,4.0636,4.1201,4.1201,4.1201,4.1201,4.1201,4.1201,4.1105,4.0787,4.0547,0.0,0.0,0.0,0.0,0.0,0.0,0.0,0.0,0.0,0.0,0.0,0.0,0.0,0.0,0.0,0.0,0.0,0.0,0.0,0.0,0.0,0.0,0.0,0.0,0.0,0.0,0.0,0.0,0.0,0.0,0.0,0.0,0.0,0.0,0.0,0.0,0.0,0.0,0.0,0.0,0.0,0.0,0.0,0.0,0.0,0.0,0.0,0.0,0.0,0.0,0.0,0.0,0.0,2.865,2.8666,2.9054,2.937,2.9501,2.9554,3.0339,3.0655,3.0681,3.1245,0.0,0.0,0.0,0.0,0.0,0.0,0.0,0.0,0.0,0.0,0.0,0.0,0.0,0.0,0.0,0.0,0.0,0.0,0.0,0.0,0.0,0.0,3.651,3.6173,3.6551,3.7209,3.7934,0.0,0.0,0.0,0.0,0.0,0.0,0.0,0.0,0.0,0.0,0.0,3.9757,4.0595,4.1201,4.1201,4.1201,4.1201,4.1201,4.1201,4.1201,4.1201,4.0763,4.0527,0.0,0.0,0.0,0.0,0.0,0.0,0.0,0.0,0.0,0.0,0.0,0.0,0.0,0.0,0.0,0.0,0.0,0.0,0.0,0.0,0.0,0.0,0.0,0.0,0.0,0.0,0.0,0.0,0.0,0.0,0.0,0.0,2.5523,2.5805,0.0,0.0,0.0,0.0,0.0,0.0,0.0,0.0,0.0,0.0,0.0,0.0,0.0,2.8196,2.7925,2.8013,2.8103,2.8155,2.8298,2.8363,2.8443,2.8953,2.9158,2.9211,2.9816,0.0,3.0151,3.0677,0.0,0.0,0.0,0.0,0.0,0.0,0.0,0.0,0.0,0.0,0.0,0.0,0.0,0.0,0.0,0.0,0.0,0.0,0.0,0.0,0.0,0.0,3.7185,3.6929,3.7576,3.8291,3.8414,3.7806,3.7358,3.7714,3.8408,3.879,0.0,0.0,0.0,0.0,0.0,0.0,4.0262,4.0812,4.1201,4.1201,4.1201,4.1201,4.1201,4.1201,4.1201,4.1201,4.1124,4.1002,4.0744,4.0447,0.0,0.0,0.0,0.0,0.0,0.0,0.0,0.0,0.0,0.0,0.0,0.0,0.0,0.0,0.0,0.0,0.0,0.0,0.0,0.0,0.0,0.0,0.0,0.0,0.0,0.0,0.0,0.0,0.0,2.4779,2.5015,2.543,2.5582,2.5824,0.0,0.0,0.0,0.0,0.0,0.0,0.0,0.0,0.0,2.7252,2.764,2.7827,2.7744,2.8029,2.8166,2.8186,2.8256,2.8301,2.8327,2.8867,2.9105,2.9152,3.0025,3.0387,3.0393,3.036,3.0668,3.1168,0.0,0.0,0.0,0.0,3.1447,3.1467,3.1576,3.1705,3.188,3.2092,0.0,0.0,0.0,0.0,0.0,0.0,0.0,3.4555,3.4645,3.5433,3.6271,3.6579,3.6985,3.7383,3.7649,3.7706,3.7863,3.8401,3.8761,3.8881,3.8664,3.9158,0.0,0.0,0.0,4.0254,4.0383,4.086,4.1201,4.1201,4.1201,4.1201,4.1201,4.1201,4.1201,4.1201,4.1201,4.1162,4.1035,4.0632,4.027,0.0,0.0,0.0,0.0,0.0,0.0,0.0,0.0,0.0,0.0,0.0,0.0,0.0,0.0,0.0,0.0,0.0,0.0,0.0,0.0,0.0,0.0,0.0,0.0,0.0,0.0,0.0,0.0,2.443,2.448,2.475,2.4922,2.5172,0.0,0.0,0.0,0.0,0.0,0.0,2.677,2.6311,2.6461,2.7456,2.7656,2.7812,2.7858,2.8144,2.8301,2.8301,2.8301,2.8354,2.8434,2.8893,2.9192,2.9419,3.0319,3.0822,3.1008,3.0532,3.0736,3.1222,3.0588,3.0527,3.0763,3.0758,3.0819,3.0938,3.1291,3.1617,3.1876,3.2002,3.2323,3.2728,3.2938,0.0,0.0,0.0,0.0,3.4423,3.4317,3.4828,3.5546,3.607,3.6326,3.6501,3.6844,3.7414,3.8047,3.8749,3.9045,3.9121,3.9001,3.9426,0.0,3.9272,3.9898,4.0451,4.0571,4.0932,4.1201,4.1201,4.1201,4.1201,4.1201,4.1201,4.1201,4.1201,4.1201,4.123,4.1287,4.0844,4.0551,4.0491,0.0,0.0,0.0,0.0,0.0,0.0,0.0,0.0,0.0,0.0,0.0,0.0,0.0,0.0,0.0,0.0,0.0,0.0,0.0,0.0,0.0,0.0,0.0,0.0,0.0,0.0,0.0,0.0,0.0,2.3463,2.3861,0.0,0.0,0.0,0.0,2.4958,2.4789,2.5081,2.6018,2.6201,2.6714,2.7663,2.8073,2.8262,2.8262,2.8281,2.8301,2.8301,2.8301,2.8434,2.8674,2.8973,2.9486,3.0186,3.0523,3.1174,3.1912,3.1485,3.1098,3.0772,3.1181,3.1056,3.0778,3.1485,3.1571,3.1457,3.2121,3.2177,3.2057,3.252,3.2748,3.301,3.3787,3.343,0.0,0.0,3.4084,3.3911,3.4568,3.5218,3.5674,3.5717,3.6079,3.642,3.6441,3.6823,3.7399,3.8179,3.9311,3.9993,3.9471,0.0,4.0355,4.0306,4.0355,4.0571,4.1076,4.1172,4.1201,4.1201,4.1201,4.1201,4.1201,4.1201,4.1201,4.1201,4.1201,4.1316,4.1578,4.132,4.1026,4.0776,4.0495,0.0,0.0,0.0,0.0,0.0,0.0,0.0,0.0,0.0,0.0,0.0,0.0,0.0,0.0,0.0,0.0,0.0,0.0,0.0,0.0,0.0,0.0,0.0,0.0,0.0,0.0,0.0,0.0,2.327,2.332,0.0,2.4183,2.4472,2.4594,2.4519,2.4348,2.4541,2.5334,2.4934,2.5227,2.6388,2.6896,2.7241,2.7449,2.8014,2.8301,2.8301,2.8301,2.8354,2.8461,2.9025,2.9459,2.9728,3.0833,3.1456,3.1763,3.2104,3.1953,3.1519,3.145,3.1305,3.1208,3.1625,3.1794,3.1844,3.2239,3.2426,3.252,3.2913,3.3191,3.343,3.3959,3.4183,3.4317,3.4346,3.4611,3.4876,3.5015,3.5376,3.5784,3.6073,3.6265,3.6392,3.6392,3.6539,3.6846,3.7594,3.8775,3.9768,4.0007,4.0525,4.0787,4.0451,4.0691,4.098,4.1201,4.1201,4.1201,4.1201,4.1201,4.1201,4.1201,4.1201,4.1201,4.1201,4.1201,4.123,4.1344,4.123,4.1157,4.1055,4.0941,4.0475,0.0,0.0,0.0,0.0,0.0,0.0,0.0,0.0,0.0,0.0,0.0,0.0,0.0,0.0,0.0,0.0,0.0,0.0,0.0,0.0,0.0,0.0,0.0,0.0,0.0,2.2485,2.2686,2.2744,2.2714,2.2977,2.3684,2.3854,2.3929,2.3929,2.3737,2.3939,2.4709,2.4268,2.4566,2.5798,2.6182,2.6509,2.6854,2.7611,2.8006,2.8006,2.833,2.8569,2.8697,2.932,2.9734,3.0023,3.1002,3.1515,3.1706,3.2317,3.237,3.2061,3.1912,3.1733,3.1657,3.1996,3.2162,3.2271,3.244,3.2571,3.2727,3.2955,3.3296,3.3706,3.4275,3.4726,3.5042,3.4983,3.5253,3.5494,3.5255,3.5495,3.5806,3.6001,3.6055,3.6055,3.6055,3.6147,3.6453,3.7102,3.8192,3.9273,4.0073,4.0669,4.0889,4.0475,4.0836,4.1124,4.0932,4.1105,4.1201,4.1201,4.1201,4.1201,4.1201,4.1028,4.1033,4.1201,4.1028,4.1033,4.1201,4.1033,4.0908,4.0908,4.0908,4.0486,3.9515,0.0,0.0,0.0,0.0,0.0,0.0,0.0,0.0,0.0,0.0,0.0,0.0,0.0,0.0,0.0,0.0,0.0,0.0,0.0,0.0,0.0,0.0,0.0,2.1751,2.2426,2.2653,2.1818,2.2072,2.2511,2.3057,2.2686,2.265,2.3141,2.3015,2.3294,2.4139,2.4276,2.4851,2.6,2.6063,2.6227,2.6582,2.7098,2.7414,2.746,2.8431,2.9055,2.9421,2.983,3.0414,3.1067,3.1115,3.1357,3.1816,3.2162,3.2305,3.2334,3.2584,3.2401,3.2098,3.2504,3.2698,3.2698,3.2698,3.2698,3.2698,3.2698,3.3097,3.3777,3.4779,3.4954,3.5006,3.5911,3.593,3.5652,3.53,3.5545,3.5788,3.5479,3.5387,3.5387,3.5387,3.5665,3.6064,3.6746,3.7624,3.8581,3.9609,4.0275,4.0602,4.0414,4.086,0.0,4.0499,4.086,4.1201,4.1201,4.1201,4.1201,4.1201,4.0691,4.0643,4.1201,4.0739,4.0667,4.1201,4.0691,4.0427,4.0427,4.0374,4.004,3.939,0.0,0.0,0.0,0.0,0.0,0.0,0.0,0.0,0.0,0.0,0.0,0.0,0.0,0.0,0.0,0.0,0.0,0.0,0.0,0.0,0.0,2.1648,2.1626,2.1443,2.2033,2.2474,2.2448,2.2583,2.2799,2.3133,2.3335,2.3292,2.2994,2.3199,2.3438,2.3689,2.3491,2.3736,2.449,2.4917,2.5496,2.6236,2.6618,2.7383,2.8505,2.8375,2.8743,2.9553,2.9956,3.0268,3.0471,3.1007,3.1456,3.1816,3.2162,3.2391,3.2584,3.2469,3.2444,3.2504,3.2436,3.2526,3.2698,3.2698,3.2698,3.2698,3.2698,3.3163,3.383,3.4365,3.4949,3.552,3.5755,3.5834,3.5753,3.5416,3.5458,3.551,3.5418,3.5387,3.5387,3.5387,3.5479,3.5726,3.6401,3.6737,3.7465,3.9137,3.9573,3.982,4.0179,4.0587,4.0779,4.0636,4.0957,4.1057,4.0643,4.0619,4.0619,4.0619,4.0836,4.1225,4.1755,4.1658,4.1634,4.1779,4.1273,4.098,4.098,4.0116,3.9561,0.0,0.0,0.0,0.0,0.0,0.0,0.0,0.0,0.0,0.0,0.0,0.0,0.0,0.0,0.0,0.0,0.0,0.0,0.0,0.0,0.0,0.0,2.1436,2.1643,2.1735,2.2307,2.2754,2.2921,2.2975,2.3127,2.3439,2.3595,2.3563,2.3342,2.3426,2.35,2.35,2.3332,2.3416,2.3893,2.4379,2.5003,2.5798,2.649,2.7381,2.8432,2.8818,2.9282,2.9872,3.0293,3.0488,3.0537,3.0965,3.1257,3.146,3.1903,3.2162,3.2326,0.0,0.0,0.0,0.0,3.2584,3.2698,3.2698,3.2698,3.2768,3.3098,3.3479,3.3925,3.4676,3.5185,3.5531,3.5743,3.5753,3.5634,3.5448,3.5387,3.5387,3.5387,3.5387,3.5387,3.5387,3.5387,3.551,3.5932,3.6208,0.0,3.8246,3.8812,3.9275,3.9825,4.0337,4.0611,4.0373,4.0827,4.1105,4.0763,4.0739,4.0739,4.0739,4.0812,0.0,0.0,0.0,4.1345,4.1345,4.0746,0.0,0.0,0.0,3.8989,3.8936,3.8289,0.0,0.0,3.7704,3.7382,0.0,0.0,0.0,0.0,0.0,0.0,0.0,0.0,0.0,0.0,0.0,0.0,0.0,0.0,0.0,0.0,2.1354,2.2032,2.2382,2.2877,2.3252,2.3281,2.3303,2.3453,2.3727,2.3612,2.3641,2.3837,2.3641,2.35,2.3528,2.3472,0.0,0.0,0.0,2.4755,2.5474,2.6609,2.7444,2.7981,2.9422,3.0158,3.0293,3.0703,3.0898,3.0898,3.0898,3.0928,3.0995,3.1498,3.1787,3.1903,3.2469,3.2669,3.2612,3.2669,3.2698,3.2698,3.2698,0.0,0.0,3.3612,3.3888,3.4148,3.5295,3.5441,3.5326,3.5775,3.5665,3.5387,3.5387,3.5387,3.5387,3.5387,3.5387,3.5387,3.5387,3.5387,3.5387,3.5387,3.588,3.6545,3.7253,3.8156,3.8889,3.9405,4.0109,4.0429,3.9955,4.0598,4.1086,4.1139,4.1095,0.0,4.1172,4.0739,4.0739,4.1345,4.0923,4.0549,4.0372,3.9778,3.9416,3.9398,3.8793,3.8433,3.8395,3.8305,3.8027,3.7557,3.7074,3.6846,0.0,0.0,0.0,0.0,0.0,0.0,0.0,0.0,0.0,0.0,0.0,0.0,0.0,0.0,0.0,2.0891,2.156,2.2159,2.2441,2.3028,2.3397,2.3304,2.3397,2.3487,2.3554,2.3704,2.3753,2.3585,2.3528,2.3585,2.3809,2.336,2.3472,2.4284,2.4428,2.498,2.6039,2.664,2.7656,2.9011,2.9374,0.0,3.0762,3.0859,3.0898,3.0898,3.0898,3.1025,3.1238,3.1354,3.173,3.2248,3.2584,3.2412,3.2018,3.2526,3.2698,3.2698,3.2698,3.2954,3.3294,3.3435,3.4004,3.4687,3.5176,3.5339,0.0,3.5798,3.5665,3.5387,3.5387,3.5387,3.5387,3.5387,3.5387,3.5387,3.5387,3.5387,3.5387,3.5387,3.5479,3.5972,3.7193,3.7946,3.8611,3.9229,3.9703,3.9931,3.9838,4.0147,4.0508,4.0792,4.0416,4.0435,4.1148,4.1076,4.1466,4.2428,4.2226,4.1472,4.0125,3.9953,3.9709,3.9347,3.8676,3.8537,3.894,3.8393,3.8253,3.8501,3.767,3.7276,0.0,0.0,0.0,0.0,0.0,0.0,0.0,0.0,0.0,0.0,0.0,1.9862,1.9901,0.0,2.1074,2.1272,2.1876,2.2423,2.2692,2.3051,2.3295,2.338,2.3471,2.35,2.35,2.3613,2.3641,2.35,2.3613,2.3753,2.3893,2.3613,2.3835,2.4637,2.4691,2.5389,2.6774,2.7362,2.8307,2.959,2.9968,3.0403,3.0898,3.0898,3.0898,3.0898,3.0898,3.0966,3.1112,3.1238,3.1585,3.2096,3.2608,3.2567,3.2297,3.2584,3.2698,3.2739,3.2975,3.3203,3.3509,3.4113,3.4532,3.4888,3.5421,3.5498,3.5418,3.5603,3.551,3.5387,3.5387,3.5387,3.5387,3.5387,3.5387,3.5387,3.5387,3.5387,3.5387,3.5387,3.5665,3.6218,3.7223,3.7886,3.8537,3.9219,3.9596,3.9802,3.9802,4.0042,4.031,4.0677,4.0711,4.0826,4.1172,4.0884,4.0925,4.1448,4.1138,4.0535,3.9675,3.9324,3.9031,3.8805,3.8156,3.81,3.8586,3.8249,3.8326,3.8784,3.8335,3.8117,0.0,0.0,0.0,0.0,0.0,0.0,0.0,1.8978,1.9603,1.9613,2.0097,2.0411,2.0163,2.0815,2.1454,2.1576,2.2131,2.2605,2.289,2.2965,2.3078,2.3304,2.336,2.3388,2.3388,2.3444,2.35,2.35,2.3697,2.3842,2.3907,2.3907,2.4241,2.4904,2.5246,2.6059,2.7399,2.8308,2.9173,2.9892,3.0587,3.0898,3.0898,3.0898,3.0898,3.0898,3.0898,3.0898,3.0928,3.1141,3.1471,3.189,3.2554,3.2846,3.288,3.2967,3.2967,3.3037,3.3389,3.3605,3.382,3.4807,3.5009,3.5023,3.5622,3.5603,3.5387,3.5387,3.5387,3.5387,3.5387,3.5387,3.5387,3.5387,3.5387,3.5387,3.5387,3.5387,3.5387,3.5387,3.5963,3.6606,3.7283,3.7886,3.8537,3.9219,3.9514,3.9714,3.9714,3.9896,4.0182,4.0644,4.0869,4.0869,4.0648,4.0288,3.9983,3.9807,3.9567,3.927,3.8971,3.8522,3.8238,3.8148,3.7756,3.7767,3.8248,3.8335,3.8641,3.909,3.909,3.8981,2.0428,1.9523,1.8613,1.8548,1.8417,1.8366,0.0,1.9174,1.9613,1.9671,2.0122,2.0411,2.0163,2.0869,2.1506,2.158,2.217,2.2608,2.2655,2.2853,2.2937,2.2711,2.2909,2.305,2.305,2.3332,2.35,2.35,2.3528,2.3675,2.3971,2.3983,2.4289,2.4986,2.6416,2.727,2.7417,2.9229,3.007,2.9892,3.0587,3.0898,3.0898,3.0898,3.0898,3.0898,3.0898,3.0898,3.0898,3.0928,3.1348,3.2008,3.2402,3.2939,3.3521,3.3818,3.3957,3.3957,3.3998,3.4288,3.4691,3.4805,3.5085,3.5355,3.5448,3.5418,3.5387,3.5387,3.5387,3.5387,3.5387,3.5387,3.5387,3.5387,3.5387,3.5387,3.5387,3.5387,3.5387,3.5387,3.5963,3.6606,3.7283,3.7886,3.8537,3.9219,3.9338,3.9367,3.9367,3.9397,3.9705,4.0519,3.9696,3.8976,3.8641,3.9257,3.9288,3.8376,3.9288,3.924,3.7845,3.7999,3.7933,3.7517,3.7842,3.827,3.8719,3.9219,3.9678,4.0126,4.0126,3.9668,1.9631,1.9318,1.9091,1.8703,1.8929,1.9296,1.9461,1.9928,2.043,2.0628,2.0706,2.0845,2.116,2.1511,2.1859,2.2107,2.2521,2.2824,2.2824,2.2937,2.3029,2.3108,2.3064,2.2994,2.2994,2.3135,2.3299,2.3479,2.3666,2.3942,2.4253,2.4618,2.4957,2.5278,2.6683,2.7641,2.805,2.9415,3.0216,3.0499,3.0782,3.0898,3.0898,3.0898,3.0898,3.0928,3.1054,3.1141,3.1161,3.1446,3.182,3.2285,3.2985,3.3548,3.4002,3.4086,3.4102,3.4143,3.4413,3.462,3.4827,3.5066,3.5273,3.5387,3.5387,3.5387,3.5387,3.5387,3.5387,3.5387,3.5387,3.5387,3.5387,3.5387,3.5387,3.5387,3.5387,3.5387,3.5387,3.5387,3.5963,3.6606,3.7283,3.7886,3.8418,3.8686,3.8716,3.8836,3.913,3.8777,3.8867,3.9907,3.9465,3.9074,3.9047,3.8912,3.8589,3.8036,3.8274,3.8174,3.7497,3.7619,3.7724,3.7811,3.8008,3.8364,3.8935,3.913,3.9379,3.9658,3.9658,3.9541,1.9425,1.9309,1.9304,1.8964,1.9395,1.9905,2.0008,2.0558,2.1079,2.1254,2.1165,2.1249,2.1889,2.1929,2.2032,2.2422,2.2728,2.2937,2.2994,2.2994,2.3121,2.347,2.3295,2.3168,2.3292,2.3184,2.3279,2.3628,2.3892,2.4153,2.4507,2.5113,2.5544,2.5807,2.7133,2.8133,2.8749,2.9697,3.0421,3.0898,3.0898,3.0937,3.0995,3.1112,3.1141,3.117,3.1354,3.1462,3.1543,3.1978,3.2326,3.2725,3.3609,3.4146,3.4473,3.4478,3.4475,3.4516,3.4848,3.4972,3.5013,3.5314,3.5387,3.5387,3.5387,3.5387,3.5387,3.5387,3.5387,3.5387,3.5387,3.5387,3.5387,3.5387,3.5387,3.5387,3.5387,3.5387,3.5387,3.5387,3.587,3.6423,3.6889,3.7495,3.7961,3.8094,3.7824,3.7868,3.8556,3.8108,3.8011,3.8647,3.859,3.847,3.8465,3.7965,3.7525,3.7245,3.7162,3.7136,3.7175,3.7288,3.7535,3.8012,3.8164,3.8428,3.8863,3.9013,3.9119,3.9177,3.9177,3.9394,2.0348,1.9509,1.8767,1.9414,1.9598,1.9689,2.002,2.0747,2.1302,2.1049,2.1261,2.1576,2.193,2.1807,2.1819,2.2399,2.256,2.2711,2.2965,2.2994,2.3121,2.347,2.3473,2.3628,2.402,2.3721,2.3644,2.4036,2.4098,2.4257,2.4577,2.524,2.5884,2.6537,2.8122,2.9076,2.9372,3.0372,3.0888,3.0898,3.0898,3.1025,3.1296,3.1614,3.1759,3.1759,3.1787,3.1874,3.2008,3.2333,3.2805,3.334,3.4004,3.4534,3.4932,3.5222,3.5345,3.5345,3.5366,3.5366,3.5366,3.5387,3.5387,3.5387,3.5387,3.5387,3.5387,3.5387,3.5387,3.5387,3.5387,3.5387,3.5387,3.5387,3.5387,3.5387,3.5387,3.5387,3.5387,3.5387,3.5665,3.5932,3.5942,3.6493,3.7101,3.7555,3.6668,3.631,3.7335,3.7426,3.7184,3.6566,3.6484,3.6239,3.5593,3.5809,3.5819,3.5479,3.6086,3.6512,3.6614,3.6947,3.7337,3.7806,3.8284,3.8519,3.8508,3.8976,3.921,3.9177,3.9177,3.9465,2.0164,1.9933,1.9852,2.0062,2.047,2.082,2.093,2.1396,2.1766,2.1678,2.139,2.1297,2.1654,2.1666,2.1736,2.2175,2.2588,2.2909,2.2994,2.3184,2.347,2.3832,2.3909,2.4309,2.5324,2.448,2.414,2.4716,2.4762,2.5103,2.5885,2.6536,2.6858,2.6874,2.8648,2.945,2.9153,3.0304,3.0908,3.0898,3.1083,3.1344,3.1643,3.1759,3.1787,3.1816,3.2047,3.2157,3.2232,3.2624,3.2878,3.3134,3.3963,3.4381,3.4565,3.5191,3.5387,3.5387,3.5387,3.5387,3.5387,3.5387,3.5387,3.5387,3.5387,3.5387,3.5387,3.5387,3.5387,3.5387,3.5387,3.5387,3.5325,3.5108,3.5077,3.5015,3.4766,3.4735,3.4735,3.4735,3.5201,3.5572,3.5572,3.6105,3.6475,3.6183,3.6299,3.6361,3.6107,3.6064,3.6156,3.6392,3.6668,3.6674,3.6238,3.6792,3.7013,3.6697,3.7076,3.7349,3.7403,3.7498,3.7795,3.8274,3.8422,3.8527,3.8648,3.8795,3.8747,3.8557,3.8816,3.916,2.0395,2.0396,2.0496,2.0683,2.1133,2.1507,2.1571,2.1894,2.2184,2.2186,2.1736,2.1515,2.2023,2.1892,2.1892,2.2347,2.2751,2.2994,2.2994,2.3479,2.4005,2.4359,2.455,2.502,2.6017,2.5414,2.5174,2.575,2.5767,2.6107,2.6887,2.7401,2.7672,2.7719,2.9035,2.9656,2.9509,3.0323,3.0762,3.0898,3.1267,3.1585,3.1816,3.2018,3.2214,3.2377,3.2608,3.2822,3.3041,3.3416,3.3582,3.3677,3.4421,3.4698,3.4749,3.5222,3.5387,3.5387,3.5387,3.5387,3.5387,3.5387,3.5387,3.5387,3.5387,3.5387,3.5387,3.5387,3.5387,3.5356,3.5263,3.5232,3.5139,3.4797,3.4735,3.4673,3.4454,3.4392,3.4392,3.4392,3.4641,3.4859,3.4859,3.5211,3.5366,3.4922,3.5354,3.5592,3.5343,3.5417,3.5697,3.6321,3.6719,3.6908,3.6687,3.7149,3.7349,3.7125,3.7317,3.7529,3.7697,3.7697,3.7908,3.8371,3.8371,3.842,3.8516,3.8649,3.8633,3.844,3.8841,3.9288,2.1024,2.0854,2.0674,2.1254,2.1522,2.1719,2.1962,2.2259,2.2513,2.2513,2.2261,2.2201,2.2814,2.241,2.2217,2.2874,2.2978,2.2994,2.3041,2.391,2.4672,2.5007,2.5459,2.5867,2.6216,2.6493,2.6766,2.7116,2.7086,2.7237,2.7581,2.7912,2.8379,2.9035,2.9313,2.9785,3.0392,3.0421,3.0597,3.0928,3.1518,3.1816,3.1845,3.2461,3.2996,3.3397,3.3439,3.3758,3.4319,3.4623,3.4779,3.4891,3.5253,3.5345,3.5366,3.5387,3.5387,3.5387,3.5387,3.5387,3.5387,3.5387,3.5387,3.5387,3.5387,3.5387,3.5387,3.5387,3.5356,3.5294,3.4953,3.4859,3.4797,3.4454,3.436,3.436,3.436,3.436,3.436,3.436,3.4079,3.3859,3.3859,3.3859,3.3859,3.3859,3.3859,3.4175,3.4995,3.5373,3.5779,3.626,3.6632,3.6846,3.6846,3.6867,3.6867,3.6867,3.6867,3.7074,3.7508,3.7529,3.7736,3.8171,3.8191,3.8191,3.8191,3.8572,3.8778,3.8799,3.9275,3.973,2.1277,2.1242,2.1218,2.1415,2.1868,2.2218,2.2053,2.2458,2.2823,2.2626,2.2438,2.2223,2.2007,2.2131,2.24,2.2658,2.2881,2.3197,2.375,2.4634,2.5386,2.5696,2.6704,2.7609,2.8212,2.8319,2.8588,2.9124,2.851,2.8361,2.8879,2.9224,2.9479,2.9656,3.0235,3.0499,3.0392,3.0645,3.0908,3.1179,3.1614,3.1932,3.2211,3.2913,3.3294,3.3418,3.377,3.4031,3.4148,3.4238,3.427,3.4354,3.4797,3.4951,3.4993,3.5293,3.5387,3.5387,3.5387,3.5387,3.5387,3.5387,3.5387,3.5387,3.5387,3.5387,3.5356,3.5108,3.5015,3.4953,3.461,3.4517,3.4454,3.411,3.4047,3.3953,3.3702,3.3639,3.3639,3.3639,3.3576,3.3544,3.3544,3.3544,3.3544,3.3544,3.3544,3.3922,3.4963,3.5151,3.5588,3.655,3.705,3.7322,3.7322,3.7632,3.7839,3.7839,3.7839,3.7881,3.8005,3.8005,3.8067,3.8191,3.8191,3.8191,3.8191,3.8295,3.8357,3.8378,3.913,3.9564,2.1364,2.1645,2.1904,2.1915,2.2312,2.2617,2.2293,2.2502,2.2764,2.2704,2.2495,2.2488,2.2908,2.2884,2.2939,2.336,2.3301,2.353,2.4362,2.5343,2.622,2.6953,2.7872,2.857,2.8945,2.9124,2.9331,2.9638,2.9313,2.9313,2.9815,3.0039,3.0186,3.0323,3.0704,3.0791,3.0616,3.0791,3.0966,3.1141,3.1412,3.1772,3.2177,3.2711,3.3273,3.3811,3.4079,3.4366,3.4672,3.4672,3.4672,3.4693,3.4941,3.4953,3.4851,3.5119,3.5077,3.4953,3.4953,3.5046,3.5201,3.5356,3.5294,3.517,3.517,3.5077,3.4922,3.4735,3.4673,3.461,3.4267,3.4173,3.411,3.3765,3.367,3.3639,3.3449,3.3386,3.3386,3.3386,3.3386,3.3449,3.3576,3.3513,3.3513,3.3796,3.3702,3.4128,3.5468,3.5485,3.5856,3.7028,3.7534,3.7798,3.7798,3.8026,3.8191,3.8191,3.8191,3.8191,3.8191,3.8191,3.8191,3.8191,3.8191,3.8191,3.8191,3.8378,3.8481,3.8502,3.9378,3.9813,2.1486,2.1989,2.2498,2.2518,2.2756,2.2927,2.2616,2.2564,2.266,2.286,2.2742,2.3037,2.4535,2.4114,2.38,2.4554,2.4134,2.4032,2.5035,2.6007,2.7078,2.833,2.8902,2.9183,2.9261,2.946,2.9608,2.9608,2.9863,3.0157,3.045,3.048,3.0597,3.0898,3.0898,3.0898,3.0898,3.0898,3.0898,3.0898,3.1229,3.1622,3.2028,3.2424,3.3215,3.4299,3.436,3.479,3.5387,3.5387,3.5387,3.5387,3.5387,3.5201,3.4891,3.4891,3.4704,3.4423,3.4454,3.4641,3.4891,3.517,3.5108,3.4891,3.4859,3.4641,3.4392,3.436,3.4329,3.4267,3.3922,3.3827,3.3765,3.3481,3.3418,3.3449,3.3418,3.3418,3.3481,3.3481,3.3513,3.3607,3.3859,3.3702,3.3702,3.4267,3.411,3.4504,3.6021,3.6022,3.6342,3.7567,3.8004,3.8191,3.8191,3.8191,3.8191,3.8191,3.8191,3.8191,3.8191,3.8191,3.8191,3.8191,3.8191,3.8191,3.8191,3.853,3.8758,3.8841,3.9709,4.0143,2.1959,2.2191,2.2506,2.2583,2.2777,2.2955,2.2794,2.296,2.3233,2.3422,2.3798,2.4271,2.4707,2.4788,2.4974,2.5548,2.5065,2.4952,2.6031,2.6789,2.7665,2.8762,2.963,3.0274,3.0528,3.0616,3.0645,3.0645,3.0674,3.0733,3.0791,3.082,3.082,3.0898,3.0898,3.0898,3.0898,3.0898,3.0898,3.0928,3.1554,3.1919,3.2048,3.3095,3.3852,3.4319,3.4656,3.5046,3.5387,3.5387,3.5387,3.5387,3.5387,3.5201,3.4891,3.4891,3.4704,3.4454,3.4735,3.4673,3.4517,3.4548,3.4735,3.4859,3.4579,3.4454,3.4329,3.4047,3.3985,3.3922,3.3576,3.3481,3.3481,3.3418,3.3607,3.3733,3.3449,3.3607,3.3796,3.3796,3.4047,3.4173,3.3953,3.4079,3.4173,3.4016,3.4173,3.4635,3.5593,3.6012,3.6701,3.7955,3.8158,3.8191,3.8191,3.8191,3.8191,3.8191,3.8191,3.8191,3.8191,3.8191,3.8191,3.8191,3.8191,3.8191,3.8191,3.8253,3.8481,3.882,3.9378,3.9833,2.2097,2.2239,2.2502,2.2537,2.2624,2.2704,2.2581,2.2813,2.3118,2.3384,2.3833,2.4437,2.5272,2.5486,2.5726,2.6236,2.5733,2.575,2.7193,2.7513,2.8202,2.9798,3.0382,3.0733,3.0898,3.0898,3.0898,3.0898,3.0898,3.0898,3.0898,3.0898,3.0898,3.0898,3.0898,3.0898,3.0898,3.0898,3.0996,3.123,3.1574,3.1997,3.243,3.3028,3.3684,3.4369,3.454,3.4922,3.5387,3.5387,3.5387,3.5387,3.5387,3.5201,3.4891,3.4891,3.4704,3.4392,3.4392,3.4392,3.4329,3.3985,3.411,3.436,3.4204,3.4016,3.3859,3.3702,3.3639,3.3607,3.3449,3.3544,3.367,3.367,3.3922,3.411,3.3953,3.4047,3.4173,3.4173,3.4298,3.4392,3.4423,3.4423,3.4454,3.4641,3.4673,3.5041,3.6084,3.6403,3.6891,3.7757,3.8046,3.8191,3.8191,3.8191,3.8191,3.8191,3.8191,3.8191,3.8191,3.8191,3.8191,3.8191,3.8191,3.8191,3.8191,3.8191,3.8419,3.882,3.9296,3.9751,2.2279,2.2381,2.2631,2.2441,2.2544,2.2662,2.2504,2.2831,2.3223,2.3447,2.3931,2.4667,2.5874,2.6198,2.6464,2.6892,2.6455,2.6609,2.8173,2.8172,2.8699,3.0577,3.0791,3.082,3.0898,3.0898,3.0898,3.0898,3.0898,3.0898,3.0898,3.0898,3.0898,3.0898,3.0898,3.0898,3.0898,3.0976,3.1191,3.1494,3.1699,3.2148,3.2793,3.2891,3.348,3.4392,3.4392,3.4766,3.5387,3.5387,3.5387,3.5387,3.5387,3.5201,3.4891,3.4828,3.4641,3.436,3.411,3.4173,3.4298,3.3796,3.3733,3.389,3.3796,3.3607,3.3386,3.3386,3.3386,3.3418,3.3481,3.3702,3.3953,3.4079,3.4267,3.4423,3.4485,3.4517,3.4517,3.4517,3.4579,3.4673,3.4859,3.4735,3.4766,3.5232,3.5221,3.5518,3.6524,3.6825,3.7094,3.7446,3.7902,3.8191,3.8191,3.8191,3.8191,3.8191,3.8191,3.8191,3.8191,3.8191,3.8191,3.8191,3.8191,3.8191,3.8191,3.8274,3.8564,3.8965,3.944,3.993,2.2654,2.2794,2.313,2.2247,2.2695,2.3259,2.308,2.3705,2.4296,2.4142,2.4928,2.5793,2.6273,2.6862,2.7392,2.7806,2.7506,2.7571,2.853,2.8644,2.906,3.0296,3.045,3.0567,3.085,3.0898,3.0898,3.0898,3.0898,3.0898,3.0898,3.0898,3.0898,3.0898,3.0898,3.0898,3.0898,3.1269,3.1455,3.1494,3.2305,3.2715,3.2812,3.3184,3.3725,3.4392,3.4392,3.4766,3.5387,3.5387,3.5387,3.5387,3.5387,3.5201,3.4859,3.4548,3.4423,3.4392,3.436,3.436,3.4392,3.4329,3.411,3.3827,3.3544,3.3418,3.3386,3.3386,3.3386,3.3481,3.3796,3.389,3.4047,3.4673,3.461,3.4485,3.4797,3.4859,3.4859,3.4859,3.5108,3.5232,3.4953,3.5139,3.5232,3.4984,3.5519,3.6017,3.6131,3.6908,3.7446,3.7488,3.7902,3.8191,3.8191,3.8191,3.8191,3.8191,3.8191,3.8191,3.8191,3.8191,3.8191,3.8191,3.8191,3.8191,3.8191,3.8551,3.8985,3.9461,3.9916,4.0582,2.3321,2.3195,2.3183,2.3065,2.3305,2.3567,2.3466,2.4099,2.4791,2.5007,2.5463,2.596,2.6529,2.705,2.7506,2.7894,2.7806,2.8079,2.9119,2.9066,2.9392,3.0577,3.0704,3.0762,3.0898,3.0898,3.0898,3.0898,3.0898,3.0898,3.0898,3.0898,3.0898,3.0898,3.0898,3.1016,3.1269,3.1426,3.1747,3.2285,3.2637,3.2917,3.3102,3.328,3.37,3.4349,3.4349,3.4738,3.5387,3.5387,3.5387,3.5387,3.5387,3.5325,3.517,3.5046,3.5015,3.4984,3.4766,3.4704,3.4673,3.4485,3.4298,3.411,3.3544,3.3386,3.3386,3.3386,3.3544,3.3733,3.3859,3.4204,3.461,3.5077,3.5418,3.551,3.5263,3.551,3.5665,3.5263,3.5294,3.5356,3.5232,3.5294,3.5459,3.5603,3.5903,3.6308,3.6867,3.726,3.7612,3.7881,3.8067,3.8191,3.8191,3.8191,3.8191,3.8191,3.8191,3.8191,3.8191,3.8191,3.8191,3.8191,3.8191,3.8316,3.8551,3.8737,3.9192,3.9916,4.0102,4.068,2.3739,2.3566,2.354,2.3538,2.3704,2.3878,2.3874,2.4619,2.5338,2.5541,2.595,2.6397,2.6864,2.7344,2.7745,2.7987,2.811,2.8474,2.9297,2.9325,2.9551,3.0401,3.0605,3.0684,3.0684,3.082,3.0898,3.0898,3.0898,3.0937,3.0995,3.0937,3.0937,3.1025,3.1074,3.124,3.1623,3.1908,3.2339,3.2948,3.3158,3.3404,3.364,3.364,3.3929,3.4503,3.4503,3.4821,3.5387,3.5387,3.5387,3.5387,3.5387,3.5387,3.5387,3.5294,3.5294,3.5356,3.5015,3.4953,3.4984,3.4673,3.4548,3.4454,3.3859,3.3702,3.3702,3.3702,3.3953,3.4204,3.4204,3.4766,3.5387,3.5634,3.6187,3.6575,3.6095,3.634,3.6514,3.5819,3.5695,3.5675,3.5604,3.5593,3.5759,3.6246,3.6432,3.6763,3.7405,3.7612,3.7819,3.815,3.8191,3.8191,3.8191,3.8191,3.8191,3.8191,3.8191,3.8191,3.8191,3.8191,3.8191,3.8191,3.8316,3.8543,3.882,3.9089,3.9564,4.0206,4.047,4.1017,2.3752,2.3923,2.4341,2.3367,2.37,2.4288,2.4296,2.5263,2.6084,2.5667,2.6512,2.729,2.729,2.7849,2.8281,2.8301,2.8633,2.8898,2.8898,2.9297,2.9598,2.9618,2.9941,3.0195,3.0195,3.0625,3.0898,3.0898,3.0898,3.1025,3.1267,3.1054,3.1025,3.1296,3.1437,3.1672,3.1979,3.2851,3.3287,3.3287,3.4015,3.4392,3.4392,3.4392,3.4579,3.4891,3.4891,3.5077,3.5387,3.5387,3.5387,3.5387,3.5387,3.5387,3.5356,3.5015,3.5108,3.5356,3.5015,3.5108,3.5325,3.5015,3.4891,3.4828,3.4485,3.4392,3.4392,3.4392,3.4641,3.4891,3.4891,3.5634,3.6392,3.6392,3.6911,3.7374,3.7374,3.7374,3.7193,3.6514,3.6392,3.6326,3.6112,3.6101,3.6266,3.6722,3.7177,3.7488,3.7488,3.7902,3.8171,3.8191,3.8191,3.8191,3.8191,3.8191,3.8191,3.8191,3.8191,3.8191,3.8191,3.8191,3.8191,3.8191,3.8592,3.882,3.882,3.973,4.0185,4.0206,4.1086,4.1877,2.4864,2.4814,2.4782,2.4735,2.4923,2.5194,2.5396,2.599,2.6589,2.6969,2.7149,2.7393,2.7895,2.8016,2.8191,2.8645,2.8594,2.8691,2.9277,2.952,2.9696,2.9989,3.0391,3.0664,3.0664,3.0801,3.0966,3.117,3.115,3.1315,3.1614,3.1885,3.1876,3.1663,3.1761,3.2118,3.2745,3.3325,3.3766,3.4066,3.43,3.4386,3.4319,3.4319,3.4503,3.484,3.484,3.5056,3.5387,3.5387,3.5387,3.5387,3.5387,3.5387,3.5387,3.5263,3.5294,3.5387,3.5263,3.5294,3.5387,3.5263,3.5232,3.5294,3.5665,3.5139,3.4454,3.4673,3.5479,3.6197,3.5972,3.6493,3.7071,3.7071,3.7555,3.7886,3.7495,3.7404,3.7301,3.6972,3.6487,3.6258,3.6526,3.6577,3.6742,3.7198,3.7405,3.7612,3.7922,3.8088,3.8191,3.8191,3.8191,3.8191,3.8191,3.8191,3.8191,3.8191,3.8191,3.8191,3.8191,3.8191,3.8336,3.8592,3.8737,3.913,3.9751,4.0061,4.0491,4.1086,4.1601,4.2124,2.5269,2.5194,2.52,2.5421,2.5597,2.578,2.6135,2.6647,2.7163,2.7617,2.7642,2.7757,2.8215,2.8147,2.8191,2.8606,2.8594,2.8711,2.9258,2.95,2.9755,3.0137,3.0449,3.0703,3.0879,3.0898,3.0995,3.1267,3.1454,3.1738,3.2174,3.256,3.272,3.2671,3.2674,3.2975,3.3538,3.3983,3.4347,3.4579,3.4735,3.4748,3.4728,3.4728,3.482,3.5034,3.5034,3.5169,0.0,3.5387,3.5387,3.5387,3.5387,3.5387,3.5387,3.5387,3.5387,3.5387,3.5387,3.5387,3.5387,3.5387,3.5572,3.587,3.627,3.5972,3.5603,3.5788,3.6462,3.7041,3.6828,3.7275,3.7736,3.7736,3.8216,3.8642,3.8462,3.8182,3.7972,3.7773,3.7223,3.6801,3.7023,3.7074,3.7218,3.7674,3.7757,3.786,3.815,3.8191,3.8191,3.8191,3.8191,3.8191,3.8191,3.8191,3.8191,3.8191,3.8191,3.8191,3.8191,3.8357,3.853,3.882,3.9151,3.9626,4.0185,4.0386,4.0896,4.1686,4.1912,4.23,0.0,2.5231,2.5509,2.5572,2.5817,2.6133,2.6596,2.7208,0.0,2.7741,2.8054,2.8301,2.8301,2.8301,2.8301,2.834,2.8633,2.8879,2.8918,2.9364,2.9822,3.0195,3.0311,3.0468,3.0898,3.0957,3.1083,3.1354,3.18,3.2304,3.2901,3.3183,3.3566,3.4113,3.3994,3.4044,3.4329,3.4728,3.4953,3.4953,3.5263,3.5387,3.5387,3.5387,3.5387,3.5387,3.5387,3.5387,3.5387,3.5387,3.5387,3.5387,3.5387,3.5387,3.5387,3.5387,3.5387,3.5387,3.5387,3.5387,3.5418,3.5448,3.5942,3.6545,3.6545,3.695,3.7465,3.7404,3.7465,3.7525,3.7465,3.7916,3.8388,3.8388,3.8887,3.9492,3.9921,3.9492,3.8948,3.8813,3.826,3.7709,3.7598,3.755,3.7695,3.8129,3.8191,3.8191,3.8191,3.8191,3.8191,3.8191,3.8191,3.8191,3.8191,3.8191,3.8191,3.8191,3.8191,3.8191,3.8233,3.8592,3.8841,3.8903,3.9792,4.0247,4.0247,4.0711,4.131,4.2018,4.2053,4.2441,2.5547,0.0,2.5736,2.609,2.6262,2.6507,0.0,2.7598,2.778,2.8112,2.8223,2.8301,2.8301,2.8301,2.8398,2.8711,2.8574,2.8672,2.9344,3.003,3.0491,3.0713,3.1157,3.1379,3.1208,3.1441,3.1701,3.2047,3.2452,3.2842,3.3252,3.4006,3.4469,3.462,3.4871,3.4923,3.4664,3.5067,3.5263,3.5263,3.5356,3.5387,3.5387,3.5387,3.5387,3.5387,3.5387,3.5387,3.5387,3.5387,3.5387,3.5387,3.5387,3.5387,3.5387,3.5387,3.5387,3.5387,3.5387,3.5387,3.5479,3.5993,3.6941,3.7848,3.7848,3.7946,3.7976,3.7525,3.8096,3.8745,3.8216,3.8574,3.9072,3.9072,3.9517,3.9785,3.9333,3.9037,3.8803,3.8605,3.8036,3.7663,3.7976,3.8026,3.8067,3.8171,3.8191,3.8191,3.8191,3.8191,3.8191,3.8191,3.8191,3.8191,3.8191,3.8191,3.8191,3.8191,3.8191,3.8336,3.8654,3.8758,3.9151,3.9854,4.0448,4.0717,4.0717,4.1161,4.1579,4.2018,4.2335,4.2721,2.5693,2.5693,2.5815,2.6289,2.6523,2.6855,2.7545,2.7839,2.8054,2.8242,2.8301,2.8301,2.8301,2.8301,2.8359,2.8594,2.8545,2.8836,2.9869,3.0413,3.0792,3.1053,3.1498,3.1672,3.1325,3.1585,3.1932,3.2277,3.2889,3.3375,3.3699,3.4599,3.5096,3.5096,3.5293,3.5314,3.5066,3.5293,3.5387,3.5387,3.5211,3.5231,3.5387,3.5211,3.5231,3.5387,3.5387,3.5387,3.5387,3.5387,3.5387,3.5387,3.5387,3.5387,3.5387,3.5387,3.5387,3.5387,3.5387,3.5603,3.5972,3.6615,3.7495,3.8298,3.8298,3.8485,3.8693,3.8365,3.8752,3.9219,3.8864,3.9202,3.9682,3.9682,3.9832,3.9999,4.0165,3.9387,3.8797,3.9228,3.8521,3.7881,3.8183,3.8191,3.8191,3.8191,3.8191,3.8191,3.8191,3.8191,3.8191,3.8191,3.8191,3.8191,3.8191,3.8191,3.8191,3.8191,3.8378,3.8551,3.8799,3.9213,3.9771,4.051,4.0936,4.1167,4.1167,4.1544,4.1912,4.23,4.2511,4.2826,2.5796,2.5815,2.5913,2.6367,2.6797,2.7226,2.7682,2.8073,2.8301,2.8301,2.8301,2.832,2.8379,2.834,2.8347,2.8459,2.8752,2.9318,3.0379,3.0754,3.1043,3.1343,3.1701,3.1816,3.1469,3.173,3.2047,3.2334,3.3112,3.3722,3.4102,3.4859,3.5355,3.5387,3.5387,3.5387,3.5387,3.5387,3.5387,3.5387,3.5045,3.5066,3.5387,3.5055,3.5066,3.5387,3.5387,3.5387,3.5387,3.5387,3.5387,3.5387,3.5387,3.5387,3.5387,3.5387,3.5387,3.5418,3.551,3.6095,3.6828,3.7374,3.7976,3.8537,3.8477,3.8864,3.9308,3.9308,3.9308,3.9331,3.94,3.9774,4.0096,4.0188,4.0143,4.0341,4.1248,4.0027,3.9034,3.9964,3.9099,3.8191,3.8191,3.8191,3.8191,3.8191,3.8191,3.8191,3.8191,3.8191,3.8191,3.8191,3.8191,3.8191,3.8191,3.8253,3.8295,3.8295,3.8613,3.8882,3.9027,3.9833,4.051,4.0969,4.1331,4.1508,4.1579,4.1912,4.2265,4.2616,4.2651,4.2861,2.6191,2.6289,2.6387,2.6791,2.7246,2.7702,2.8105,2.8242,2.8301,2.8301,2.8301,2.8398,2.8769,2.8535,2.8498,2.9115,2.9791,3.0291,3.0487,3.141,3.1966,3.1759,3.224,3.2469,3.2162,3.2412,3.2584,3.2641,3.3145,3.3629,3.4081,3.4599,3.5055,3.5387,3.5387,3.5387,3.5387,3.5387,3.5387,3.5387,3.5355,3.5355,3.5387,3.5355,3.5355,3.5387,3.5387,3.5387,3.5387,3.5387,3.5387,3.5387,3.5387,3.5387,3.5387,3.5387,3.5387,3.5479,3.6055,3.7223,3.8395,3.8216,3.8805,3.9537,3.9219,3.9219,3.9308,3.9308,3.9308,3.94,3.9866,4.0027,4.0188,4.0594,4.1037,4.1186,4.0783,4.0292,3.9845,3.944,3.8735,3.8191,3.8191,3.8191,3.8191,3.8191,3.8191,3.8191,3.8191,3.8191,3.8191,3.8191,3.8191,3.8191,3.8191,3.8489,3.8716,3.8716,3.8778,3.9171,3.9957,4.051,4.0998,4.1402,4.1473,4.165,4.1912,4.2335,4.2546,4.2616,4.2953,4.3128,2.6269,2.6562,2.6836,2.7266,2.7545,2.78,2.823,2.8301,2.8301,2.8301,2.8301,2.8359,2.8535,2.8418,2.852,2.9146,2.9599,3.0171,3.088,3.1528,3.1954,3.2055,3.244,3.2584,3.2334,3.2555,3.2801,3.3058,3.3492,3.3978,3.4433,3.491,3.5211,3.5387,3.5387,3.5387,3.5387,3.5387,3.5387,3.5387,3.519,3.519,3.5387,3.5169,3.519,3.5387,3.5387,3.5387,3.5387,3.5387,3.5387,3.5387,3.5387,3.5387,3.5448,3.5809,3.6064,3.634,3.7132,3.8036,3.8812,3.8812,3.916,3.9485,3.9338,3.9308,3.9354,3.9659,3.9728,3.9797,4.0027,4.0486,4.0969,4.1168,4.1322,4.1434,4.1466,4.0503,3.9702,3.9789,3.8934,3.8191,3.8191,3.8191,3.8191,3.8191,3.8191,3.8191,3.8191,3.8191,3.8191,3.8191,3.8191,3.8274,3.8523,3.8696,3.9095,3.9833,3.9854,4.0271,4.1151,4.1382,4.1594,4.1792,4.1983,4.2159,4.2335,4.2721,4.2918,4.2918,4.3093,4.3351,2.6426,2.6855,2.7266,2.7721,2.7839,2.7917,2.8223,2.8301,2.8301,2.8301,2.8301,2.832,2.8418,2.8545,2.8746,2.9046,2.9541,3.0241,3.1264,3.1642,3.1973,3.235,3.2584,3.2612,3.2391,3.2584,3.2884,3.3377,3.3729,3.4185,3.4765,3.5086,3.5314,3.5387,3.5387,3.5387,3.5387,3.5387,3.5387,3.5387,3.5086,3.5086,3.5387,3.5066,3.5107,3.5387,3.5387,3.5387,3.5387,3.5387,3.5387,3.5387,3.5387,3.5479,3.5726,3.6392,3.695,3.7443,3.8156,3.8782,3.9285,3.9432,3.9514,3.9514,3.9426,3.9459,3.9561,3.9981,4.0257,4.044,4.044,4.1015,4.1635,4.1719,4.1629,4.1637,4.1988,4.068,3.9538,3.9986,3.9033,3.8191,3.8191,3.8191,3.8191,3.8191,3.8191,3.8191,3.8191,3.8191,3.8191,3.8191,3.8274,3.8598,3.9225,3.9267,3.9826,4.113,4.1137,4.1376,4.1961,4.2018,4.2053,4.2159,4.2419,4.2651,4.2756,4.3058,4.3263,4.3372,4.3372,4.3613,2.6855,2.7285,2.7741,2.8171,2.8242,2.8262,2.8281,2.8301,2.8301,2.8301,2.8301,2.8418,2.8809,2.9322,2.9561,2.9166,3.0309,3.1285,3.1408,3.2098,3.2628,3.2669,3.2698,3.2698,3.2669,3.2698,3.2884,3.3377,3.3439,3.3853,3.4744,3.4827,3.5013,3.5387,3.5387,3.5387,3.5387,3.5387,3.5387,3.5387,3.5366,3.5366,3.5387,3.5366,3.5366,3.5387,3.5387,3.5387,3.5387,3.5387,3.5387,3.5387,3.5387,3.5757,3.6423,3.7071,3.7886,3.8693,3.8752,3.955,4.0508,4.0223,4.0135,4.0077,3.9831,3.989,4.005,4.0073,4.0762,4.1497,4.1497,4.1543,4.1727,4.2146,4.2252,4.2084,4.1508,4.0712,3.9964,3.9374,3.8702,3.8191,3.8191,3.8191,3.8191,3.8191,3.8191,3.8191,3.8191,3.8191,3.8191,3.8191,3.851,3.9267,4.0543,4.064,4.1165,4.239,4.213,4.194,4.2018,4.2018,4.2194,4.2524,4.2581,4.2791,4.3184,4.3184,4.3438,4.3853,4.3853,4.4116,2.6894,2.7324,2.78,2.8184,2.8301,2.8301,2.8301,2.8301,2.8301,2.8301,2.8301,2.8393,2.8731,2.8965,2.9273,2.9701,3.052,3.1388,3.2202,3.2559,3.2841,3.3211,3.2926,3.2698,3.2698,3.304,3.3436,3.3907,3.4223,3.4665,3.5318,3.5238,3.5252,3.5387,3.5387,3.5387,3.5387,3.5387,3.5387,3.5387,3.5387,3.5387,3.5387,3.5387,3.5387,3.5387,3.5387,3.5387,3.5387,3.5387,3.5788,3.6401,3.6989,3.711,3.7102,3.7976,3.8514,3.8871,3.9279,3.972,4.0124,3.9984,3.9954,3.9925,3.9831,4.0062,4.0412,4.0736,4.1368,4.187,4.1675,4.1811,4.2118,4.2523,4.2466,4.218,4.171,4.0906,4.016,3.9899,3.9276,3.8835,3.8835,3.8835,3.8669,3.8258,3.8191,3.8191,3.8191,3.8191,3.8295,3.853,3.9473,4.0264,4.0759,4.1488,4.2107,4.2559,4.2476,4.2476,4.2743,4.2743,4.2813,4.2953,4.2988,4.3058,4.3219,4.3504,4.3722,4.3897,4.4203,4.4582,2.6934,2.7441,2.7956,2.8223,2.8301,2.8301,2.8301,2.8301,2.8301,2.8301,2.8381,2.8541,2.8893,2.8966,2.9319,3.0333,3.0948,3.1677,3.2738,3.312,3.3416,3.384,3.353,3.3275,3.3275,3.3643,3.4089,3.454,3.4837,3.5328,3.6096,3.5964,3.588,3.588,3.588,3.5726,3.5387,3.5726,3.588,3.588,3.6064,3.6003,3.5695,3.5479,3.551,3.5695,3.5479,3.5387,3.5418,3.5757,3.6441,3.7413,3.8283,3.8306,3.7976,3.8901,3.9233,3.9315,3.989,4.0095,4.0095,4.0211,4.0036,3.9831,4.0036,4.0298,4.0638,4.1271,4.1814,4.2226,4.2171,4.2378,4.2633,4.2759,4.2601,4.2339,4.1902,4.1261,4.0647,4.0268,3.9931,3.967,3.9538,3.9341,3.9045,3.857,3.8358,3.8191,3.8191,3.8316,3.8626,3.9192,4.0195,4.0913,4.1165,4.2037,4.2651,4.2791,4.2791,4.2918,4.3184,4.3219,4.3219,4.3219,4.3351,4.3438,4.3438,4.3897,4.4203,4.4356,4.467,4.5085,2.7031,2.7637,2.8301,2.8301,2.8301,2.8301,2.8301,2.8301,2.8327,2.8308,2.8541,2.8887,2.9402,2.958,2.9955,3.0941,3.1725,3.238,3.2848,3.3825,3.4497,3.4497,3.4497,3.4497,3.4497,3.4519,3.4715,3.5168,3.507,3.5631,3.7023,3.697,3.692,3.6898,3.6898,3.6411,3.5418,3.6432,3.6898,3.692,3.7525,3.7314,3.6392,3.5726,3.5809,3.6392,3.5726,3.5418,3.551,3.6524,3.7473,3.8403,3.9049,3.9108,3.893,3.9873,4.0194,4.0252,4.0566,4.0706,4.0764,4.111,4.0561,3.9919,4.0532,4.0599,4.0698,4.1566,4.2143,4.2637,4.3154,4.3295,4.3232,4.2886,4.2791,4.2633,4.1966,4.1806,4.1463,4.0431,4.055,4.068,4.029,3.967,3.921,3.921,3.8636,3.8225,3.8225,3.8585,3.9171,4.0102,4.057,4.1144,4.194,4.237,4.2791,4.3184,4.3219,4.3219,4.3219,4.3219,4.3219,4.3219,4.3657,4.3897,4.3897,4.4378,4.4845,4.5288,4.5288,4.5565,2.7383,2.7897,2.8301,2.8301,2.8301,2.8354,2.8541,2.8568,2.8754,2.9375,2.956,2.9717,3.0078,3.0748,3.1439,3.1826,3.27,3.3639,3.4538,3.457,3.4658,3.5102,3.4769,3.4497,3.4497,3.4858,3.5174,3.533,3.5931,3.6549,3.7203,3.7421,3.7344,3.6898,3.7533,3.7413,3.6441,3.7413,3.7894,3.7894,3.8074,3.8014,3.7714,3.7292,3.7322,3.7744,3.7533,3.7421,3.7503,3.8253,3.8752,3.9078,3.9954,4.01,3.9843,4.0363,4.0392,4.0252,4.0566,4.0415,4.0153,4.0677,4.0508,4.0159,4.059,4.0945,4.1348,4.1958,4.2485,4.2914,4.3216,4.3639,4.3919,4.3576,4.3326,4.3043,4.261,4.2325,4.207,4.1751,4.1783,4.1655,4.1067,4.0809,4.0485,3.9997,3.9735,3.9646,3.9723,3.9775,4.0,4.055,4.1229,4.1869,4.2384,4.2813,4.3267,4.387,4.3476,4.3219,4.3219,4.3219,4.3219,4.3219,4.3351,4.3569,4.3897,4.4378,4.4845,4.5325,4.5653,4.6167,2.7565,2.7995,2.8301,2.8301,2.8301,2.8441,2.9079,2.9211,2.9369,2.99,3.0266,3.0604,3.0966,3.1659,3.2319,3.2818,3.3594,3.4459,3.5283,3.5295,3.535,3.5708,3.5433,3.524,3.524,3.5543,3.5763,3.5763,3.641,3.7115,3.7826,3.8209,3.8276,3.8044,3.8559,3.841,3.7473,3.8403,3.8855,3.8855,3.9115,3.9321,3.9409,3.8432,3.8253,3.867,3.8432,3.8499,3.8885,3.9292,3.9697,4.013,4.0682,4.0682,4.045,4.0792,4.0682,4.045,4.0769,4.059,4.0241,4.0735,4.0737,4.0563,4.0811,4.1179,4.1644,4.2317,4.2705,4.3051,4.3543,4.4005,4.4223,4.3888,4.3646,4.3428,4.324,4.3051,4.2862,4.2705,4.2799,4.2736,4.2189,4.187,4.155,4.111,4.0606,4.0496,4.1135,4.0769,4.0773,4.1606,4.2282,4.2875,4.3432,4.3801,4.4216,4.4606,4.3974,4.3615,4.3615,4.3337,4.3219,4.3219,4.3674,4.4158,4.4644,4.5417,4.605,4.6563,4.6978,4.742,2.7624,2.8034,2.8301,2.8301,2.8381,2.8761,2.9848,3.0162,3.024,3.024,3.0789,3.148,3.2005,3.2399,3.291,3.3816,3.4468,3.4994,3.5421,3.5954,3.6305,3.6305,3.6305,3.6305,3.6305,3.6305,3.6305,3.6305,3.6641,3.7412,3.8643,3.9117,3.9474,3.968,3.9791,3.938,3.844,3.9357,3.9849,3.9849,4.045,4.0908,4.1144,3.935,3.8848,3.9455,3.8819,3.9056,3.9849,3.9791,4.0368,4.1201,4.1168,4.0995,4.0792,4.111,4.1024,4.0792,4.1086,4.1019,4.0835,4.1158,4.1197,4.1147,4.1287,4.1449,4.1804,4.2628,4.2862,4.3102,4.4051,4.4285,4.4223,4.3919,4.3833,4.3833,4.3833,4.3833,4.374,4.3451,4.3639,4.3709,4.3357,4.2799,4.2411,4.2457,4.1525,4.1259,4.2506,4.1753,4.1655,4.3088,4.3584,4.409,4.48,4.5119,4.5324,4.5392,4.4709,4.4331,4.44,4.365,4.3219,4.3289,4.4385,4.5239,4.5827,4.6932,4.777,4.8335,4.8542,4.8735,2.7949,2.8223,2.8301,2.8301,2.8973,2.9874,3.0738,3.1432,3.1866,3.1866,3.2018,3.2304,3.2855,3.3685,3.4339,3.4491,3.5337,3.5977,3.6091,3.6223,3.6305,3.6305,3.6305,3.6305,3.6305,3.6305,3.6305,3.6305,3.6934,3.7743,3.8648,3.9373,3.9742,3.9709,4.0484,4.0397,3.9409,4.0397,4.0884,4.0884,4.1,4.1139,4.1196,4.0479,4.0421,4.0769,4.0653,4.0711,4.0855,4.0595,4.0769,4.1172,4.0908,4.0937,4.111,4.1172,4.1144,4.111,4.1172,4.1258,4.1358,4.171,4.1922,4.206,4.2358,4.2495,4.2652,4.3192,4.3337,4.3505,4.4148,4.4285,4.4285,4.4223,4.4192,4.4192,4.4192,4.4192,4.4192,4.4099,4.4161,4.3982,4.342,4.3177,4.3223,4.3644,4.3932,4.4203,4.4476,4.3905,4.3715,4.4366,4.4503,4.4709,4.5153,4.5256,4.5561,4.6136,4.546,4.5324,4.59,4.4147,4.3441,4.3974,4.4236,4.4874,4.5952,4.6218,4.6783,4.7514,4.7019,4.7561,2.8522,2.8681,2.8708,2.884,2.9927,3.1069,3.1505,3.2218,3.2821,3.2821,3.2821,3.2979,3.3478,3.4259,3.4863,3.505,3.5794,3.6359,3.6468,3.6386,3.6359,3.6495,3.6386,3.6359,3.6495,3.6386,3.6413,3.6657,3.7172,3.7812,3.854,3.9176,3.9675,3.9996,4.0531,4.0679,4.0426,4.0942,4.1201,4.1201,4.1201,4.1201,4.1172,4.1,4.1028,4.1201,4.1201,4.1201,4.1196,4.1024,4.1052,4.1172,4.1024,4.1052,4.1201,4.1201,4.1201,4.1201,4.1201,4.1446,4.1761,4.1937,4.2406,4.2861,4.2802,4.2958,4.3168,4.3433,4.3505,4.3619,4.4172,4.4285,4.4285,4.4285,4.4285,4.4285,4.4285,4.4285,4.4285,4.4285,4.4285,4.4192,4.3826,4.3977,4.4436,4.5253,4.5202,4.5249,4.5682,4.4993,4.4778,4.5494,4.5585,4.5765,4.6305,4.6338,4.6506,4.6874,4.6237,4.6001,4.6372,4.5006,4.4388,4.4709,4.5085,4.5679,4.6564,4.7079,4.7856,4.8763,4.8763,4.9427,2.9225,2.9369,2.9501,2.9848,3.097,3.2041,3.2193,3.2793,3.3317,3.3317,3.3317,3.3478,3.4027,3.4509,3.4992,3.5566,3.6002,3.6386,3.6657,3.6522,3.6468,3.6685,3.6549,3.6522,3.6661,3.6549,3.663,3.7089,3.7446,3.7907,3.8523,3.9054,3.9718,4.0523,4.0523,4.0739,4.1201,4.1201,4.1201,4.1201,4.1201,4.1201,4.1201,4.1201,4.1201,4.1201,4.1201,4.1201,4.1201,4.1201,4.1201,4.1201,4.1201,4.1201,4.1201,4.1201,4.1201,4.1196,4.1321,4.1706,4.214,4.2236,4.288,4.3577,4.3198,4.3337,4.3619,4.3619,4.3619,4.3739,4.4196,4.4285,4.4285,4.4285,4.4285,4.4285,4.4285,4.4285,4.4285,4.4285,4.4285,4.4309,4.4436,4.4893,4.5565,4.6527,4.6021,4.5769,4.6493,4.5799,4.5619,4.6506,4.6573,4.6865,4.7431,4.7497,4.7497,4.7497,4.6931,4.6573,4.6573,4.6001,4.5697,4.5765,4.617,4.6718,4.7346,4.8247,4.9178,5.0167,5.0777,5.1365,3.0037,3.0417,3.0759,3.148,3.1837,3.2215,3.2944,3.322,3.3317,3.3317,3.3317,3.3593,3.4509,3.4739,3.5106,3.6052,3.6259,3.6386,3.6657,3.6685,3.6657,3.6712,3.685,3.6928,3.6739,3.6901,3.7036,3.7093,3.7827,3.8516,3.905,3.9798,4.0495,4.1052,4.1076,4.1153,4.1201,4.1201,4.1201,4.1201,4.1201,4.1201,4.1201,4.1201,4.1201,4.1201,4.1201,4.1201,4.1201,4.1201,4.1201,4.1201,4.1201,4.1201,4.1201,4.1201,4.1201,4.1273,4.173,4.2236,4.2765,4.3168,4.3691,4.4196,4.4124,4.4148,4.4196,4.4196,4.4196,4.422,4.4292,4.4285,4.4285,4.4285,4.4285,4.4285,4.4285,4.4285,4.4285,4.4285,4.4285,4.446,4.4917,4.5445,4.5998,4.6631,4.6981,4.7226,4.7331,4.7232,4.7198,4.7331,4.7364,4.7398,4.7497,4.7497,4.7497,4.7497,4.7398,4.7364,4.7364,4.7265,4.7331,4.763,4.6808,4.6888,4.7892,4.8024,4.8493,4.9289,4.9196,4.9462,3.0961,3.1274,3.1556,3.1913,3.2367,3.2843,3.3195,3.3317,3.3317,3.3317,3.3499,3.3912,3.467,3.4808,3.5182,3.636,3.6499,3.6685,3.7143,3.7036,3.6904,3.6904,3.7012,3.7039,3.6955,3.7012,3.7227,3.7575,3.8098,3.8558,3.8961,3.9602,4.0186,4.0715,4.0739,4.0912,4.1201,4.1344,4.1516,4.1712,4.1712,4.1712,4.1712,4.1516,4.1344,4.1201,4.1201,4.1201,4.1201,4.1201,4.1201,4.1201,4.1201,4.1201,4.1201,4.1201,4.1201,4.1297,4.1827,4.2356,4.2886,4.3337,4.3859,4.4285,4.4285,4.4285,4.4285,4.4285,4.4285,4.4285,4.4285,4.4285,4.4285,4.4285,4.4285,4.4285,4.4285,4.4285,4.4285,4.4285,4.4556,4.4917,4.5445,4.5974,4.6503,4.7064,4.7353,4.7497,4.7497,4.7497,4.7497,4.7497,4.7497,4.7497,4.7497,4.7497,4.7497,4.7497,4.7497,4.7563,4.7762,4.7762,4.796,4.8346,4.7663,4.763,4.8346,4.8518,4.8928,4.9552,4.9636,4.9983,3.1898,3.2139,3.2342,3.2342,3.2818,3.334,3.343,3.3501,3.3499,3.3637,3.3958,3.4397,3.5004,3.5044,3.532,3.6414,3.6603,3.6793,3.7408,3.7251,3.7143,3.7224,3.7304,3.7304,3.7224,3.7304,3.7495,3.7947,3.8434,3.879,3.8981,3.9657,4.0186,4.0595,4.0595,4.0844,4.1316,4.1578,4.1859,4.211,4.211,4.211,4.2082,4.1749,4.1492,4.1287,4.123,4.1201,4.1201,4.1201,4.1201,4.1201,4.1201,4.1201,4.1201,4.1201,4.1297,4.149,4.2019,4.2549,4.3078,4.3553,4.3979,4.4285,4.4285,4.4285,4.4285,4.4285,4.4285,4.4285,4.4285,4.4285,4.4285,4.4285,4.4285,4.4285,4.4285,4.4285,4.4285,4.4285,4.4748,4.5277,4.5806,4.6335,4.6896,4.7425,4.7497,4.7497,4.7497,4.7497,4.7497,4.7497,4.7497,4.7497,4.7497,4.7497,4.753,4.763,4.763,4.7795,4.8125,4.8125,4.8346,4.8706,4.842,4.842,4.8739,4.8975,4.9336,4.9833,5.0212,5.0569,3.2818,3.3042,3.322,3.322,3.3267,3.3432,3.3866,3.3958,3.4119,3.4624,3.4739,3.5001,3.5776,3.5683,3.5657,3.624,3.6332,3.6522,3.7062,3.7093,3.7224,3.7542,3.7812,3.7865,3.7596,3.7812,3.7947,3.8,3.896,3.9533,3.9561,4.0547,4.1153,4.1177,4.1177,4.1292,4.1578,4.1915,4.2082,4.211,4.211,4.211,4.2082,4.1749,4.1606,4.1578,4.1316,4.1201,4.1201,4.1201,4.1201,4.1201,4.1201,4.1201,4.1201,4.1201,4.1538,4.2043,4.2573,4.3078,4.3553,4.41,4.4292,4.4285,4.4285,4.4285,4.4285,4.4285,4.4285,4.4285,4.4285,4.4285,4.4285,4.4285,4.4285,4.4285,4.4285,4.4285,4.4285,4.4285,4.4748,4.5277,4.5806,4.6335,4.6896,4.7425,4.7497,4.7497,4.7497,4.7497,4.7497,4.7497,4.7497,4.7497,4.7497,4.7497,4.763,4.796,4.796,4.8125,4.8543,4.8567,4.8739,4.9072,4.904,4.904,4.9072,4.9105,4.9292,4.9608,5.0167,5.0142,3.3067,3.3242,3.3317,3.3317,3.3317,3.3407,3.3889,3.4004,3.4142,3.4693,3.5037,3.5392,3.5918,3.5729,3.5868,3.6965,3.6955,3.7036,3.7601,3.7681,3.7652,3.7596,3.7838,3.7892,3.7622,3.7838,3.8,3.8,3.8671,3.9248,3.9585,4.0282,4.0836,4.1201,4.1373,4.1692,4.2174,4.2312,4.2453,4.2678,4.2678,4.2678,4.265,4.2142,4.1915,4.1887,4.1402,4.1201,4.1201,4.1201,4.1201,4.1201,4.1201,4.1201,4.1201,4.1201,4.1538,4.2091,4.2597,4.3126,4.3601,4.4148,4.4285,4.4285,4.4285,4.4285,4.4285,4.4285,4.4285,4.4285,4.4285,4.4285,4.4285,4.4285,4.4285,4.4285,4.4285,4.4285,4.4381,4.4748,4.5253,4.5782,4.631,4.6872,4.7281,4.7473,4.7497,4.7497,4.7497,4.7497,4.7497,4.7497,4.7497,4.7497,4.7497,4.7497,4.753,4.7663,4.7861,4.8182,4.86,4.8804,4.9072,4.9396,4.9429,4.9429,4.9429,4.9429,4.9636,5.0117,4.9967,4.9967,3.3195,3.3317,3.3317,3.3317,3.3367,3.3579,3.4145,3.4357,3.4567,3.5179,3.5623,3.5987,3.633,3.6174,3.6343,3.7284,3.7251,3.7277,3.7785,3.7865,3.7838,3.7732,3.7892,3.7945,3.7732,3.7918,3.8027,3.8133,3.8637,3.9222,3.9888,4.0286,4.0789,4.132,4.1692,4.2089,4.2485,4.2597,4.279,4.3014,4.3014,4.3014,4.2986,4.2393,4.211,4.2082,4.1483,4.1201,4.1201,4.1201,4.1201,4.1201,4.1201,4.1201,4.1201,4.1201,4.1658,4.2308,4.2669,4.3247,4.3835,4.4196,4.4285,4.4285,4.4285,4.4285,4.4285,4.4285,4.4285,4.4285,4.4285,4.4285,4.4285,4.4285,4.4285,4.4285,4.4285,4.4285,4.4484,4.5013,4.5517,4.607,4.6631,4.7161,4.7497,4.7497,4.7497,4.7497,4.7497,4.7497,4.7497,4.7497,4.7497,4.7497,4.7497,4.7597,4.7729,4.7885,4.819,4.8518,4.8902,4.9137,4.9364,4.959,4.9719,4.9719,4.959,4.959,4.9791,5.0117,4.9766,4.9891,0.0,0.0,0.0,3.3317,3.3494,3.3897,3.4633,3.5019,3.5425,3.6156,3.6526,3.6769,3.7062,3.7093,3.7116,3.7143,3.7116,3.7224,3.7569,3.7596,3.7729,3.7947,3.8,3.8,3.8,3.8,3.8106,3.8394,3.8883,3.9577,4.0439,4.0678,4.1075,4.1586,4.2203,4.2485,4.2513,4.2846,4.3014,4.3014,4.3014,4.3014,4.2986,4.2393,4.211,4.2082,4.1483,4.1201,4.1201,4.1201,4.1201,4.1201,4.1201,4.1201,4.1201,4.1201,4.1875,4.2789,4.2789,4.3457,4.4285,4.4285,4.4285,4.4285,4.4285,4.4285,4.4285,4.4285,4.4285,4.4285,4.4285,4.4285,4.4285,4.4285,4.4285,4.4285,4.4285,4.4285,4.4484,4.5037,4.5541,4.607,4.6631,4.7161,4.7497,4.7497,4.7497,4.7497,4.7497,4.7497,4.7497,4.7497,4.7497,4.7497,4.7497,4.7828,4.8182,4.86,4.8935,4.9267,4.9558,4.959,4.959,4.9622,4.9912,4.9944,4.9622,4.9622,4.9647,4.9615,4.964,4.9941,3.3267,0.0,0.0,0.0,0.0,0.0,3.4633,3.5179,3.565,3.625,3.6697,3.7089,3.7385,3.7462,3.7518,3.7732,3.7599,3.7569,3.7838,3.7892,3.7918,3.7974,3.8,3.8,3.8,3.8,3.8106,3.8394,3.8542,3.8965,3.9795,4.0676,4.132,4.1666,4.2202,4.2622,4.2874,4.2958,4.3014,4.3014,4.3014,4.3014,4.2986,4.2393,4.211,4.2082,4.1483,4.1201,4.1201,4.1201,4.1201,4.1201,4.1201,4.1201,4.1201,4.1201,4.1875,4.2789,4.2789,4.3457,4.4285,4.4285,4.4285,4.4285,4.4285,4.4285,4.4285,4.4285,4.4285,4.4285,4.4285,4.4285,4.4285,4.4285,4.4285,4.4285,4.4285,4.4285,4.458,4.5493,4.5782,4.619,4.7112,4.7401,4.7497,4.7497,4.7497,4.7497,4.7497,4.7497,4.7497,4.7497,4.7729,4.7861,4.7861,4.8215,4.8477,4.86,4.8935,4.9137,4.9234,4.9461,4.9719,4.9944,5.0065,5.0168,5.0302,5.0072,5.0042,5.0193,5.0619,5.1527,3.3267,3.3392,3.3517,3.3666,0.0,0.0,3.4957,3.5459,3.5958,3.6555,3.7012,3.7358,3.7569,3.7702,3.7812,3.7947,3.7865,3.7812,3.7974,3.8,3.8,3.8,3.8,3.8027,3.8159,3.8159,3.8342,3.8736,3.8985,3.9505,4.0454,4.1456,4.201,4.2013,4.2476,4.2818,4.3014,4.3014,4.3014,4.3014,4.3014,4.3014,4.2986,4.2481,4.2256,4.2227,4.1631,4.1373,4.1373,4.123,4.1201,4.1201,4.1201,4.1201,4.1201,4.1201,4.1875,4.2789,4.2789,4.3457,4.4285,4.4285,4.4285,4.4285,4.4285,4.4285,4.4285,4.4285,4.4285,4.4285,4.4285,4.4285,4.4285,4.4285,4.4285,4.4285,4.4285,4.4285,4.4628,4.5686,4.5902,4.6238,4.7329,4.7497,4.7497,4.7497,4.7497,4.753,4.7696,4.7696,4.7762,4.7951,4.8149,4.8248,4.8248,4.8608,4.8804,4.8804,4.9105,4.9299,4.9299,4.9622,4.9879,5.0097,5.0359,5.0742,5.117,5.0589,5.0383,5.064,5.1646,5.2511,3.3342,3.3517,3.3693,3.3767,3.4113,0.0,3.5345,3.5732,3.6143,3.6779,3.7198,3.7482,3.7509,3.7724,3.7885,3.7911,3.7933,3.7979,3.8,3.8,3.8,3.8027,3.8027,3.8133,3.8421,3.8447,3.8684,3.9258,3.9832,4.0579,4.1596,4.2446,4.2774,4.2494,4.2796,4.3014,4.3014,4.3014,4.3014,4.3014,4.3014,4.3014,4.2986,4.2653,4.2485,4.2457,4.1891,4.1635,4.1578,4.1344,4.123,4.1201,4.1201,4.1201,4.1201,4.1201,4.1875,4.2789,4.2789,4.3457,4.4285,4.4285,4.4285,4.4285,4.4285,4.4285,4.4285,4.4285,4.4285,4.4285,4.4285,4.4285,4.4285,4.4285,4.4285,4.4285,4.4285,4.4285,4.4604,4.5677,4.5886,4.6238,4.7329,4.7497,4.7497,4.753,4.7563,4.7663,4.8026,4.8059,4.819,4.8567,4.8633,4.8641,4.8641,4.9,4.9202,4.917,4.9461,4.9654,4.9654,4.9937,5.0161,5.0225,5.0913,5.1572,5.2148,5.1216,5.0915,5.1202,5.2557,5.3043,3.3544,3.3666,3.3792,3.4187,3.4335,0.0,3.4867,3.5349,3.5733,3.5849,3.6283,3.6698,3.6902,3.7004,3.7106,3.731,3.7548,3.7754,3.7979,3.8,3.808,3.8315,3.8342,3.8447,3.871,3.871,3.8893,3.9258,3.999,4.0696,4.1347,4.198,4.2308,4.2253,4.2735,4.3014,4.3014,4.3014,4.3014,4.3014,4.3014,4.3014,4.2986,4.2653,4.2485,4.2457,4.2142,4.1859,4.1606,4.1549,4.1402,4.1201,4.1201,4.1201,4.1201,4.1201,4.1875,4.2789,4.2789,4.3457,4.4285,4.4285,4.4285,4.4285,4.4285,4.4285,4.4285,4.4285,4.4285,4.4285,4.4285,4.4285,4.4285,4.4285,4.4285,4.4285,4.4285,4.4285,4.457,4.5479,4.578,4.6238,4.7329,4.7497,4.7597,4.7861,4.7894,4.8026,4.8412,4.8477,4.851,4.86,4.8837,4.9007,4.9007,4.9558,4.9783,4.9525,4.9815,5.0001,5.0001,5.0065,5.0327,5.0899,5.1776,5.252,5.312,5.2349,5.2254,5.2751,5.3048,5.3515,3.3887,3.3965,3.4113,3.4335,3.4506,0.0,0.0,3.5499,3.5838,3.5979,3.6319,3.6639,3.6765,3.6791,3.6989,3.7511,3.7602,3.7788,3.8321,3.8289,3.8238,3.8394,3.8526,3.871,3.9024,3.905,3.9304,3.9865,4.0271,4.0877,4.1706,4.2034,4.2338,4.2587,4.2864,4.3014,4.3014,4.3014,4.3014,4.3014,4.3014,4.3014,4.2989,4.2846,4.2737,4.2734,4.2425,4.2142,4.1859,4.1663,4.1435,4.1201,4.1201,4.1201,4.1201,4.1201,4.1875,4.2789,4.2789,4.3457,4.4285,4.4285,4.4285,4.4285,4.4285,4.4285,4.4285,4.4285,4.4285,4.4285,4.4285,4.4285,4.4285,4.4285,4.4285,4.4285,4.4285,4.444,4.4763,4.5459,4.6025,4.6656,4.7458,4.7856,4.8116,4.8281,4.8313,4.8445,4.8804,4.8869,4.8902,4.9097,4.9234,4.9429,4.959,4.9912,5.0033,4.9847,5.0168,5.0264,5.0129,5.0511,5.1049,5.1685,5.2414,5.3049,5.3557,5.3461,5.3425,5.3476,5.3533,5.3917,3.4279,3.4359,3.4482,3.4531,3.4726,3.4992,0.0,0.0,0.0,3.6202,3.64,3.6599,3.6649,3.6649,3.6896,3.7564,3.7559,3.7678,3.8325,3.8416,3.8457,3.8554,3.8762,3.9024,3.9336,3.9513,3.9967,4.075,4.0779,4.1157,4.2162,4.2213,4.2386,4.2838,4.2939,4.3014,4.3014,4.3014,4.3014,4.3014,4.3014,4.3014,4.3014,4.3014,4.3014,4.2986,4.2709,4.2453,4.2142,4.1806,4.1521,4.1258,4.1201,4.1201,4.1201,4.1201,4.1875,4.2789,4.2789,4.3457,4.4285,4.4285,4.4285,4.4285,4.4285,4.4285,4.4285,4.4285,4.4285,4.4285,4.4285,4.4285,4.4285,4.4285,4.4285,4.4316,4.4378,4.4697,4.5114,4.5548,4.6361,4.7164,4.7609,4.8174,4.8633,4.8674,4.8706,4.8804,4.9137,4.9202,4.9332,4.9654,4.9687,4.9815,5.0168,5.0257,5.0289,5.02,5.0518,5.0601,5.0378,5.1209,5.1967,5.2656,5.3086,5.3502,5.3963,5.4337,5.4278,5.3864,5.4095,5.4335,3.4723,3.4726,3.4799,3.5042,3.5114,3.5163,3.5235,0.0,3.5647,3.5696,0.0,3.5793,3.6058,0.0,0.0,3.6538,3.6747,3.6924,3.7023,3.7816,3.8584,3.913,3.9206,3.9336,3.9645,4.0306,4.1065,4.1936,4.1799,4.1801,4.2187,4.2213,4.2238,4.2313,4.2738,4.3014,4.3014,4.3014,4.3014,4.3014,4.3014,4.3014,4.3014,4.3014,4.3014,4.3014,4.2958,4.2762,4.2453,4.2142,4.1859,4.1521,4.1287,4.1201,4.1201,4.1201,4.1875,4.2789,4.2789,4.3457,4.4285,4.4285,4.4285,4.4285,4.4285,4.4285,4.4285,4.4285,4.4285,4.4285,4.4285,4.4285,4.4285,4.4285,4.4285,4.4378,4.4687,4.5205,4.5642,4.5747,4.6675,4.748,4.7673,4.8174,4.8706,4.9007,4.904,4.917,4.9493,4.9525,4.9654,5.0033,5.0065,5.0168,5.0493,5.0836,5.0867,5.0556,5.0867,5.1131,5.1267,5.2155,5.3049,5.3974,5.4026,5.4372,5.4927,5.4653,5.4459,5.4407,5.4813,5.4805,3.5016,3.5284,3.5526,3.5453,3.5648,3.5795,3.5477,3.5644,3.5788,3.562,0.0,0.0,0.0,0.0,0.0,0.0,3.6843,3.6947,3.7442,3.8041,3.8488,3.8736,3.9214,3.9693,4.0123,4.1072,4.1658,4.1683,4.1749,4.1805,4.1899,4.1762,4.1913,4.2431,4.2494,4.2688,4.3014,4.3014,4.3014,4.3014,4.3014,4.3014,4.3014,4.3014,4.3014,4.3014,4.3014,4.2734,4.2256,4.2167,4.1802,4.1373,4.123,4.1201,4.1201,4.1201,4.1682,4.238,4.2693,4.3241,4.3883,4.422,4.4285,4.4285,4.4285,4.4285,4.4347,4.4532,4.4594,4.4625,4.484,4.4871,4.4871,4.4871,4.4871,4.4933,4.5055,4.5687,4.6124,4.5856,4.6841,4.7658,4.7396,4.8092,4.8885,4.9314,4.9396,4.9429,4.959,4.9751,4.9944,5.0072,5.0264,5.0518,5.0867,5.1025,5.1025,5.0899,5.1367,5.1807,5.2213,5.2911,5.3546,5.4048,5.4074,5.4278,5.4772,5.4578,5.4712,5.5113,5.4872,5.4805,3.5868,3.6064,3.6235,3.6013,3.6111,3.6185,3.5815,3.5908,3.6051,3.586,3.5979,0.0,0.0,0.0,3.6569,3.7287,0.0,3.7318,3.794,3.8316,3.854,3.854,3.9243,3.9898,4.045,4.1454,4.194,4.1582,4.185,4.1984,4.1826,4.1663,4.1837,4.2486,4.2446,4.2612,4.3014,4.3014,4.3014,4.3014,4.3014,4.3014,4.3014,4.3014,4.3014,4.3014,4.3014,4.2706,4.2199,4.2139,4.1855,4.143,4.1344,4.1316,4.1287,4.123,4.1538,4.2067,4.2686,4.3343,4.3909,4.4202,4.4285,4.4316,4.4409,4.444,4.4501,4.484,4.4933,4.4994,4.5239,4.53,4.53,4.53,4.5398,4.5527,4.5644,4.6402,4.6911,4.6456,4.7351,4.8033,4.7626,4.8234,4.8944,4.9314,4.949,4.9622,4.9719,4.9944,5.0193,5.0327,5.0582,5.0873,5.1214,5.1402,5.1479,5.1479,5.196,5.2453,5.2932,5.3464,5.3901,5.4301,5.4301,5.4436,5.4645,5.4645,5.4939,5.5465,5.5013,5.4972,3.7593,3.7171,3.6773,3.6748,3.6376,3.6004,3.5979,3.6193,3.6381,3.6381,3.6381,3.6557,3.7061,3.7161,3.7337,3.7889,3.7965,0.0,0.0,3.8492,3.8868,3.8868,3.9371,3.9898,4.045,4.1294,4.1905,4.2137,4.2406,4.246,4.2215,4.2187,4.2187,4.2213,4.2713,4.2989,4.3014,4.3014,4.3014,4.3014,4.3014,4.3014,4.3014,4.3014,4.3014,4.3014,4.3014,4.2818,4.2457,4.2199,4.2082,4.2054,4.1692,4.1606,4.1549,4.1287,4.1538,4.2097,4.2899,4.3886,4.4724,4.4409,4.4285,4.4347,4.4687,4.4779,4.484,4.5178,4.527,4.53,4.53,4.53,4.53,4.53,4.5699,4.6161,4.6464,4.7457,4.8156,4.7895,4.8335,4.8768,4.8743,4.8768,4.8818,4.8818,4.9296,4.9719,5.0065,5.0097,5.0353,5.0994,5.1088,5.1214,5.1565,5.2145,5.2459,5.2459,5.266,5.2965,5.3367,5.3562,5.4133,5.5065,5.5065,5.5065,5.5065,5.5065,5.5099,5.5132,5.5405,5.5571,0.0,0.0,3.7792,3.7216,3.719,3.714,3.6414,3.631,3.6482,3.6859,3.6632,3.6658,3.7563,3.7437,3.7386,3.7914,3.8015,3.8015,0.0,3.8542,3.9019,3.9396,4.0053,4.0509,4.0501,4.1757,4.2473,4.2215,4.2787,4.292,4.2484,4.2295,4.2267,4.2458,4.2471,4.2637,4.3014,4.3014,4.3014,4.3014,4.3014,4.3014,4.3014,4.3014,4.3014,4.3014,4.3014,4.2793,4.2485,4.2397,4.2256,4.2082,4.1972,4.1915,4.1915,4.183,4.1781,4.1875,4.286,4.3518,4.3995,4.4473,4.4625,4.4687,4.5025,4.5117,4.5208,4.5544,4.5635,4.5696,4.5908,4.5969,4.6069,4.6412,4.6611,4.6897,4.7339,4.8077,4.8516,4.8002,4.8573,4.9008,4.866,4.9101,4.952,4.9647,5.0009,5.0302,5.0423,5.0614,5.0836,5.1088,5.1309,5.1627,5.2145,5.2746,5.2929,5.2537,5.2937,5.3088,5.2825,5.3583,5.4183,5.4497,5.4889,5.5199,5.5432,5.5432,5.5697,5.6158,5.6289,5.6092,3.8316,3.8491,0.0,3.794,3.7889,0.0,3.7135,3.6959,3.7132,3.7774,3.7395,3.7392,3.8851,3.8548,3.8274,3.8915,3.8942,3.8818,0.0,3.9095,3.9525,3.9673,4.0154,4.0458,4.0501,4.1473,4.2163,4.2324,4.253,4.2766,4.3036,4.2505,4.2423,4.2874,4.2624,4.2637,4.3014,4.3014,4.3014,4.3014,4.3014,4.3014,4.3014,4.3014,4.3014,4.3014,4.3014,4.2793,4.2485,4.2485,4.2397,4.2227,4.2227,4.2312,4.2369,4.2195,4.2152,4.2336,4.3096,4.3666,4.4141,4.4768,4.4994,4.5055,4.5392,4.5483,4.5624,4.6254,4.6209,4.6109,4.6642,4.6663,4.6677,4.7151,4.7585,4.7993,4.8477,4.9039,4.9318,4.8964,4.9349,4.9633,4.9308,4.9819,5.0221,4.9996,5.0359,5.062,5.0747,5.0962,5.1151,5.1277,5.168,5.2223,5.3034,5.3295,5.3243,5.2825,5.2981,5.2903,5.2511,5.3217,5.3896,5.4497,5.4813,5.5267,5.5921,5.5842,5.6033,5.6492,5.6649,5.6453]},{"header":{"parameterUnit":"m.s-1","parameterCategory":1,"la1":30.6,"la2":29.2853,"lo1":-89.7004,"lo2":-87.6739,"dy":0.0162,"dx":0.0183,"nx":112,"ny":82,"refTime":"2023-05-21T00:00:00:Z","depth":0,"parameterNumber":3,"parameterNumberName":"V-component_of_WINDS"},"data":[0.0,0.0,0.0,0.0,0.0,0.0,0.0,0.0,0.0,0.0,0.0,0.0,0.0,0.0,0.0,0.0,0.0,0.0,0.0,0.0,0.0,0.0,0.0,0.0,0.0,0.0,0.0,0.0,0.0,0.0,0.0,0.0,0.0,0.0,0.0,0.0,0.0,0.0,0.0,0.0,0.0,0.0,0.0,0.0,0.0,0.0,0.0,0.0,0.0,0.0,0.0,0.0,0.0,0.0,0.0,0.0,0.0,0.0,0.0,0.0,0.0,0.0,0.0,0.0,0.0,0.0,0.0,0.0,0.0,0.0,0.0,0.0,0.0,0.0,0.0,0.0,0.0,0.0,0.0,0.0,0.0,0.0,0.0,0.0,0.0,0.0,0.0,0.0,0.0,0.0,4.4531,4.4543,4.536,4.6075,4.6476,4.6336,4.5779,4.4667,0.0,0.0,0.0,0.0,0.0,0.0,0.0,0.0,0.0,0.0,0.0,0.0,0.0,0.0,0.0,0.0,0.0,0.0,0.0,0.0,0.0,0.0,0.0,0.0,0.0,0.0,0.0,0.0,0.0,0.0,0.0,0.0,0.0,0.0,0.0,0.0,0.0,0.0,0.0,0.0,0.0,0.0,0.0,0.0,0.0,0.0,0.0,0.0,0.0,0.0,0.0,0.0,0.0,0.0,0.0,0.0,0.0,0.0,0.0,0.0,0.0,0.0,0.0,0.0,0.0,0.0,0.0,0.0,0.0,0.0,0.0,0.0,0.0,0.0,0.0,0.0,0.0,0.0,0.0,0.0,0.0,0.0,0.0,0.0,0.0,0.0,0.0,0.0,0.0,0.0,0.0,0.0,0.0,0.0,0.0,0.0,0.0,0.0,0.0,0.0,0.0,0.0,0.0,0.0,4.4494,4.5526,4.5824,4.594,4.6007,4.6314,4.5852,4.4217,0.0,0.0,0.0,0.0,0.0,0.0,0.0,0.0,0.0,0.0,0.0,0.0,0.0,0.0,0.0,0.0,0.0,0.0,0.0,0.0,0.0,0.0,0.0,0.0,0.0,0.0,0.0,0.0,0.0,0.0,0.0,0.0,0.0,0.0,0.0,0.0,0.0,0.0,0.0,0.0,0.0,0.0,0.0,0.0,0.0,0.0,0.0,0.0,0.0,0.0,0.0,0.0,0.0,0.0,0.0,0.0,0.0,0.0,0.0,0.0,0.0,0.0,0.0,0.0,0.0,0.0,0.0,0.0,0.0,0.0,0.0,0.0,0.0,0.0,0.0,0.0,0.0,0.0,0.0,0.0,0.0,0.0,0.0,0.0,0.0,0.0,0.0,0.0,0.0,0.0,0.0,0.0,0.0,0.0,0.0,0.0,0.0,0.0,0.0,0.0,0.0,0.0,0.0,4.3969,4.4625,4.5772,4.5917,4.6046,4.6403,4.6535,4.6027,4.4646,4.4697,0.0,0.0,0.0,0.0,0.0,0.0,0.0,0.0,0.0,0.0,0.0,0.0,0.0,0.0,0.0,0.0,0.0,0.0,0.0,0.0,0.0,0.0,0.0,0.0,0.0,0.0,0.0,0.0,0.0,0.0,0.0,0.0,0.0,0.0,0.0,0.0,0.0,0.0,0.0,0.0,0.0,0.0,0.0,0.0,0.0,0.0,0.0,0.0,0.0,0.0,0.0,0.0,0.0,0.0,0.0,0.0,0.0,0.0,0.0,0.0,0.0,0.0,0.0,0.0,0.0,0.0,0.0,0.0,0.0,0.0,0.0,0.0,0.0,0.0,0.0,0.0,0.0,0.0,0.0,0.0,0.0,0.0,0.0,0.0,0.0,0.0,0.0,0.0,0.0,0.0,0.0,0.0,0.0,0.0,0.0,0.0,0.0,0.0,0.0,0.0,0.0,0.0,4.4643,4.5207,4.5981,4.609,4.6314,4.68,4.6778,4.6304,4.5204,4.525,0.0,0.0,0.0,0.0,0.0,0.0,0.0,0.0,0.0,0.0,0.0,0.0,0.0,0.0,0.0,0.0,0.0,0.0,0.0,0.0,0.0,0.0,0.0,0.0,0.0,0.0,0.0,0.0,0.0,0.0,0.0,0.0,0.0,0.0,0.0,0.0,0.0,0.0,0.0,0.0,0.0,0.0,0.0,0.0,0.0,0.0,0.0,0.0,0.0,0.0,0.0,0.0,0.0,0.0,0.0,0.0,0.0,0.0,0.0,0.0,0.0,0.0,0.0,0.0,0.0,0.0,0.0,0.0,0.0,0.0,0.0,0.0,0.0,0.0,0.0,0.0,0.0,0.0,0.0,0.0,0.0,0.0,0.0,0.0,0.0,0.0,0.0,0.0,0.0,0.0,0.0,0.0,0.0,0.0,0.0,0.0,0.0,0.0,0.0,0.0,0.0,0.0,4.5717,4.6659,4.6558,4.6712,4.6778,4.6624,4.7026,4.6764,4.5642,4.5969,0.0,0.0,0.0,0.0,0.0,0.0,0.0,0.0,0.0,0.0,0.0,0.0,0.0,0.0,0.0,0.0,0.0,0.0,0.0,0.0,0.0,0.0,0.0,0.0,0.0,0.0,0.0,0.0,0.0,0.0,0.0,0.0,0.0,0.0,0.0,0.0,0.0,0.0,0.0,0.0,0.0,0.0,0.0,0.0,0.0,0.0,0.0,0.0,0.0,0.0,0.0,0.0,0.0,0.0,0.0,0.0,0.0,0.0,0.0,0.0,0.0,0.0,0.0,0.0,0.0,0.0,0.0,0.0,0.0,0.0,0.0,0.0,0.0,0.0,0.0,0.0,0.0,0.0,0.0,0.0,0.0,0.0,0.0,0.0,0.0,0.0,0.0,0.0,0.0,0.0,0.0,0.0,0.0,0.0,0.0,0.0,0.0,0.0,0.0,0.0,0.0,0.0,4.6483,4.7659,4.7827,4.8037,4.8127,4.8037,4.8454,4.8071,4.6547,0.0,0.0,0.0,0.0,0.0,0.0,0.0,0.0,0.0,0.0,0.0,0.0,0.0,0.0,0.0,0.0,0.0,0.0,0.0,0.0,0.0,0.0,0.0,0.0,0.0,0.0,0.0,0.0,0.0,0.0,0.0,0.0,0.0,0.0,0.0,0.0,0.0,0.0,0.0,0.0,0.0,0.0,0.0,0.0,0.0,0.0,0.0,0.0,0.0,0.0,0.0,0.0,0.0,0.0,0.0,0.0,0.0,0.0,0.0,0.0,0.0,0.0,0.0,0.0,0.0,0.0,0.0,0.0,0.0,0.0,0.0,0.0,0.0,0.0,0.0,0.0,0.0,0.0,0.0,0.0,0.0,0.0,0.0,0.0,0.0,0.0,0.0,0.0,0.0,0.0,0.0,0.0,0.0,0.0,0.0,0.0,0.0,0.0,0.0,0.0,0.0,0.0,4.5878,4.7583,4.879,4.89,4.9157,4.9269,4.9134,4.956,4.9189,4.7742,0.0,0.0,0.0,0.0,0.0,0.0,0.0,0.0,0.0,0.0,0.0,0.0,0.0,0.0,0.0,0.0,0.0,0.0,0.0,0.0,0.0,0.0,0.0,0.0,0.0,0.0,0.0,0.0,0.0,0.0,0.0,0.0,0.0,0.0,0.0,0.0,0.0,0.0,0.0,0.0,0.0,0.0,0.0,0.0,0.0,0.0,0.0,0.0,0.0,0.0,0.0,0.0,0.0,0.0,0.0,0.0,0.0,0.0,0.0,0.0,0.0,0.0,0.0,0.0,0.0,0.0,0.0,0.0,0.0,0.0,0.0,0.0,0.0,0.0,0.0,0.0,0.0,0.0,0.0,0.0,0.0,0.0,0.0,0.0,0.0,0.0,0.0,0.0,0.0,0.0,0.0,0.0,0.0,0.0,0.0,0.0,0.0,0.0,0.0,0.0,0.0,0.0,4.7233,4.9053,5.0144,4.9688,5.0034,5.0122,4.9688,5.0056,4.9957,0.0,0.0,0.0,0.0,0.0,0.0,0.0,0.0,0.0,0.0,0.0,0.0,0.0,0.0,0.0,0.0,0.0,0.0,0.0,0.0,0.0,0.0,0.0,0.0,0.0,0.0,0.0,0.0,0.0,0.0,0.0,0.0,0.0,0.0,0.0,0.0,0.0,0.0,0.0,0.0,0.0,0.0,0.0,0.0,0.0,0.0,0.0,0.0,0.0,0.0,0.0,0.0,0.0,0.0,0.0,0.0,0.0,0.0,0.0,0.0,0.0,0.0,0.0,0.0,0.0,0.0,0.0,0.0,0.0,0.0,0.0,0.0,0.0,0.0,0.0,0.0,0.0,0.0,0.0,0.0,0.0,0.0,0.0,0.0,0.0,0.0,0.0,0.0,0.0,0.0,0.0,0.0,0.0,0.0,0.0,0.0,0.0,0.0,0.0,0.0,0.0,0.0,0.0,4.8025,5.0166,5.1613,5.1327,5.1545,5.159,5.1327,5.1733,5.1356,4.9777,0.0,0.0,0.0,0.0,0.0,0.0,0.0,0.0,0.0,0.0,0.0,0.0,0.0,0.0,0.0,0.0,0.0,0.0,0.0,0.0,0.0,0.0,0.0,0.0,0.0,0.0,0.0,0.0,0.0,0.0,0.0,0.0,0.0,0.0,0.0,0.0,0.0,0.0,0.0,0.0,0.0,0.0,0.0,0.0,0.0,0.0,0.0,0.0,0.0,0.0,0.0,0.0,0.0,0.0,0.0,0.0,0.0,0.0,0.0,0.0,0.0,0.0,0.0,0.0,0.0,0.0,0.0,0.0,0.0,0.0,0.0,0.0,0.0,0.0,0.0,0.0,0.0,0.0,0.0,0.0,0.0,0.0,0.0,0.0,0.0,0.0,0.0,0.0,0.0,0.0,0.0,0.0,0.0,0.0,0.0,0.0,0.0,0.0,0.0,0.0,0.0,0.0,4.9082,5.108,5.2382,5.2155,5.2306,5.2382,5.2155,5.2473,5.2103,5.0742,0.0,0.0,0.0,0.0,0.0,0.0,0.0,0.0,0.0,0.0,0.0,0.0,0.0,0.0,0.0,0.0,0.0,0.0,0.0,0.0,0.0,0.0,0.0,0.0,0.0,0.0,0.0,0.0,0.0,0.0,0.0,0.0,0.0,0.0,0.0,0.0,0.0,0.0,0.0,0.0,0.0,0.0,0.0,0.0,0.0,0.0,0.0,0.0,0.0,0.0,0.0,0.0,0.0,0.0,0.0,0.0,0.0,0.0,0.0,0.0,0.0,0.0,0.0,0.0,0.0,0.0,0.0,0.0,0.0,0.0,0.0,0.0,0.0,0.0,0.0,0.0,0.0,0.0,0.0,0.0,0.0,0.0,0.0,0.0,0.0,0.0,0.0,0.0,0.0,0.0,0.0,0.0,0.0,0.0,0.0,0.0,0.0,0.0,0.0,0.0,0.0,0.0,5.0206,5.1681,5.2608,5.2352,5.2563,5.2608,5.2352,5.2563,5.2421,5.1744,0.0,0.0,0.0,0.0,0.0,0.0,0.0,0.0,0.0,0.0,0.0,0.0,0.0,0.0,0.0,0.0,0.0,0.0,0.0,0.0,0.0,0.0,0.0,0.0,0.0,0.0,0.0,0.0,0.0,0.0,0.0,0.0,0.0,0.0,0.0,0.0,0.0,0.0,0.0,0.0,0.0,0.0,0.0,0.0,0.0,0.0,0.0,0.0,0.0,0.0,0.0,0.0,0.0,0.0,0.0,0.0,0.0,0.0,0.0,0.0,4.6661,4.6353,0.0,0.0,0.0,0.0,0.0,0.0,0.0,0.0,0.0,0.0,0.0,0.0,0.0,0.0,0.0,0.0,0.0,0.0,0.0,0.0,0.0,0.0,0.0,0.0,0.0,0.0,0.0,0.0,0.0,0.0,0.0,0.0,0.0,0.0,0.0,0.0,0.0,0.0,0.0,0.0,5.0267,5.1681,5.2676,5.2608,5.2653,5.2676,5.2608,5.2653,5.2421,5.1744,5.1515,0.0,0.0,0.0,0.0,0.0,0.0,0.0,0.0,0.0,0.0,0.0,0.0,0.0,0.0,0.0,0.0,0.0,0.0,0.0,0.0,0.0,0.0,0.0,0.0,0.0,0.0,0.0,0.0,0.0,0.0,0.0,0.0,0.0,0.0,0.0,0.0,0.0,0.0,0.0,0.0,0.0,0.0,0.0,0.0,0.0,0.0,0.0,0.0,0.0,0.0,0.0,0.0,0.0,0.0,0.0,0.0,0.0,0.0,0.0,4.7438,4.7117,0.0,0.0,0.0,0.0,0.0,0.0,0.0,0.0,0.0,0.0,0.0,0.0,0.0,0.0,0.0,0.0,0.0,0.0,0.0,0.0,0.0,0.0,0.0,0.0,0.0,0.0,0.0,0.0,0.0,0.0,0.0,0.0,0.0,0.0,0.0,0.0,0.0,0.0,0.0,0.0,5.0472,5.1778,5.2676,5.2676,5.2676,5.2676,5.2676,5.2676,5.2553,5.2206,5.1898,0.0,0.0,0.0,0.0,0.0,0.0,0.0,0.0,0.0,0.0,0.0,0.0,0.0,0.0,0.0,0.0,0.0,0.0,0.0,0.0,0.0,0.0,0.0,0.0,0.0,0.0,0.0,0.0,0.0,0.0,0.0,0.0,0.0,0.0,0.0,0.0,0.0,0.0,0.0,0.0,0.0,0.0,0.0,0.0,0.0,0.0,0.0,0.0,0.0,0.0,0.0,0.0,0.0,4.704,4.7533,4.7296,4.7928,4.826,4.8227,4.7737,4.7488,4.7471,4.715,0.0,0.0,0.0,0.0,0.0,0.0,0.0,0.0,0.0,0.0,0.0,0.0,0.0,0.0,0.0,0.0,0.0,0.0,0.0,0.0,0.0,0.0,4.7367,4.7624,4.8122,4.811,4.6688,0.0,0.0,0.0,0.0,0.0,0.0,0.0,0.0,0.0,0.0,0.0,5.083,5.1959,5.2676,5.2676,5.2676,5.2676,5.2676,5.2676,5.2676,5.2676,5.2175,5.1814,0.0,0.0,0.0,0.0,0.0,0.0,0.0,0.0,0.0,0.0,0.0,0.0,0.0,0.0,0.0,0.0,0.0,0.0,0.0,0.0,0.0,0.0,0.0,0.0,0.0,0.0,0.0,0.0,0.0,0.0,0.0,0.0,4.4487,4.4415,0.0,0.0,0.0,0.0,0.0,0.0,0.0,0.0,0.0,0.0,0.0,0.0,0.0,4.5898,4.6018,4.6968,4.7414,4.7383,4.8342,4.8757,4.871,4.8545,4.8468,4.8436,4.8065,0.0,4.7902,4.7521,0.0,0.0,0.0,0.0,0.0,0.0,0.0,0.0,0.0,0.0,0.0,0.0,0.0,0.0,0.0,0.0,0.0,0.0,0.0,0.0,0.0,0.0,5.0138,5.0423,5.0723,5.0871,5.0631,4.8883,4.7548,4.8163,4.8611,4.8657,0.0,0.0,0.0,0.0,0.0,0.0,5.1476,5.2236,5.2676,5.2676,5.2676,5.2676,5.2676,5.2676,5.2676,5.2676,5.2637,5.2186,5.1395,5.148,0.0,0.0,0.0,0.0,0.0,0.0,0.0,0.0,0.0,0.0,0.0,0.0,0.0,0.0,0.0,0.0,0.0,0.0,0.0,0.0,0.0,0.0,0.0,0.0,0.0,0.0,0.0,0.0,0.0,4.4817,4.4954,4.472,4.4589,4.4449,0.0,0.0,0.0,0.0,0.0,0.0,0.0,0.0,0.0,4.5921,4.669,4.7124,4.7218,4.8002,4.8419,4.8453,4.8818,4.9018,4.9003,4.8642,4.8499,4.8517,4.8579,4.863,4.858,4.8001,4.7851,4.7994,0.0,0.0,0.0,0.0,4.7343,4.7939,4.8334,4.8763,4.9208,4.9536,0.0,0.0,0.0,0.0,0.0,0.0,0.0,4.8332,4.9941,5.0486,5.085,5.1877,5.2212,5.2409,5.2843,5.1839,5.0704,5.0101,4.9724,4.9431,4.9155,4.9561,0.0,0.0,0.0,5.1234,5.163,5.2298,5.2676,5.2676,5.2676,5.2676,5.2676,5.2676,5.2676,5.2676,5.2676,5.2508,5.2111,5.1831,5.137,0.0,0.0,0.0,0.0,0.0,0.0,0.0,0.0,0.0,0.0,0.0,0.0,0.0,0.0,0.0,0.0,0.0,0.0,0.0,0.0,0.0,0.0,0.0,0.0,0.0,0.0,0.0,0.0,4.523,4.5203,4.5056,4.4961,4.4776,0.0,0.0,0.0,0.0,0.0,0.0,4.5389,4.6152,4.6651,4.6844,4.7721,4.8173,4.8191,4.8748,4.9018,4.9018,4.9018,4.8987,4.8941,4.8626,4.8584,4.8721,4.8995,4.9326,4.9624,4.8862,4.8596,4.8657,4.8597,4.8266,4.7884,4.8165,4.8728,4.9391,4.9354,4.9748,5.0278,5.0476,5.0131,4.9681,4.9823,0.0,0.0,0.0,0.0,4.9333,5.1298,5.1756,5.2023,5.3226,5.3666,5.3925,5.4495,5.4058,5.3278,5.2187,5.1231,5.0582,5.0428,5.0691,0.0,5.0266,5.1067,5.1775,5.1929,5.239,5.2676,5.2676,5.2676,5.2676,5.2676,5.2676,5.2676,5.2676,5.2676,5.2653,5.2608,5.2161,5.1845,5.1594,0.0,0.0,0.0,0.0,0.0,0.0,0.0,0.0,0.0,0.0,0.0,0.0,0.0,0.0,0.0,0.0,0.0,0.0,0.0,0.0,0.0,0.0,0.0,0.0,0.0,0.0,0.0,0.0,0.0,4.5739,4.5533,0.0,0.0,0.0,0.0,4.4852,4.5835,4.6254,4.5869,4.7512,4.8255,4.7853,4.8563,4.8951,4.8951,4.8984,4.9018,4.9018,4.9018,4.8941,4.8801,4.8578,4.8771,4.926,4.9144,4.9889,5.1132,5.0386,4.9706,4.9127,4.9839,4.964,4.9077,4.9601,4.9916,5.0219,5.0724,5.1058,5.1364,5.2042,5.1529,5.071,5.1228,5.0387,0.0,0.0,5.1313,5.1661,5.2351,5.3653,5.4802,5.4868,5.5424,5.5948,5.5981,5.498,5.4163,5.4525,5.3859,5.3012,5.2379,0.0,5.1652,5.159,5.1652,5.1929,5.2575,5.2698,5.2676,5.2676,5.2676,5.2676,5.2676,5.2676,5.2676,5.2676,5.2676,5.2586,5.2329,5.2532,5.2217,5.132,5.1541,0.0,0.0,0.0,0.0,0.0,0.0,0.0,0.0,0.0,0.0,0.0,0.0,0.0,0.0,0.0,0.0,0.0,0.0,0.0,0.0,0.0,0.0,0.0,0.0,0.0,0.0,0.0,0.0,4.5794,4.5768,0.0,4.5363,4.5784,4.6073,4.6113,4.7085,4.7777,4.8024,4.8936,4.9444,4.9499,4.9536,4.9526,4.9456,4.9138,4.9018,4.9018,4.9018,4.8987,4.8925,4.9274,4.9516,4.972,5.0376,5.0956,5.1454,5.1565,5.1198,5.0502,5.0269,5.0038,4.9822,4.9882,5.033,5.0899,5.0973,5.1455,5.2042,5.2164,5.1849,5.1416,5.1489,5.1341,5.1298,5.2076,5.2603,5.3131,5.4112,5.467,5.5103,5.5614,5.5909,5.6106,5.6106,5.573,5.534,5.5213,5.3862,5.2595,5.202,5.2162,5.2206,5.1775,5.2082,5.2452,5.2676,5.2676,5.2676,5.2676,5.2676,5.2676,5.2676,5.2676,5.2676,5.2676,5.2676,5.2653,5.2563,5.2653,5.2561,5.2195,5.2284,5.1805,0.0,0.0,0.0,0.0,0.0,0.0,0.0,0.0,0.0,0.0,0.0,0.0,0.0,0.0,0.0,0.0,0.0,0.0,0.0,0.0,0.0,0.0,0.0,0.0,0.0,4.6228,4.613,4.6057,4.6377,4.6465,4.6109,4.6943,4.7474,4.7474,4.8399,4.9082,4.9356,4.9965,5.0298,5.0292,5.0094,4.9922,4.9781,4.9366,4.9187,4.9187,4.9317,4.9359,4.9331,4.9962,5.0353,5.059,5.1279,5.1744,5.1994,5.2352,5.2182,5.1684,5.1132,5.0783,5.06,5.0711,5.116,5.1645,5.1539,5.1872,5.2373,5.223,5.2013,5.1841,5.2216,5.234,5.2506,5.3294,5.377,5.4267,5.5073,5.5383,5.5601,5.6172,5.6323,5.6323,5.6323,5.6264,5.6066,5.5592,5.4229,5.3014,5.2461,5.2644,5.2572,5.1805,5.2267,5.2637,5.239,5.2553,5.2676,5.2676,5.2676,5.2676,5.2676,5.2513,5.246,5.2676,5.2513,5.246,5.2676,5.246,5.2359,5.2359,5.2359,5.1995,5.1265,0.0,0.0,0.0,0.0,0.0,0.0,0.0,0.0,0.0,0.0,0.0,0.0,0.0,0.0,0.0,0.0,0.0,0.0,0.0,0.0,0.0,0.0,0.0,4.6578,4.63,4.6189,4.659,4.7333,4.7731,4.747,4.8512,4.9132,4.8859,4.9781,5.0168,4.9767,5.0612,5.0811,5.0145,5.02,5.0114,4.9927,4.9649,4.952,4.9539,4.9934,5.0071,4.9947,5.0704,5.1312,5.1832,5.1849,5.2251,5.2886,5.2676,5.2589,5.2571,5.2463,5.1978,5.143,5.2144,5.2391,5.2391,5.2391,5.2391,5.2391,5.2391,5.214,5.2075,5.3427,5.3313,5.2951,5.432,5.4868,5.5096,5.5276,5.5861,5.6447,5.6641,5.6699,5.6699,5.6699,5.6525,5.6271,5.5781,5.5193,5.4528,5.3835,5.3387,5.2794,5.1902,5.2298,0.0,5.1836,5.2298,5.2676,5.2676,5.2676,5.2676,5.2676,5.2082,5.2021,5.2676,5.2144,5.2052,5.2676,5.2082,5.1744,5.1744,5.1735,5.1945,5.2391,0.0,0.0,0.0,0.0,0.0,0.0,0.0,0.0,0.0,0.0,0.0,0.0,0.0,0.0,0.0,0.0,0.0,0.0,0.0,0.0,0.0,4.7228,4.7453,4.6849,4.7049,4.7317,4.7329,4.8086,4.8546,4.8431,4.9199,4.9738,4.9877,5.0685,5.1134,5.1019,5.1325,5.1341,5.0986,5.0735,5.0446,5.0065,4.9864,4.9849,4.9937,5.028,5.061,5.0866,5.1626,5.2032,5.2185,5.264,5.2874,5.2886,5.2676,5.2536,5.2463,5.2533,5.2365,5.2144,5.2416,5.2498,5.2391,5.2391,5.2391,5.2391,5.2391,5.2561,5.2785,5.3044,5.3689,5.4436,5.4796,5.5444,5.6053,5.6266,5.647,5.6622,5.668,5.6699,5.6699,5.6699,5.6641,5.6486,5.6053,5.5834,5.5348,5.4178,5.3909,5.363,5.3018,5.2954,5.2905,5.2719,5.2718,5.2491,5.2021,5.199,5.199,5.199,5.2267,5.2706,5.3383,5.326,5.3229,5.3414,5.2768,5.2452,5.2452,5.2281,5.2262,0.0,0.0,0.0,0.0,0.0,0.0,0.0,0.0,0.0,0.0,0.0,0.0,0.0,0.0,0.0,0.0,0.0,0.0,0.0,0.0,0.0,0.0,4.7796,4.8045,4.7832,4.8042,4.8178,4.8055,4.8851,4.9384,4.928,5.0028,5.0603,5.0705,5.1182,5.1492,5.1492,5.1569,5.1531,5.1311,5.1039,5.091,5.0906,5.055,5.0562,5.0965,5.1196,5.1428,5.1674,5.2469,5.2807,5.2824,5.3163,5.3263,5.3144,5.2834,5.2676,5.2622,0.0,0.0,0.0,0.0,5.2463,5.2391,5.2391,5.2391,5.244,5.2648,5.2869,5.3188,5.3587,5.4375,5.5174,5.5502,5.6053,5.6544,5.6661,5.6699,5.6699,5.6699,5.6699,5.6699,5.6699,5.6699,5.6622,5.6402,5.6225,0.0,5.4811,5.4412,5.3934,5.309,5.3046,5.2985,5.2675,5.267,5.2553,5.2175,5.2144,5.2144,5.2144,5.2236,0.0,0.0,0.0,5.286,5.286,5.2683,0.0,0.0,0.0,5.2932,5.3407,5.3249,0.0,0.0,5.3043,5.3079,0.0,0.0,0.0,0.0,0.0,0.0,0.0,0.0,0.0,0.0,0.0,0.0,0.0,0.0,0.0,0.0,4.8388,4.8555,4.9255,4.9199,4.9023,4.8879,4.969,5.0223,5.0095,5.0925,5.1428,5.1337,5.1428,5.1492,5.1479,5.1505,0.0,0.0,0.0,5.1465,5.1941,5.1457,5.1548,5.228,5.2336,5.2366,5.2469,5.3179,5.3518,5.3518,5.3518,5.3501,5.3416,5.3076,5.2903,5.2834,5.2533,5.2409,5.2445,5.2409,5.2391,5.2391,5.2391,0.0,0.0,5.3016,5.3257,5.3601,5.4675,5.5232,5.5584,5.6224,5.6525,5.6699,5.6699,5.6699,5.6699,5.6699,5.6699,5.6699,5.6699,5.6699,5.6699,5.6699,5.6388,5.6006,5.5491,5.4874,5.402,5.277,5.2925,5.2927,5.2306,5.2551,5.2765,5.2774,5.2659,0.0,5.2698,5.2144,5.2144,5.286,5.2497,5.2193,5.2083,5.2489,5.2664,5.258,5.3028,5.3819,5.4898,5.496,5.5201,5.5616,5.3817,5.3548,0.0,0.0,0.0,0.0,0.0,0.0,0.0,0.0,0.0,0.0,0.0,0.0,0.0,0.0,0.0,4.8335,4.9364,5.0211,5.0256,5.0677,5.068,4.9905,5.068,5.1241,5.1167,5.127,5.1376,5.1454,5.1479,5.1454,5.135,5.1556,5.1505,5.1127,5.1794,5.2007,5.166,5.2143,5.2496,5.2743,5.2721,0.0,5.3281,5.345,5.3518,5.3518,5.3518,5.3399,5.323,5.3161,5.2938,5.2624,5.2463,5.2569,5.2764,5.2498,5.2391,5.2391,5.2391,5.2738,5.3217,5.3313,5.4155,5.5109,5.5216,5.5806,0.0,5.6394,5.6525,5.6699,5.6699,5.6699,5.6699,5.6699,5.6699,5.6699,5.6699,5.6699,5.6699,5.6699,5.6641,5.633,5.5531,5.5019,5.4507,5.3871,5.3717,5.3596,5.3471,5.3337,5.321,5.3042,5.2493,5.2282,5.2667,5.2575,5.3014,5.4245,5.5093,5.5224,5.4473,5.4551,5.4342,5.3785,5.4221,5.4846,5.5613,5.5992,5.6513,5.7147,5.5586,5.5004,0.0,0.0,0.0,0.0,0.0,0.0,0.0,0.0,0.0,0.0,0.0,4.6863,4.7313,0.0,4.8468,4.885,4.9865,5.0734,5.1042,5.1396,5.1414,5.086,5.1205,5.1492,5.1492,5.1441,5.1428,5.1492,5.1441,5.1376,5.1311,5.1441,5.1554,5.1652,5.2058,5.2417,5.2689,5.2914,5.3168,5.345,5.3239,5.3261,5.3518,5.3518,5.3518,5.3518,5.3518,5.3433,5.3348,5.323,5.3024,5.2762,5.2952,5.2886,5.2639,5.2463,5.2391,5.2458,5.2771,5.3135,5.3496,5.4132,5.493,5.5629,5.5801,5.6261,5.668,5.6564,5.6622,5.6699,5.6699,5.6699,5.6699,5.6699,5.6699,5.6699,5.6699,5.6699,5.6699,5.6699,5.6525,5.6172,5.5511,5.506,5.4655,5.4167,5.3941,5.3789,5.3789,5.3562,5.3312,5.3131,5.3055,5.2966,5.2698,5.2922,5.3334,5.4016,5.484,5.5093,5.4609,5.4814,5.4783,5.4465,5.4874,5.5435,5.6143,5.6374,5.6888,5.7568,5.6834,5.651,0.0,0.0,0.0,0.0,0.0,0.0,0.0,4.5328,4.6252,4.6417,4.6848,4.7223,4.7287,4.7942,4.8686,4.94,5.0223,5.0996,5.1638,5.1733,5.1683,5.1582,5.1556,5.1543,5.1543,5.1518,5.1492,5.1492,5.1402,5.1421,5.1563,5.1563,5.1838,5.2433,5.2486,5.2916,5.3774,5.3521,5.359,5.3997,5.3651,5.3518,5.3518,5.3518,5.3518,5.3518,5.3518,5.3518,5.3501,5.3331,5.3228,5.3206,5.3581,5.3403,5.2876,5.2822,5.2822,5.287,5.3434,5.3713,5.3993,5.5033,5.5553,5.5913,5.6321,5.6564,5.6699,5.6699,5.6699,5.6699,5.6699,5.6699,5.6699,5.6699,5.6699,5.6699,5.6699,5.6699,5.6699,5.6699,5.6382,5.5966,5.547,5.506,5.4655,5.4167,5.3952,5.3854,5.3854,5.3671,5.3506,5.345,5.3868,5.3868,5.3153,5.3524,5.3849,5.398,5.4397,5.4612,5.4635,5.4952,5.5055,5.4927,5.5387,5.5992,5.6705,5.6834,5.7288,5.8021,5.8021,5.7859,4.1538,4.1927,4.2553,4.3432,4.3784,4.4271,0.0,4.622,4.6417,4.7198,4.7262,4.7223,4.7287,4.8429,4.9388,4.9483,5.076,5.1763,5.187,5.1783,5.1746,5.1845,5.1758,5.1695,5.1695,5.1569,5.1492,5.1492,5.1479,5.1799,5.2523,5.2474,5.2763,5.3431,5.3567,5.3664,5.3808,5.3693,5.3763,5.3997,5.3651,5.3518,5.3518,5.3518,5.3518,5.3518,5.3518,5.3518,5.3518,5.3501,5.3753,5.4136,5.3992,5.4215,5.4501,5.4317,5.4276,5.4276,5.4343,5.4806,5.5383,5.5497,5.6012,5.6581,5.6661,5.668,5.6699,5.6699,5.6699,5.6699,5.6699,5.6699,5.6699,5.6699,5.6699,5.6699,5.6699,5.6699,5.6699,5.6699,5.6382,5.5966,5.547,5.506,5.4655,5.4167,5.4081,5.406,5.406,5.4038,5.4151,5.4571,5.4449,5.4391,5.4486,5.491,5.5463,5.6099,5.637,5.6499,5.6505,5.6402,5.5974,5.536,5.6036,5.6737,5.7471,5.8076,5.8756,5.949,5.949,5.881,4.192,4.2452,4.3068,4.3663,4.4458,4.5321,4.6057,4.6453,4.6916,4.7725,4.7478,4.7374,4.8303,4.8959,4.9532,5.002,5.1033,5.1796,5.1796,5.1746,5.1876,5.2439,5.2031,5.1721,5.1721,5.1658,5.1798,5.2274,5.2232,5.2536,5.3296,5.3171,5.3444,5.4286,5.3958,5.3957,5.4317,5.4036,5.3816,5.3701,5.3585,5.3518,5.3518,5.3518,5.3518,5.3501,5.3382,5.3331,5.3365,5.3787,5.402,5.4199,5.4964,5.5354,5.5351,5.4748,5.4508,5.4574,5.5005,5.5336,5.5667,5.6117,5.6448,5.6699,5.6699,5.6699,5.6699,5.6699,5.6699,5.6699,5.6699,5.6699,5.6699,5.6699,5.6699,5.6699,5.6699,5.6699,5.6699,5.6699,5.6382,5.5966,5.547,5.506,5.4739,5.455,5.4528,5.4635,5.5049,5.4868,5.4804,5.5116,5.4568,5.4465,5.5059,5.5059,5.5239,5.5668,5.5884,5.6,5.5986,5.5904,5.5928,5.6057,5.6349,5.7145,5.8408,5.87,5.9285,6.0131,6.0131,5.974,4.2317,4.2927,4.3614,4.4273,4.5279,4.6122,4.6291,4.6861,4.7484,4.8091,4.7959,4.8007,4.9091,4.9543,4.9925,5.0436,5.1198,5.1746,5.1721,5.1721,5.2006,5.2791,5.2399,5.2113,5.2315,5.2149,5.2363,5.3148,5.3116,5.3384,5.4167,5.3932,5.4161,5.503,5.4345,5.4187,5.457,5.406,5.3701,5.3518,5.3518,5.345,5.3416,5.3348,5.3331,5.3314,5.3161,5.3279,5.3549,5.4018,5.4402,5.4801,5.5728,5.6133,5.6117,5.5378,5.5104,5.517,5.57,5.5899,5.5965,5.6514,5.6699,5.6699,5.6699,5.6699,5.6699,5.6699,5.6699,5.6699,5.6699,5.6699,5.6699,5.6699,5.6699,5.6699,5.6699,5.6699,5.6699,5.6699,5.6441,5.6086,5.5733,5.5328,5.5104,5.5297,5.5293,5.5357,5.5643,5.5382,5.5306,5.5579,5.5048,5.4941,5.5706,5.5433,5.5307,5.5544,5.5552,5.571,5.5966,5.5937,5.6242,5.6957,5.7184,5.7853,5.9064,5.9293,5.9737,6.0399,6.0399,6.0444,4.2661,4.3309,4.4145,4.5737,4.6169,4.6385,4.7093,4.7716,4.8198,4.8266,4.8898,4.94,4.9329,5.0152,5.0785,5.0531,5.1272,5.1845,5.1733,5.1721,5.2006,5.2791,5.2876,5.3148,5.3872,5.3278,5.3184,5.3907,5.3966,5.4322,5.512,5.4906,5.5037,5.5636,5.4896,5.4397,5.4237,5.3683,5.3433,5.3518,5.3518,5.3399,5.3196,5.3007,5.2921,5.2921,5.2903,5.3443,5.4272,5.4079,5.4935,5.6389,5.6037,5.6354,5.6935,5.671,5.6633,5.6633,5.6666,5.6666,5.6666,5.6699,5.6699,5.6699,5.6699,5.6699,5.6699,5.6699,5.6699,5.6699,5.6699,5.6699,5.6699,5.6699,5.6699,5.6699,5.6699,5.6699,5.6699,5.6699,5.6525,5.6402,5.6349,5.5994,5.5921,5.6605,5.6532,5.6113,5.5483,5.5421,5.5584,5.6039,5.6046,5.6205,5.6616,5.648,5.6427,5.6641,5.6303,5.6493,5.7403,5.7235,5.7495,5.8215,5.8882,5.9243,5.9296,6.0017,6.0378,6.0399,6.0399,6.0771,4.374,4.4574,4.5251,4.5798,4.6729,4.7599,4.7849,4.8412,4.9103,4.9782,4.9268,4.9053,5.0175,5.0127,5.014,5.0545,5.1259,5.1758,5.1721,5.2149,5.2791,5.3528,5.3622,5.4042,5.5169,5.4265,5.3904,5.463,5.4652,5.4926,5.5511,5.5246,5.5221,5.5561,5.4667,5.4239,5.4399,5.3767,5.3467,5.3518,5.3365,5.3212,5.299,5.2921,5.2903,5.2886,5.2746,5.2863,5.3182,5.363,5.4115,5.4737,5.5558,5.6036,5.6335,5.6591,5.6699,5.6699,5.6699,5.6699,5.6699,5.6699,5.6699,5.6699,5.6699,5.6699,5.6699,5.6699,5.6699,5.6699,5.6699,5.6699,5.6738,5.6872,5.6891,5.693,5.7082,5.7101,5.7101,5.7101,5.6815,5.6583,5.6583,5.6198,5.6099,5.6659,5.6909,5.6869,5.6336,5.6271,5.6211,5.6106,5.6532,5.6947,5.7225,5.7475,5.7751,5.7952,5.771,5.772,5.8011,5.7949,5.8269,5.8936,5.9165,5.961,6.0229,6.0459,6.0675,6.0889,6.1372,6.1617,4.4623,4.5608,4.6376,4.6592,4.7674,4.8662,4.8591,4.9174,4.99,5.0497,4.9841,4.9554,5.0952,5.0498,5.0199,5.0938,5.1401,5.1721,5.1721,5.2274,5.2979,5.3762,5.4105,5.4663,5.5794,5.5127,5.4764,5.5143,5.5179,5.5278,5.5511,5.5259,5.5124,5.5144,5.4463,5.4127,5.4207,5.3801,5.3551,5.3518,5.3213,5.3024,5.2886,5.2764,5.2827,5.3094,5.2952,5.3234,5.3787,5.4198,5.4601,5.4955,5.5827,5.6208,5.6222,5.6572,5.6699,5.6699,5.6699,5.6699,5.6699,5.6699,5.6699,5.6699,5.6699,5.6699,5.6699,5.6699,5.6699,5.6719,5.6776,5.6796,5.6853,5.7063,5.7101,5.7139,5.7271,5.7308,5.7308,5.7308,5.7158,5.7025,5.7025,5.6762,5.6666,5.6987,5.7271,5.7446,5.7324,5.7233,5.7196,5.7219,5.7568,5.7864,5.8005,5.8312,5.8556,5.8698,5.8576,5.8626,5.8889,5.8889,5.9218,5.9942,5.9942,6.0235,6.0823,6.1108,6.1303,6.1516,6.2233,6.2645,4.5408,4.643,4.7407,4.8091,4.8912,4.9508,4.94,4.9995,5.0566,5.0566,5.0592,5.0832,5.1544,5.1082,5.0868,5.1603,5.1685,5.1721,5.1828,5.2164,5.2758,5.355,5.4288,5.5002,5.5744,5.57,5.5569,5.5443,5.5458,5.5383,5.5169,5.5003,5.4807,5.4463,5.4269,5.4011,5.3717,5.3701,5.3601,5.3501,5.3109,5.2886,5.2868,5.2584,5.2804,5.3382,5.3448,5.4354,5.5798,5.561,5.6065,5.6868,5.6691,5.6633,5.6666,5.6699,5.6699,5.6699,5.6699,5.6699,5.6699,5.6699,5.6699,5.6699,5.6699,5.6699,5.6699,5.6699,5.6719,5.6757,5.6968,5.7025,5.7063,5.7271,5.7327,5.7327,5.7327,5.7327,5.7327,5.7327,5.7495,5.7625,5.7625,5.7625,5.7625,5.7625,5.7625,5.7801,5.8313,5.8221,5.8386,5.9099,5.9053,5.8966,5.8966,5.8999,5.8999,5.8999,5.8999,5.933,6.0026,6.0059,6.039,6.1086,6.1119,6.1119,6.1119,6.1803,6.2134,6.2167,6.2929,6.3658,4.7096,4.7711,4.8149,4.8959,4.9698,5.027,5.0342,5.089,5.1412,5.1498,5.0471,4.984,5.0916,5.0223,5.0018,5.157,5.1771,5.2101,5.3265,5.3207,5.3372,5.4176,5.4601,5.4849,5.485,5.4838,5.4698,5.4415,5.4695,5.4772,5.4457,5.4317,5.4223,5.4127,5.385,5.3701,5.3717,5.3618,5.3467,5.3264,5.3007,5.2816,5.2692,5.2993,5.3217,5.3415,5.3978,5.446,5.4848,5.4792,5.491,5.5179,5.5686,5.5866,5.5932,5.6481,5.6699,5.6699,5.6699,5.6699,5.6699,5.6699,5.6699,5.6699,5.6699,5.6699,5.6719,5.6872,5.693,5.6968,5.7176,5.7233,5.7271,5.7476,5.7514,5.7569,5.7717,5.7753,5.7753,5.7753,5.779,5.7808,5.7808,5.7808,5.7808,5.7808,5.7808,5.795,5.8332,5.8356,5.8503,5.892,5.9437,5.9728,5.9728,6.0225,6.0556,6.0556,6.0556,6.0622,6.0821,6.0821,6.092,6.1119,6.1119,6.1119,6.1119,6.1285,6.1384,6.1417,6.2697,6.3393,4.7914,4.8687,4.9341,4.9806,5.0484,5.0948,5.0664,5.0913,5.1053,5.0695,4.9504,4.8991,5.056,5.0142,5.0117,5.1856,5.2182,5.2465,5.3074,5.3133,5.3315,5.3911,5.4409,5.4664,5.451,5.4415,5.4303,5.4092,5.4269,5.4269,5.3995,5.3915,5.3833,5.3801,5.3584,5.3534,5.3635,5.3534,5.3433,5.3331,5.3127,5.314,5.3353,5.3577,5.3965,5.4505,5.4937,5.5264,5.5487,5.5487,5.5487,5.5521,5.5918,5.6141,5.625,5.6682,5.6891,5.6968,5.6968,5.6911,5.6815,5.6719,5.6757,5.6834,5.6834,5.6891,5.6987,5.7101,5.7139,5.7176,5.7383,5.7439,5.7476,5.768,5.7735,5.7753,5.7863,5.79,5.79,5.79,5.79,5.7863,5.779,5.7827,5.7827,5.7662,5.7717,5.801,5.8666,5.8839,5.9162,5.991,6.0286,6.049,6.049,6.0854,6.1119,6.1119,6.1119,6.1119,6.1119,6.1119,6.1119,6.1119,6.1119,6.1119,6.1119,6.1417,6.1583,6.1616,6.3095,6.3791,4.833,4.9388,5.053,5.065,5.1185,5.1494,5.0648,5.0458,5.0158,4.9164,4.8357,4.8433,5.0443,5.0343,5.0535,5.221,5.2577,5.2581,5.2414,5.2593,5.2929,5.3422,5.4002,5.4383,5.4386,5.4189,5.4108,5.4108,5.4013,5.3849,5.3684,5.3667,5.3601,5.3518,5.3518,5.3518,5.3518,5.3518,5.3518,5.3518,5.3416,5.3683,5.4305,5.4298,5.4871,5.5902,5.6002,5.6288,5.6699,5.6699,5.6699,5.6699,5.6699,5.6815,5.7006,5.7006,5.712,5.7289,5.7271,5.7158,5.7006,5.6834,5.6872,5.7006,5.7025,5.7158,5.7308,5.7327,5.7346,5.7383,5.7588,5.7643,5.768,5.7845,5.7881,5.7863,5.7881,5.7881,5.7845,5.7845,5.7827,5.7772,5.7625,5.7717,5.7717,5.7383,5.7476,5.7924,5.8925,5.929,5.9964,6.123,6.119,6.1119,6.1119,6.1119,6.1119,6.1119,6.1119,6.1119,6.1119,6.1119,6.1119,6.1119,6.1119,6.1119,6.1119,6.1736,6.2101,6.2233,6.3625,6.4321,4.8889,4.9769,5.0698,5.1475,5.1688,5.1481,5.0526,5.0236,4.9895,4.8899,4.8325,4.8614,5.0446,5.0058,5.0227,5.26,5.1966,5.1804,5.3668,5.3076,5.2933,5.4165,5.4008,5.3783,5.3685,5.3635,5.3618,5.3618,5.3601,5.3568,5.3534,5.3517,5.3517,5.3518,5.3518,5.3518,5.3518,5.3518,5.3518,5.3501,5.3904,5.4188,5.4339,5.5353,5.5855,5.5936,5.6554,5.6773,5.6699,5.6699,5.6699,5.6699,5.6699,5.6815,5.7006,5.7006,5.712,5.7271,5.7101,5.7139,5.7233,5.7214,5.7101,5.7025,5.7195,5.7271,5.7346,5.7514,5.7551,5.7588,5.779,5.7845,5.7845,5.7881,5.7772,5.7698,5.7863,5.7772,5.7662,5.7662,5.7514,5.7439,5.7569,5.7495,5.7439,5.7532,5.7439,5.7572,5.8225,5.8838,5.9745,6.1036,6.114,6.1119,6.1119,6.1119,6.1119,6.1119,6.1119,6.1119,6.1119,6.1119,6.1119,6.1119,6.1119,6.1119,6.1119,6.1218,6.1583,6.22,6.3095,6.3824,4.9126,4.9876,5.0614,5.1068,5.1115,5.0695,4.9336,4.9272,4.9086,4.7484,4.7348,4.7961,4.9465,4.975,5.0286,5.1911,5.1682,5.1717,5.287,5.2572,5.2693,5.3826,5.3768,5.3568,5.3518,5.3518,5.3518,5.3518,5.3518,5.3518,5.3518,5.3518,5.3518,5.3518,5.3518,5.3518,5.3518,5.3518,5.3687,5.4093,5.4345,5.4867,5.5609,5.621,5.6548,5.6638,5.6991,5.6987,5.6699,5.6699,5.6699,5.6699,5.6699,5.6815,5.7006,5.7006,5.712,5.7308,5.7308,5.7308,5.7346,5.7551,5.7476,5.7327,5.742,5.7532,5.7625,5.7717,5.7753,5.7772,5.7863,5.7808,5.7735,5.7735,5.7588,5.7476,5.7569,5.7514,5.7439,5.7439,5.7364,5.7308,5.7289,5.7289,5.7271,5.7158,5.7139,5.7463,5.8382,5.8827,5.9398,6.0423,6.0887,6.1119,6.1119,6.1119,6.1119,6.1119,6.1119,6.1119,6.1119,6.1119,6.1119,6.1119,6.1119,6.1119,6.1119,6.1119,6.1483,6.22,6.2962,6.3691,4.8958,4.9684,5.0385,5.0256,5.0339,4.9943,4.8123,4.8272,4.8214,4.6142,4.6465,4.7448,4.8534,4.9467,5.0299,5.1045,5.1228,5.1457,5.1821,5.1955,5.2379,5.3432,5.3534,5.3517,5.3518,5.3518,5.3518,5.3518,5.3518,5.3518,5.3518,5.3518,5.3518,5.3518,5.3518,5.3518,5.3518,5.3653,5.4025,5.4617,5.4905,5.5683,5.6799,5.6968,5.7122,5.7308,5.7308,5.7082,5.6699,5.6699,5.6699,5.6699,5.6699,5.6815,5.7006,5.7044,5.7158,5.7327,5.7476,5.7439,5.7364,5.7662,5.7698,5.7606,5.7662,5.7772,5.79,5.79,5.79,5.7881,5.7845,5.7717,5.7569,5.7495,5.7383,5.7289,5.7252,5.7233,5.7233,5.7233,5.7195,5.7139,5.7025,5.7101,5.7082,5.6796,5.6986,5.7537,5.8522,5.8933,5.9363,5.9926,6.0655,6.1119,6.1119,6.1119,6.1119,6.1119,6.1119,6.1119,6.1119,6.1119,6.1119,6.1119,6.1119,6.1119,6.1119,6.1251,6.1715,6.2432,6.3194,6.3902,4.7966,4.9022,5.0029,4.953,4.9799,4.9667,4.7849,4.7805,4.7683,4.5826,4.6515,4.7691,4.8452,4.9154,4.98,5.0553,5.0138,5.0191,5.1536,5.1741,5.2225,5.3547,5.3684,5.3617,5.3501,5.3518,5.3518,5.3518,5.3518,5.3518,5.3518,5.3518,5.3518,5.3518,5.3518,5.3518,5.3518,5.416,5.455,5.4617,5.5953,5.6664,5.6833,5.7476,5.7613,5.7308,5.7308,5.7082,5.6699,5.6699,5.6699,5.6699,5.6699,5.6815,5.7025,5.7214,5.7289,5.7308,5.7327,5.7327,5.7308,5.7346,5.7476,5.7643,5.7808,5.7881,5.79,5.79,5.79,5.7845,5.7662,5.7606,5.7514,5.7139,5.7176,5.7252,5.7063,5.7025,5.7025,5.7025,5.6872,5.6796,5.6968,5.6853,5.6796,5.6949,5.7399,5.7779,5.7892,5.9065,5.9926,5.9993,6.0655,6.1119,6.1119,6.1119,6.1119,6.1119,6.1119,6.1119,6.1119,6.1119,6.1119,6.1119,6.1119,6.1119,6.1119,6.1769,6.2465,6.3227,6.3957,6.4553,4.808,4.8358,4.8536,4.8766,4.8998,4.8655,4.6745,4.7169,4.7559,4.6117,4.6714,4.7689,4.8357,4.9051,4.9558,4.9744,4.9525,4.9819,5.1206,5.1505,5.2083,5.3432,5.3584,5.3551,5.3518,5.3518,5.3518,5.3518,5.3518,5.3518,5.3518,5.3518,5.3518,5.3518,5.3518,5.3721,5.416,5.4431,5.5057,5.5919,5.6528,5.6727,5.6619,5.6923,5.6856,5.6467,5.6467,5.6549,5.6699,5.6699,5.6699,5.6699,5.6699,5.6738,5.6834,5.6911,5.693,5.6949,5.7082,5.712,5.7139,5.7252,5.7364,5.7476,5.7808,5.79,5.79,5.79,5.7808,5.7698,5.7625,5.742,5.7176,5.6891,5.668,5.6622,5.6776,5.6622,5.6525,5.6776,5.6757,5.6719,5.6796,5.6757,5.6884,5.7393,5.7666,5.8104,5.8999,5.9628,6.0191,6.0622,6.092,6.1119,6.1119,6.1119,6.1119,6.1119,6.1119,6.1119,6.1119,6.1119,6.1119,6.1119,6.1119,6.1318,6.1769,6.2068,6.2797,6.3957,6.4255,6.463,4.7613,4.7656,4.7668,4.8061,4.8067,4.7631,4.6231,4.6855,4.7403,4.6315,4.6937,4.7806,4.8216,4.8888,4.929,4.9153,4.9308,4.982,5.0744,5.1178,5.1769,5.2722,5.301,5.3145,5.3145,5.3382,5.3518,5.3518,5.3518,5.345,5.3416,5.345,5.345,5.3399,5.3687,5.4042,5.4497,5.4919,5.5662,5.6709,5.6858,5.685,5.6756,5.6756,5.6538,5.6235,5.6235,5.6407,5.6699,5.6699,5.6699,5.6699,5.6699,5.6699,5.6699,5.6757,5.6757,5.6719,5.693,5.6968,5.6949,5.7139,5.7214,5.7271,5.7625,5.7717,5.7717,5.7717,5.7569,5.742,5.742,5.7082,5.6699,5.6544,5.6192,5.5986,5.6251,5.6093,5.6026,5.6427,5.6505,5.661,5.6978,5.7031,5.7296,5.8005,5.8303,5.8833,5.986,6.0191,6.0523,6.1053,6.1119,6.1119,6.1119,6.1119,6.1119,6.1119,6.1119,6.1119,6.1119,6.1119,6.1119,6.1119,6.1318,6.1682,6.22,6.2631,6.3393,6.442,6.4531,6.4695,4.6118,4.6952,4.7966,4.7449,4.7021,4.672,4.6672,4.6955,4.6996,4.6245,4.716,4.8112,4.8112,4.8602,4.8984,4.9018,4.9593,5.0117,5.0117,5.0744,5.1201,5.1235,5.186,5.23,5.23,5.3044,5.3518,5.3518,5.3518,5.3399,5.3213,5.3382,5.3399,5.3196,5.4109,5.4514,5.4289,5.577,5.6511,5.6511,5.7033,5.7308,5.7308,5.7308,5.7195,5.7006,5.7006,5.6891,5.6699,5.6699,5.6699,5.6699,5.6699,5.6699,5.6719,5.693,5.6872,5.6719,5.693,5.6872,5.6738,5.693,5.7006,5.7044,5.7252,5.7308,5.7308,5.7308,5.7158,5.7006,5.7006,5.6544,5.6106,5.6106,5.5766,5.5409,5.5409,5.5409,5.5531,5.6026,5.6106,5.6474,5.7582,5.7773,5.8038,5.8767,5.9496,5.9993,5.9993,6.0655,6.1086,6.1119,6.1119,6.1119,6.1119,6.1119,6.1119,6.1119,6.1119,6.1119,6.1119,6.1119,6.1119,6.1119,6.1836,6.22,6.22,6.3658,6.4387,6.442,6.4882,6.4793,4.5973,4.6,4.6061,4.6397,4.6384,4.6282,4.6172,4.6647,4.7117,4.7305,4.7742,4.8233,4.8621,4.8956,4.9262,4.9677,4.9526,4.9695,5.071,5.1066,5.137,5.1877,5.2638,5.3112,5.3112,5.3348,5.3433,5.3314,5.3281,5.3229,5.3007,5.3528,5.3578,5.3023,5.3919,5.4525,5.4834,5.5807,5.6545,5.7048,5.7226,5.6947,5.6348,5.6348,5.6235,5.6027,5.6027,5.6307,5.6699,5.6699,5.6699,5.6699,5.6699,5.6699,5.6699,5.6776,5.6757,5.6699,5.6776,5.6757,5.6699,5.6776,5.6796,5.6757,5.6525,5.6853,5.7271,5.7139,5.6641,5.6139,5.633,5.5994,5.5612,5.5612,5.5287,5.506,5.5328,5.5389,5.5694,5.6661,5.7067,5.7536,5.8383,5.8535,5.88,5.9529,5.986,6.0191,6.0688,6.0953,6.1119,6.1119,6.1119,6.1119,6.1119,6.1119,6.1119,6.1119,6.1119,6.1119,6.1119,6.1119,6.1351,6.1836,6.2068,6.2697,6.3691,6.4188,6.4564,6.4882,6.4832,6.4633,4.5528,4.5569,4.5521,4.5979,4.606,4.6093,4.6252,4.6859,4.7465,4.7834,4.818,4.8565,4.8932,4.9061,4.9262,4.9609,4.9526,4.9729,5.0676,5.1032,5.1472,5.2198,5.2739,5.3179,5.3484,5.3518,5.3416,5.3213,5.3465,5.3479,5.3217,5.3988,5.412,5.351,5.4513,5.5152,5.5405,5.6141,5.6742,5.7195,5.7101,5.6773,5.6189,5.6189,5.6132,5.5998,5.5998,5.6282,0.0,5.6699,5.6699,5.6699,5.6699,5.6699,5.6699,5.6699,5.6699,5.6699,5.6699,5.6699,5.6699,5.6699,5.6583,5.6441,5.6185,5.633,5.6564,5.6447,5.6013,5.5633,5.5774,5.5523,5.5164,5.5164,5.4832,5.4677,5.5185,5.5426,5.5901,5.7069,5.7662,5.8256,5.9177,5.933,5.9562,6.0291,6.0423,6.0589,6.1053,6.1119,6.1119,6.1119,6.1119,6.1119,6.1119,6.1119,6.1119,6.1119,6.1119,6.1119,6.1119,6.1384,6.1736,6.22,6.273,6.3493,6.4387,6.463,6.4817,6.4963,6.4771,6.4518,0.0,4.546,4.602,4.6074,4.5982,4.6073,4.6889,4.7484,0.0,4.7988,4.8529,4.9018,4.9018,4.9018,4.9018,4.9086,4.9593,5.0083,5.015,5.0795,5.1523,5.23,5.2368,5.2639,5.3382,5.3484,5.3365,5.3161,5.3851,5.4096,5.369,5.4616,5.4977,5.4593,5.5677,5.6103,5.5884,5.6602,5.6968,5.6968,5.6776,5.6699,5.6699,5.6699,5.6699,5.6699,5.6699,5.6699,5.6699,5.6699,5.6699,5.6699,5.6699,5.6699,5.6699,5.6699,5.6699,5.6699,5.6699,5.6699,5.668,5.6661,5.6349,5.6006,5.6006,5.5693,5.5348,5.5389,5.5348,5.5307,5.5348,5.504,5.476,5.476,5.4454,5.4356,5.501,5.5558,5.6274,5.7407,5.8011,5.8696,5.9878,6.0092,6.0324,6.102,6.1119,6.1119,6.1119,6.1119,6.1119,6.1119,6.1119,6.1119,6.1119,6.1119,6.1119,6.1119,6.1119,6.1119,6.1185,6.1836,6.2233,6.2333,6.3758,6.4487,6.4487,6.5072,6.5156,6.4702,6.4679,6.4426,4.4699,0.0,4.5086,4.5648,4.5775,4.6085,0.0,4.78,4.8056,4.8631,4.8883,4.9018,4.9018,4.9018,4.9187,4.9729,4.9492,4.9661,5.0761,5.1493,5.2218,5.3129,5.296,5.2874,5.3247,5.311,5.2955,5.2746,5.3414,5.3725,5.3473,5.4752,5.543,5.5336,5.6146,5.6298,5.5677,5.6392,5.6776,5.6776,5.6719,5.6699,5.6699,5.6699,5.6699,5.6699,5.6699,5.6699,5.6699,5.6699,5.6699,5.6699,5.6699,5.6699,5.6699,5.6699,5.6699,5.6699,5.6699,5.6699,5.6641,5.6362,5.5746,5.5134,5.5134,5.5019,5.4998,5.5307,5.4915,5.4507,5.4832,5.4581,5.4274,5.4274,5.4578,5.5011,5.5527,5.6402,5.7461,5.8673,5.9276,5.9837,6.0701,6.0854,6.092,6.1086,6.1119,6.1119,6.1119,6.1119,6.1119,6.1119,6.1119,6.1119,6.1119,6.1119,6.1119,6.1119,6.1119,6.1351,6.1935,6.2101,6.273,6.3857,6.473,6.516,6.516,6.5158,6.5031,6.4702,6.4495,6.424,4.4615,4.4615,4.477,4.5534,4.594,4.6515,4.765,4.8157,4.8529,4.8917,4.9018,4.9018,4.9018,4.9018,4.912,4.9526,4.9193,4.9385,5.0772,5.163,5.2404,5.3247,5.3076,5.2972,5.3179,5.3024,5.2816,5.2606,5.3605,5.4132,5.393,5.5303,5.6098,5.6098,5.6481,5.6514,5.6117,5.6481,5.6699,5.6699,5.6349,5.6382,5.6699,5.6349,5.6382,5.6699,5.6699,5.6699,5.6699,5.6699,5.6699,5.6699,5.6699,5.6699,5.6699,5.6699,5.6699,5.6699,5.6699,5.6564,5.633,5.5914,5.5328,5.4822,5.4822,5.4644,5.4497,5.4728,5.4454,5.4167,5.4423,5.4517,5.4555,5.4555,5.5267,5.6012,5.6374,5.7442,5.8546,5.9338,6.0032,6.0622,6.1032,6.1119,6.1119,6.1119,6.1119,6.1119,6.1119,6.1119,6.1119,6.1119,6.1119,6.1119,6.1119,6.1119,6.1119,6.1119,6.1417,6.1769,6.2167,6.283,6.3725,6.4829,6.5115,6.5246,6.5246,6.5054,6.4771,6.4518,6.4379,6.417,4.4736,4.477,4.4939,4.5669,4.6413,4.7158,4.7887,4.8563,4.9018,4.9018,4.9018,4.9052,4.9154,4.9086,4.9037,4.9107,4.9117,4.9464,5.0559,5.1564,5.2438,5.3077,5.2955,5.2886,5.3093,5.2938,5.2746,5.2571,5.3835,5.456,5.4508,5.5786,5.6581,5.6699,5.6699,5.6699,5.6699,5.6699,5.6699,5.6699,5.6084,5.6117,5.6699,5.6031,5.6117,5.6699,5.6699,5.6699,5.6699,5.6699,5.6699,5.6699,5.6699,5.6699,5.6699,5.6699,5.6699,5.668,5.6622,5.6251,5.5774,5.5409,5.4998,5.4655,5.4697,5.4423,5.4103,5.4103,5.4103,5.4134,5.4229,5.4682,5.5124,5.525,5.6149,5.7015,5.7231,5.8376,5.9466,5.974,6.0496,6.1119,6.1119,6.1119,6.1119,6.1119,6.1119,6.1119,6.1119,6.1119,6.1119,6.1119,6.1119,6.1119,6.1119,6.1218,6.1285,6.1285,6.1869,6.23,6.2532,6.3824,6.4829,6.5325,6.5189,6.5076,6.5031,6.4771,6.4541,6.431,6.4286,6.4146,4.5365,4.5534,4.5703,4.6462,4.7192,4.7921,4.868,4.8917,4.9018,4.9018,4.9018,4.9187,4.983,4.9424,4.9175,4.9675,5.0137,5.0475,5.0677,5.1762,5.2613,5.2921,5.2675,5.2533,5.2676,5.2569,5.2463,5.2427,5.3172,5.3883,5.4475,5.5303,5.6031,5.6699,5.6699,5.6699,5.6699,5.6699,5.6699,5.6699,5.6581,5.6581,5.6699,5.6581,5.6581,5.6699,5.6699,5.6699,5.6699,5.6699,5.6699,5.6699,5.6699,5.6699,5.6699,5.6699,5.6699,5.6641,5.6323,5.5511,5.4707,5.4832,5.4465,5.3984,5.4167,5.4167,5.4103,5.4103,5.4103,5.4229,5.4808,5.5029,5.525,5.5873,5.6613,5.7276,5.7707,5.8763,5.9773,6.0227,6.0729,6.1119,6.1119,6.1119,6.1119,6.1119,6.1119,6.1119,6.1119,6.1119,6.1119,6.1119,6.1119,6.1119,6.1119,6.167,6.2034,6.2034,6.2134,6.2764,6.4023,6.4829,6.5214,6.5144,6.5099,6.4986,6.4771,6.4495,6.4356,6.431,6.4132,6.4015,4.55,4.6007,4.6481,4.7225,4.765,4.809,4.8834,4.9018,4.9018,4.9018,4.9018,4.912,4.9424,4.9221,4.9027,4.9112,4.9751,5.0274,5.0392,5.1324,5.2208,5.2696,5.2551,5.2463,5.2571,5.248,5.2557,5.2904,5.3599,5.4309,5.5038,5.58,5.6349,5.6699,5.6699,5.6699,5.6699,5.6699,5.6699,5.6699,5.6316,5.6316,5.6699,5.6282,5.6316,5.6699,5.6699,5.6699,5.6699,5.6699,5.6699,5.6699,5.6699,5.6699,5.6661,5.648,5.6271,5.6093,5.5572,5.4957,5.4412,5.4412,5.421,5.3974,5.4081,5.4103,5.4166,5.4524,5.4618,5.4713,5.5029,5.5661,5.6324,5.6663,5.7467,5.8155,5.8133,5.9139,6.0055,6.0044,6.0602,6.1119,6.1119,6.1119,6.1119,6.1119,6.1119,6.1119,6.1119,6.1119,6.1119,6.1119,6.1119,6.1251,6.1649,6.2001,6.2489,6.3132,6.3165,6.3595,6.4517,6.4879,6.4976,6.4895,6.4725,6.461,6.4495,6.424,6.4156,6.4156,6.4038,6.4194,4.5771,4.6515,4.7225,4.7954,4.8157,4.8293,4.8883,4.9018,4.9018,4.9018,4.9018,4.9052,4.9221,4.9193,4.8985,4.858,4.9286,4.9958,5.0155,5.107,5.1921,5.2469,5.2463,5.2445,5.2536,5.2463,5.269,5.3349,5.3912,5.4641,5.5568,5.615,5.6514,5.6699,5.6699,5.6699,5.6699,5.6699,5.6699,5.6699,5.615,5.615,5.6699,5.6117,5.6183,5.6699,5.6699,5.6699,5.6699,5.6699,5.6699,5.6699,5.6699,5.6641,5.6486,5.6106,5.5693,5.5316,5.4874,5.4433,5.4071,5.3964,5.3952,5.3952,5.4017,5.4186,5.4451,5.4966,5.5345,5.5598,5.5598,5.6387,5.724,5.7421,5.816,5.8778,5.8527,5.9397,6.0163,5.9913,6.0538,6.1119,6.1119,6.1119,6.1119,6.1119,6.1119,6.1119,6.1119,6.1119,6.1119,6.1119,6.1251,6.1694,6.2546,6.2612,6.3044,6.402,6.4108,6.4326,6.4692,6.4702,6.4679,6.461,6.4393,6.4286,6.4216,6.4062,6.4065,6.4227,6.4227,6.4583,4.6515,4.7259,4.7988,4.8732,4.8917,4.8951,4.8984,4.9018,4.9018,4.9018,4.9018,4.9221,4.9898,4.9779,4.9319,4.86,4.946,5.0188,5.0203,5.143,5.2343,5.2409,5.2391,5.2391,5.2409,5.2391,5.269,5.3349,5.3448,5.4111,5.5535,5.5667,5.5965,5.6699,5.6699,5.6699,5.6699,5.6699,5.6699,5.6699,5.6666,5.6666,5.6699,5.6666,5.6666,5.6699,5.6699,5.6699,5.6699,5.6699,5.6699,5.6699,5.6699,5.6466,5.6086,5.5612,5.506,5.4497,5.4454,5.3878,5.321,5.3377,5.3443,5.3487,5.3767,5.4403,5.5061,5.5092,5.604,5.7051,5.7051,5.7114,5.7367,5.8076,5.8289,5.8459,5.8869,5.9375,5.9881,6.027,6.075,6.1119,6.1119,6.1119,6.1119,6.1119,6.1119,6.1119,6.1119,6.1119,6.1119,6.1119,6.1703,6.2612,6.3793,6.3869,6.3998,6.4272,6.4489,6.4659,6.4702,6.4702,6.4587,6.4323,6.4333,6.4193,6.4024,6.4024,6.4324,6.4939,6.4939,6.5327,4.6583,4.7327,4.809,4.8815,4.9018,4.9018,4.9018,4.9018,4.9018,4.9018,4.9018,4.9055,4.9266,4.9173,4.9082,4.9007,4.9743,5.0354,5.0487,5.1602,5.2302,5.2068,5.2248,5.2391,5.2391,5.2176,5.2295,5.2967,5.3461,5.4152,5.5172,5.5916,5.6415,5.6699,5.6699,5.6699,5.6699,5.6699,5.6699,5.6699,5.6699,5.6699,5.6699,5.6699,5.6699,5.6699,5.6699,5.6699,5.6699,5.6699,5.6447,5.6053,5.562,5.5539,5.5592,5.4998,5.4623,5.437,5.4124,5.3801,5.3549,5.3606,5.3627,5.3649,5.3767,5.4326,5.4989,5.543,5.6226,5.6972,5.7163,5.7548,5.7904,5.7995,5.8182,5.839,5.8678,5.9241,5.975,5.9925,6.0335,6.0666,6.0666,6.0666,6.0771,6.1077,6.1119,6.1119,6.1119,6.1119,6.1285,6.1736,6.2713,6.3507,6.3979,6.4115,6.4224,6.43,6.4402,6.4402,6.4272,6.4272,6.4226,6.4132,6.4109,6.4062,6.4,6.4421,6.4745,6.5004,6.5457,6.6096,4.665,4.753,4.836,4.8883,4.9018,4.9018,4.9018,4.9018,4.9018,4.9018,4.8972,4.8879,4.8626,4.8628,4.8735,4.9078,4.9708,5.0265,5.0654,5.143,5.189,5.1614,5.1817,5.198,5.198,5.1743,5.1871,5.2557,5.3389,5.4142,5.4665,5.5778,5.6388,5.6388,5.6388,5.6486,5.6699,5.6486,5.6388,5.6388,5.6271,5.631,5.6505,5.6641,5.6622,5.6505,5.6641,5.6699,5.668,5.6466,5.5981,5.5336,5.4738,5.477,5.4998,5.4348,5.4061,5.405,5.3724,5.3571,5.3571,5.3484,5.3615,5.3767,5.3615,5.4151,5.492,5.5521,5.6187,5.6806,5.7187,5.7665,5.8011,5.7918,5.8034,5.8274,5.8541,5.8995,5.9419,5.963,5.9903,6.0076,6.0163,6.0292,6.0484,6.0835,6.1015,6.1119,6.1119,6.1318,6.1815,6.2797,6.3551,6.4066,6.4229,6.427,6.4286,6.4193,6.4193,6.4156,6.4024,6.4,6.4,6.4,6.4194,6.4324,6.4324,6.5004,6.5457,6.5683,6.6226,6.6841,4.6819,4.7868,4.9018,4.9018,4.9018,4.9018,4.9018,4.9018,4.9003,4.8969,4.8879,4.8675,4.8274,4.8211,4.8347,4.8743,4.9262,4.9861,5.0582,5.0922,5.1083,5.1083,5.1083,5.1083,5.1083,5.1116,5.1407,5.2139,5.3237,5.3896,5.3995,5.5069,5.5713,5.5681,5.5681,5.6001,5.668,5.6033,5.5681,5.5713,5.5307,5.545,5.6106,5.6486,5.648,5.6106,5.6486,5.668,5.6622,5.5974,5.5295,5.4654,5.4242,5.42,5.4327,5.364,5.3399,5.3355,5.3166,5.3109,5.3064,5.2796,5.3219,5.3702,5.3242,5.3877,5.4875,5.5349,5.599,5.6645,5.7332,5.7519,5.7566,5.7825,5.7895,5.8011,5.8496,5.861,5.8805,5.952,5.9486,5.9397,5.9662,6.0076,6.0378,6.0378,6.0793,6.1098,6.1098,6.1748,6.2764,6.4255,6.4145,6.4196,6.4659,6.4472,6.4193,6.4024,6.4,6.4,6.4,6.4,6.4,6.4,6.4647,6.5004,6.5004,6.5716,6.6485,6.7222,6.7222,6.7553,4.7428,4.8259,4.9018,4.9018,4.9018,4.8987,4.8879,4.8863,4.8754,4.829,4.8178,4.8081,4.7902,4.8033,4.847,4.9243,4.9699,5.0107,5.0489,5.0892,5.1022,5.0717,5.0946,5.1083,5.1083,5.0838,5.0762,5.0987,5.228,5.2993,5.2824,5.4385,5.543,5.5681,5.5254,5.5336,5.5981,5.5336,5.5008,5.5008,5.4883,5.4925,5.5131,5.5418,5.5397,5.5111,5.5254,5.5283,5.5275,5.4758,5.4454,5.4221,5.3627,5.3518,5.3661,5.3321,5.3299,5.3355,5.3166,5.333,5.3528,5.3131,5.321,5.3474,5.3197,5.3663,5.4437,5.5052,5.5682,5.6435,5.7285,5.7258,5.7043,5.7306,5.7495,5.7707,5.798,5.8188,5.8372,5.8601,5.8578,5.8669,5.913,5.9308,5.953,5.9859,6.0033,6.0326,6.1022,6.266,6.3858,6.4112,6.4328,6.4473,6.4416,6.4226,6.392,6.346,6.3779,6.4,6.4,6.4,6.4,6.4,6.4194,6.4518,6.5004,6.5716,6.6485,6.7197,6.7683,6.7806,4.7684,4.8428,4.9018,4.9018,4.9018,4.8892,4.8515,4.8436,4.834,4.7967,4.7737,4.7522,4.7287,4.7718,4.8311,4.9058,4.9572,5.0022,5.0448,5.0583,5.0544,5.0292,5.0486,5.0621,5.0621,5.0409,5.0253,5.0253,5.1758,5.2455,5.1944,5.3691,5.479,5.4904,5.4496,5.4601,5.5295,5.4654,5.4285,5.4285,5.4147,5.3997,5.3932,5.4633,5.4758,5.4465,5.4633,5.4538,5.4264,5.4018,5.377,5.3496,5.3078,5.3078,5.3255,5.3042,5.3078,5.3255,5.3011,5.3197,5.3462,5.3086,5.333,5.3708,5.3126,5.3484,5.421,5.4777,5.5217,5.5789,5.6939,5.7026,5.6858,5.7067,5.7203,5.737,5.7511,5.7653,5.7793,5.791,5.784,5.7887,5.8335,5.8564,5.8792,5.9053,5.9778,6.0606,6.1635,6.323,6.4155,6.3991,6.4109,6.4091,6.3714,6.3508,6.322,6.2898,6.3389,6.3684,6.3684,6.3873,6.4,6.4,6.4069,6.4401,6.5109,6.5621,6.6227,6.6965,6.7247,6.7175,4.7785,4.8496,4.9018,4.9018,4.8972,4.8704,4.8,4.7803,4.7754,4.7754,4.7355,4.6946,4.6731,4.7361,4.8053,4.8519,4.9111,4.9745,5.0352,5.0116,4.9912,4.9912,4.9912,4.9912,4.9912,4.9912,4.9912,4.9912,5.1546,5.2148,5.134,5.2984,5.3836,5.3685,5.3652,5.3954,5.458,5.3922,5.3608,5.3608,5.3255,5.2953,5.2721,5.3975,5.4338,5.3995,5.4359,5.4189,5.3608,5.3652,5.3268,5.2676,5.2751,5.2886,5.3042,5.2796,5.2863,5.3042,5.2765,5.2917,5.3157,5.2858,5.3568,5.4295,5.3203,5.3472,5.4235,5.4684,5.4799,5.5106,5.6447,5.681,5.6858,5.7043,5.706,5.706,5.706,5.706,5.7132,5.7401,5.7258,5.7156,5.7472,5.784,5.8173,5.8237,5.9858,6.1458,6.2502,6.3382,6.3913,6.3806,6.3563,6.326,6.2808,6.2531,6.2383,6.2333,6.2825,6.3092,6.3043,6.366,6.4,6.3953,6.4055,6.4459,6.5144,6.5268,6.5675,6.6375,6.6127,6.5936,4.8409,4.8883,4.9018,4.9018,4.8578,4.7983,4.7388,4.6931,4.6637,4.6637,4.6533,4.662,4.7141,4.7608,4.8198,4.9143,4.9598,4.986,5.0018,4.9971,4.9912,4.9912,4.9912,4.9912,4.9912,4.9912,4.9912,4.9912,5.0661,5.1182,5.1287,5.2013,5.2859,5.3664,5.3179,5.3246,5.3932,5.3246,5.2922,5.2922,5.2833,5.2774,5.2729,5.3233,5.3277,5.3011,5.31,5.3055,5.2944,5.3144,5.3011,5.2698,5.2953,5.293,5.2796,5.2698,5.2721,5.2796,5.2698,5.3225,5.3839,5.3567,5.4144,5.4876,5.4399,5.4391,5.4715,5.5284,5.5468,5.5684,5.657,5.681,5.681,5.6858,5.6882,5.6882,5.6882,5.6882,5.6882,5.6954,5.6906,5.6995,5.7424,5.7559,5.7817,5.838,5.9916,6.112,6.1357,6.2484,6.3236,6.3068,6.2971,6.2825,6.2506,6.2432,6.2209,6.1784,6.2284,6.2383,6.196,6.3268,6.3802,6.3389,6.3397,6.3569,6.3905,6.3906,6.4171,6.4653,6.5014,6.4569,4.8301,4.8751,4.8736,4.8657,4.7951,4.7219,4.6929,4.6442,4.6066,4.6066,4.6066,4.6289,4.6989,4.7534,4.8206,4.9082,4.9606,4.9872,4.9793,4.9852,4.9872,4.9773,4.9852,4.9872,4.9773,4.9852,4.9832,4.9653,5.0293,5.0694,5.0683,5.1229,5.1881,5.2716,5.2405,5.2537,5.3223,5.2877,5.2676,5.2676,5.2676,5.2676,5.2698,5.2833,5.281,5.2676,5.2676,5.2676,5.2729,5.2863,5.2841,5.2698,5.2863,5.2841,5.2676,5.2676,5.2676,5.2676,5.2676,5.3228,5.3874,5.3737,5.4461,5.5294,5.4845,5.4922,5.5253,5.5592,5.5684,5.5892,5.6601,5.681,5.681,5.681,5.681,5.681,5.681,5.681,5.681,5.681,5.681,5.6882,5.7115,5.7442,5.7976,5.8975,6.019,6.1081,6.1246,6.2284,6.2776,6.2259,6.2241,6.206,6.1658,6.1633,6.1506,6.1226,6.1708,6.1885,6.1607,6.2661,6.3099,6.2825,6.2555,6.2656,6.3072,6.2689,6.2934,6.3765,6.3765,6.3549,4.7925,4.834,4.826,4.8,4.7237,4.6565,4.646,4.6134,4.5805,4.5805,4.5805,4.6026,4.6834,4.7498,4.8162,4.8952,4.9552,4.9852,4.9653,4.9753,4.9793,4.9633,4.9733,4.9753,4.9602,4.9733,4.9673,4.9331,5.0089,5.0476,5.0204,5.0782,5.1355,5.1867,5.1867,5.2144,5.2676,5.2676,5.2676,5.2676,5.2676,5.2676,5.2676,5.2676,5.2676,5.2676,5.2676,5.2676,5.2676,5.2676,5.2676,5.2676,5.2676,5.2676,5.2676,5.2676,5.2676,5.2729,5.2829,5.3322,5.3876,5.3999,5.4884,5.5776,5.5229,5.5468,5.5892,5.5892,5.5892,5.6046,5.6631,5.681,5.681,5.681,5.681,5.681,5.681,5.681,5.681,5.681,5.681,5.684,5.6939,5.7525,5.8387,5.9619,6.0452,6.1083,6.1418,6.2035,6.2216,6.1506,6.1455,6.1283,6.0845,6.0794,6.0794,6.0794,6.1231,6.1455,6.1455,6.1885,6.211,6.206,6.1759,6.1787,6.2193,6.1546,6.1756,6.2717,6.2425,6.2449,4.7605,4.7688,4.7421,4.6946,4.6704,4.6492,4.6026,4.5828,4.5805,4.5805,4.5805,4.6184,4.7498,4.7814,4.832,4.9564,4.9848,4.9852,4.9653,4.9633,4.9653,4.9613,4.9461,4.9452,4.9593,4.9472,4.9372,4.928,4.9802,5.0308,5.0834,5.1342,5.1889,5.2544,5.2575,5.2614,5.2676,5.2676,5.2676,5.2676,5.2676,5.2676,5.2676,5.2676,5.2676,5.2676,5.2676,5.2676,5.2676,5.2676,5.2676,5.2676,5.2676,5.2676,5.2676,5.2676,5.2676,5.2768,5.3353,5.3999,5.4676,5.5253,5.5985,5.6631,5.6539,5.657,5.6631,5.6631,5.6631,5.6662,5.6755,5.681,5.681,5.681,5.681,5.681,5.681,5.681,5.681,5.681,5.681,5.697,5.7555,5.8233,5.8941,5.9686,6.0404,6.0856,6.0923,6.1,6.1026,6.0923,6.0897,6.0871,6.0794,6.0794,6.0794,6.0794,6.0871,6.0897,6.0897,6.0975,6.0923,6.069,6.1277,6.1314,6.0682,6.0578,6.0354,6.0059,6.1092,6.0876,4.7056,4.7083,4.6894,4.6652,4.6386,4.6098,4.5846,4.5805,4.5805,4.5805,4.6108,4.6676,4.7719,4.7909,4.8313,4.9532,4.9721,4.9633,4.9291,4.9372,4.9421,4.9421,4.934,4.932,4.9432,4.934,4.9178,4.8913,4.9595,5.0079,5.0262,5.0802,5.1436,5.2113,5.2144,5.2306,5.2676,5.2563,5.2427,5.2322,5.2322,5.2322,5.2322,5.2427,5.2563,5.2676,5.2676,5.2676,5.2676,5.2676,5.2676,5.2676,5.2676,5.2676,5.2676,5.2676,5.2676,5.2799,5.3476,5.4153,5.4829,5.5468,5.62,5.681,5.681,5.681,5.681,5.681,5.681,5.681,5.681,5.681,5.681,5.681,5.681,5.681,5.681,5.681,5.681,5.681,5.7093,5.7555,5.8233,5.891,5.9588,6.024,6.0609,6.0794,6.0794,6.0794,6.0794,6.0794,6.0794,6.0794,6.0794,6.0794,6.0794,6.0794,6.0794,6.0742,6.0586,6.0586,6.0429,6.0171,6.0664,6.069,6.0171,5.9982,5.9951,6.0045,6.0482,6.05,4.6521,4.6545,4.6404,4.6404,4.6116,4.5837,4.6013,4.6058,4.6108,4.6297,4.674,4.729,4.7959,4.8123,4.8502,4.9493,4.9693,4.9553,4.9139,4.921,4.9291,4.923,4.9169,4.9169,4.923,4.9169,4.8975,4.8625,4.9582,5.0097,4.9949,5.0759,5.1436,5.1959,5.1959,5.2161,5.2586,5.2329,5.2155,5.2002,5.2002,5.2002,5.2025,5.2193,5.2397,5.2608,5.2653,5.2676,5.2676,5.2676,5.2676,5.2676,5.2676,5.2676,5.2676,5.2676,5.2799,5.3045,5.3722,5.4399,5.5076,5.5745,5.6354,5.681,5.681,5.681,5.681,5.681,5.681,5.681,5.681,5.681,5.681,5.681,5.681,5.681,5.681,5.681,5.681,5.681,5.734,5.8017,5.8695,5.9372,6.0024,6.0701,6.0794,6.0794,6.0794,6.0794,6.0794,6.0794,6.0794,6.0794,6.0794,6.0794,6.0768,6.069,6.069,6.056,6.0298,6.0298,6.0171,5.988,6.0061,6.0061,5.9853,5.961,5.9717,6.0117,6.0106,6.0266,4.6116,4.6004,4.5828,4.5828,4.5841,4.5963,4.6613,4.674,4.6961,4.7656,4.7814,4.801,4.8459,4.8721,4.9078,4.9765,4.9892,4.9753,4.9351,4.928,4.923,4.9037,4.878,4.8738,4.8996,4.878,4.8625,4.8583,4.9866,5.0657,5.0636,5.1898,5.2614,5.2645,5.2645,5.2555,5.2329,5.2109,5.2025,5.2002,5.2002,5.2002,5.2025,5.2193,5.2306,5.2329,5.2586,5.2676,5.2676,5.2676,5.2676,5.2676,5.2676,5.2676,5.2676,5.2676,5.3106,5.3753,5.4429,5.5076,5.5745,5.6508,5.6755,5.681,5.681,5.681,5.681,5.681,5.681,5.681,5.681,5.681,5.681,5.681,5.681,5.681,5.681,5.681,5.681,5.681,5.734,5.8017,5.8695,5.9372,6.0024,6.0701,6.0794,6.0794,6.0794,6.0794,6.0794,6.0794,6.0794,6.0794,6.0794,6.0794,6.069,6.0429,6.0429,6.0298,6.0012,6.0043,5.9853,5.9529,5.9556,5.9556,5.9529,5.9503,5.9399,5.9186,5.9787,5.9757,4.5986,4.5859,4.5805,4.5805,4.5805,4.5981,4.6645,4.6803,4.6992,4.7751,4.8225,4.8546,4.8596,4.8784,4.8973,4.9278,4.9432,4.9372,4.8893,4.8831,4.8903,4.8996,4.8759,4.8718,4.8975,4.8759,4.8583,4.8583,4.9497,5.0236,5.0667,5.1559,5.2267,5.2676,5.2541,5.2238,5.1849,5.1787,5.1672,5.1486,5.1486,5.1486,5.1509,5.1926,5.2109,5.2132,5.2518,5.2676,5.2676,5.2676,5.2676,5.2676,5.2676,5.2676,5.2676,5.2676,5.3106,5.3814,5.446,5.5137,5.5807,5.657,5.681,5.681,5.681,5.681,5.681,5.681,5.681,5.681,5.681,5.681,5.681,5.681,5.681,5.681,5.681,5.681,5.6933,5.734,5.7986,5.8664,5.9341,5.9993,6.0517,6.0763,6.0794,6.0794,6.0794,6.0794,6.0794,6.0794,6.0794,6.0794,6.0794,6.0794,6.0768,6.0664,6.0508,6.0302,6.0016,5.98,5.9529,5.9261,5.9234,5.9234,5.9234,5.9234,5.9417,5.9727,5.9548,5.9548,4.5846,4.5805,4.5805,4.5805,4.5769,4.5953,4.6942,4.7126,4.736,4.8364,4.8862,4.908,4.8874,4.8942,4.9059,4.9086,4.921,4.9189,4.88,4.8738,4.8759,4.8841,4.8718,4.8676,4.8841,4.8697,4.8563,4.848,4.9176,4.9809,5.0428,5.1159,5.1857,5.2532,5.2238,5.1918,5.1595,5.1503,5.1393,5.1206,5.1206,5.1206,5.1229,5.1771,5.2002,5.2025,5.2503,5.2676,5.2676,5.2676,5.2676,5.2676,5.2676,5.2676,5.2676,5.2676,5.326,5.4091,5.4553,5.5291,5.617,5.6631,5.681,5.681,5.681,5.681,5.681,5.681,5.681,5.681,5.681,5.681,5.681,5.681,5.681,5.681,5.681,5.681,5.7001,5.7678,5.8325,5.9033,5.9686,6.0363,6.0794,6.0794,6.0794,6.0794,6.0794,6.0794,6.0794,6.0794,6.0794,6.0794,6.0794,6.0716,6.0612,6.0538,6.0246,5.9982,5.972,5.9476,5.9288,5.9099,5.8991,5.8991,5.9099,5.9099,5.9338,5.9727,5.9308,5.9458,0.0,0.0,0.0,4.5805,4.5628,4.5913,4.7505,4.7706,4.8038,4.9537,4.9701,4.9521,4.9351,4.928,4.9311,4.9291,4.9311,4.923,4.9016,4.8996,4.8893,4.8625,4.8583,4.8583,4.8583,4.8583,4.85,4.8322,4.8882,4.9478,4.9938,5.0798,5.1581,5.2222,5.1826,5.1595,5.1572,5.1346,5.1206,5.1206,5.1206,5.1206,5.1229,5.1771,5.2002,5.2025,5.2503,5.2676,5.2676,5.2676,5.2676,5.2676,5.2676,5.2676,5.2676,5.2676,5.3537,5.4706,5.4706,5.5622,5.681,5.681,5.681,5.681,5.681,5.681,5.681,5.681,5.681,5.681,5.681,5.681,5.681,5.681,5.681,5.681,5.681,5.681,5.7001,5.7709,5.8356,5.9033,5.9686,6.0363,6.0794,6.0794,6.0794,6.0794,6.0794,6.0794,6.0794,6.0794,6.0794,6.0794,6.0794,6.0534,6.0302,6.0016,5.9693,5.9369,5.9126,5.9099,5.9099,5.9072,5.8828,5.88,5.9072,5.9072,5.9102,5.9129,5.9159,5.9518,4.5841,0.0,0.0,0.0,0.0,0.0,4.6485,4.7004,4.7579,4.8545,4.9088,4.9331,4.9108,4.9098,4.9006,4.8841,4.8944,4.9016,4.8759,4.8718,4.8697,4.8604,4.8583,4.8583,4.8583,4.8583,4.85,4.8322,4.8454,4.8767,4.9252,5.0399,5.1083,5.1054,5.1423,5.1533,5.1323,5.1253,5.1206,5.1206,5.1206,5.1206,5.1229,5.1771,5.2002,5.2025,5.2503,5.2676,5.2676,5.2676,5.2676,5.2676,5.2676,5.2676,5.2676,5.2676,5.3537,5.4706,5.4706,5.5622,5.681,5.681,5.681,5.681,5.681,5.681,5.681,5.681,5.681,5.681,5.681,5.681,5.681,5.681,5.681,5.681,5.681,5.681,5.7124,5.8294,5.8664,5.9187,6.0301,6.0671,6.0794,6.0794,6.0794,6.0794,6.0794,6.0794,6.0794,6.0794,6.0612,6.0508,6.0508,6.0276,6.0065,6.0016,5.9693,5.9476,5.9395,5.9207,5.8991,5.88,5.8748,5.8609,5.8443,5.8691,5.9178,5.9817,6.0326,6.0531,4.5841,4.575,4.5659,4.5549,0.0,0.0,4.6389,4.6842,4.7395,4.8511,4.8949,4.9128,4.9016,4.8914,4.878,4.8625,4.8738,4.878,4.8604,4.8583,4.8583,4.8583,4.8583,4.8563,4.8459,4.8459,4.8364,4.8049,4.825,4.8784,4.9623,5.057,5.1075,5.1022,5.1299,5.1369,5.1206,5.1206,5.1206,5.1206,5.1206,5.1206,5.1229,5.1649,5.1834,5.1857,5.2337,5.2541,5.2541,5.2653,5.2676,5.2676,5.2676,5.2676,5.2676,5.2676,5.3537,5.4706,5.4706,5.5622,5.681,5.681,5.681,5.681,5.681,5.681,5.681,5.681,5.681,5.681,5.681,5.681,5.681,5.681,5.681,5.681,5.681,5.681,5.7186,5.8541,5.8818,5.9249,6.0578,6.0794,6.0794,6.0794,6.0794,6.0768,6.0638,6.0638,6.0586,6.0486,6.0329,6.025,6.025,5.9959,5.98,5.98,5.9503,5.9342,5.9342,5.9072,5.8855,5.8721,5.8445,5.8372,5.8413,5.8453,5.8991,5.9951,6.0737,6.1077,4.5787,4.5659,4.5481,4.5426,4.5167,0.0,4.6586,4.6831,4.7156,4.8587,4.8808,4.8738,4.8717,4.8502,4.8327,4.8306,4.8388,4.8501,4.8583,4.8583,4.8583,4.8563,4.8563,4.848,4.8301,4.8281,4.8091,4.7624,4.8213,4.9117,5.0404,5.0866,5.1203,5.1435,5.1286,5.1206,5.1206,5.1206,5.1206,5.1206,5.1206,5.1206,5.1229,5.1456,5.1595,5.1618,5.2079,5.2284,5.2329,5.2563,5.2653,5.2676,5.2676,5.2676,5.2676,5.2676,5.3537,5.4706,5.4706,5.5622,5.681,5.681,5.681,5.681,5.681,5.681,5.681,5.681,5.681,5.681,5.681,5.681,5.681,5.681,5.681,5.681,5.681,5.681,5.7155,5.8399,5.8731,5.9249,6.0578,6.0794,6.0794,6.0768,6.0742,6.0664,6.0377,6.0351,6.0246,6.0043,5.999,5.9933,5.9933,5.964,5.9422,5.9449,5.9207,5.9045,5.9045,5.8857,5.8666,5.8612,5.8119,5.8163,5.8749,5.8529,5.8894,5.9884,6.0727,6.1288,4.5591,4.5549,4.5407,4.5111,4.4949,0.0,4.5082,4.5499,4.5943,4.6248,4.6702,4.7024,4.6863,4.6782,4.6701,4.6539,4.7099,4.7783,4.8501,4.8583,4.8521,4.8385,4.8364,4.8281,4.807,4.807,4.7922,4.7624,4.8083,4.8715,4.9494,5.0085,5.0421,5.0467,5.093,5.1206,5.1206,5.1206,5.1206,5.1206,5.1206,5.1206,5.1229,5.1456,5.1595,5.1618,5.1926,5.2155,5.2306,5.2352,5.2518,5.2676,5.2676,5.2676,5.2676,5.2676,5.3537,5.4706,5.4706,5.5622,5.681,5.681,5.681,5.681,5.681,5.681,5.681,5.681,5.681,5.681,5.681,5.681,5.681,5.681,5.681,5.681,5.681,5.681,5.6983,5.7561,5.8268,5.9249,6.0578,6.0794,6.0716,6.0508,6.0481,6.0377,6.0118,6.0065,6.0039,6.0016,5.9773,5.9583,5.9583,5.9126,5.8936,5.9153,5.8909,5.8803,5.8803,5.8748,5.8472,5.7975,5.8138,5.8521,5.919,5.9561,6.0111,6.0817,6.1025,6.1292,4.5483,4.5278,4.5167,4.4949,4.4818,0.0,0.0,4.5283,4.5563,4.5999,4.6278,4.6424,4.6324,4.6304,4.6346,4.6478,4.6956,4.7507,4.8231,4.8406,4.8396,4.8322,4.8218,4.807,4.7816,4.7794,4.7839,4.7932,4.8153,4.8716,4.9703,5.0039,5.0345,5.0697,5.1026,5.1206,5.1206,5.1206,5.1206,5.1206,5.1206,5.1206,5.1176,5.1346,5.1386,5.1439,5.1695,5.1926,5.2155,5.2261,5.2442,5.2676,5.2676,5.2676,5.2676,5.2676,5.3537,5.4706,5.4706,5.5622,5.681,5.681,5.681,5.681,5.681,5.681,5.681,5.681,5.681,5.681,5.681,5.681,5.681,5.681,5.681,5.681,5.681,5.6689,5.6782,5.7278,5.7926,5.8721,5.973,6.0163,6.0355,6.0224,6.0197,6.0092,5.98,5.9747,5.972,5.956,5.9395,5.9234,5.9099,5.8828,5.8776,5.8882,5.8609,5.8527,5.8694,5.8881,5.8985,5.9,5.9504,5.9829,6.0005,6.056,6.0852,6.0911,6.138,6.1616,4.5335,4.498,4.4836,4.4799,4.4648,4.4688,0.0,0.0,0.0,4.5973,4.5966,4.5857,4.5817,4.5817,4.592,4.6233,4.6589,4.6945,4.7327,4.7705,4.8023,4.8145,4.8028,4.7816,4.7559,4.7615,4.7949,4.8618,4.8492,4.894,5.0136,5.0196,5.0458,5.0996,5.1116,5.1206,5.1206,5.1206,5.1206,5.1206,5.1206,5.1206,5.1206,5.1206,5.1206,5.1229,5.1409,5.1672,5.1926,5.2147,5.2374,5.2631,5.2676,5.2676,5.2676,5.2676,5.3537,5.4706,5.4706,5.5622,5.681,5.681,5.681,5.681,5.681,5.681,5.681,5.681,5.681,5.681,5.681,5.681,5.681,5.681,5.681,5.6785,5.6737,5.6635,5.6653,5.7007,5.7507,5.8113,5.8858,5.9557,5.999,5.9906,5.988,5.98,5.9476,5.9422,5.9315,5.9045,5.9018,5.8909,5.8609,5.8584,5.8557,5.8582,5.8307,5.8339,5.879,5.9104,5.9584,6.0175,6.0733,6.094,6.0794,6.1349,6.135,6.0882,6.1615,6.1821,4.4946,4.4648,4.4591,4.44,4.4343,4.4354,4.4446,0.0,4.4167,4.4278,0.0,4.42,4.4034,0.0,0.0,4.3738,4.4429,4.4992,4.5062,4.6079,4.7015,4.7627,4.7666,4.7559,4.7352,4.7664,4.8455,4.9867,4.9266,4.9214,5.0166,5.0196,5.0226,5.0315,5.0877,5.1206,5.1206,5.1206,5.1206,5.1206,5.1206,5.1206,5.1206,5.1206,5.1206,5.1206,5.1253,5.1416,5.1672,5.1926,5.2155,5.2374,5.2608,5.2676,5.2676,5.2676,5.3537,5.4706,5.4706,5.5622,5.681,5.681,5.681,5.681,5.681,5.681,5.681,5.681,5.681,5.681,5.681,5.681,5.681,5.681,5.681,5.6737,5.6494,5.6831,5.6932,5.5992,5.6747,5.7855,5.8806,5.9557,5.988,5.9583,5.9556,5.9449,5.918,5.9153,5.9045,5.8776,5.8748,5.8609,5.8278,5.8031,5.8003,5.8223,5.8003,5.824,5.9106,5.9472,5.9829,6.0208,6.0266,6.0586,6.1137,6.1435,6.1555,6.1496,6.1345,6.1404,4.4718,4.4707,4.4863,4.4273,4.4417,4.46,4.4204,4.3968,4.3851,4.3988,0.0,0.0,0.0,0.0,0.0,0.0,4.4349,4.477,4.5019,4.5943,4.6689,4.6991,4.7254,4.7567,4.787,4.809,4.8668,4.962,4.9207,4.9056,4.9438,4.9605,4.9784,5.0011,5.0418,5.0817,5.1206,5.1206,5.1206,5.1206,5.1206,5.1206,5.1206,5.1206,5.1206,5.1206,5.1206,5.1439,5.1834,5.1956,5.22,5.2541,5.2653,5.2676,5.2676,5.2676,5.3291,5.4183,5.4583,5.5345,5.6231,5.6662,5.681,5.681,5.681,5.681,5.6761,5.6616,5.6567,5.6543,5.6372,5.6348,5.6348,5.6348,5.6348,5.6299,5.6201,5.6545,5.6642,5.5752,5.6508,5.7303,5.7368,5.8211,5.8974,5.9228,5.9261,5.9234,5.9099,5.8964,5.88,5.8691,5.8527,5.8307,5.8003,5.7864,5.7864,5.7975,5.8188,5.8686,5.9472,6.0003,6.0589,6.1292,6.1321,6.135,6.1434,6.1554,6.1434,6.1075,6.1344,6.1404,4.4941,4.4885,4.4947,4.4323,4.4395,4.4536,4.4031,4.3754,4.3636,4.3793,4.3695,0.0,0.0,0.0,4.4018,4.4487,0.0,4.497,4.5265,4.6019,4.6545,4.6545,4.6976,4.7549,4.8207,4.8483,4.8889,4.9501,4.9326,4.9212,4.9243,4.9433,4.9694,4.9965,5.0306,5.0727,5.1206,5.1206,5.1206,5.1206,5.1206,5.1206,5.1206,5.1206,5.1206,5.1206,5.1206,5.1463,5.188,5.1979,5.2208,5.2495,5.2563,5.2586,5.2608,5.2653,5.3106,5.3783,5.439,5.5166,5.6012,5.6577,5.681,5.6785,5.6713,5.6689,5.664,5.6372,5.6299,5.625,5.6053,5.6003,5.6003,5.6003,5.6125,5.6222,5.6177,5.6667,5.6907,5.6168,5.6745,5.7244,5.6821,5.7483,5.8264,5.877,5.8979,5.9072,5.8991,5.88,5.8639,5.8472,5.8252,5.7946,5.7697,5.7844,5.7932,5.7932,5.8602,5.9157,5.9567,6.0297,6.1058,6.185,6.185,6.1732,6.1494,6.1494,6.1284,6.0862,6.1165,6.1254,4.5807,4.5092,4.4609,4.4579,4.4177,4.3725,4.3695,4.3518,4.3309,4.3309,4.3309,4.3519,4.4167,4.4287,4.4496,4.5155,4.5295,0.0,0.0,4.5873,4.6322,4.6322,4.692,4.7549,4.8207,4.8671,4.9228,5.0106,4.9981,4.9935,5.0143,5.0166,5.0166,5.0196,5.0847,5.1176,5.1206,5.1206,5.1206,5.1206,5.1206,5.1206,5.1206,5.1206,5.1206,5.1206,5.1206,5.1369,5.1618,5.188,5.2025,5.2048,5.2238,5.2306,5.2352,5.2608,5.3106,5.376,5.4173,5.5234,5.6415,5.6713,5.681,5.6761,5.6494,5.6421,5.6372,5.6102,5.6028,5.6003,5.6003,5.6003,5.6003,5.6003,5.6434,5.6814,5.6617,5.757,5.8159,5.7206,5.7603,5.8055,5.8025,5.8055,5.8115,5.8115,5.8683,5.8991,5.8748,5.8721,5.8502,5.7892,5.7809,5.7697,5.7331,5.7913,5.8261,5.8261,5.913,5.9538,5.9335,6.0209,6.0851,6.1223,6.1223,6.1223,6.1223,6.1223,6.1193,6.1163,6.0863,6.0712,0.0,0.0,4.5693,4.4648,4.4568,4.4508,4.3638,4.3369,4.3429,4.3878,4.3609,4.3638,4.4766,4.4616,4.4506,4.5185,4.5304,4.5304,0.0,4.5882,4.645,4.6899,4.7418,4.7851,4.8267,4.8892,4.9565,5.0143,5.0375,5.0364,5.0018,5.0126,5.015,4.9988,5.0335,5.0757,5.1206,5.1206,5.1206,5.1206,5.1206,5.1206,5.1206,5.1206,5.1206,5.1206,5.1206,5.1339,5.1595,5.1718,5.1834,5.2025,5.2063,5.2109,5.2109,5.2177,5.2467,5.294,5.4004,5.5078,5.5995,5.6414,5.6543,5.6494,5.6225,5.6151,5.6077,5.5805,5.5731,5.5681,5.5506,5.5456,5.5576,5.6053,5.6293,5.6513,5.6856,5.7614,5.8011,5.727,5.7504,5.7699,5.7226,5.7363,5.7724,5.8386,5.8488,5.8443,5.839,5.8225,5.8031,5.7809,5.7613,5.759,5.7913,5.8581,5.8784,5.8348,5.8987,5.9219,5.8668,5.9772,6.0441,6.0526,6.0961,6.1103,6.0892,6.0892,6.0649,6.0222,6.01,6.0283,4.6223,4.6332,0.0,4.5265,4.5155,0.0,4.4207,4.3997,4.4056,4.4228,4.3833,4.3733,4.4693,4.4491,4.4469,4.5463,4.5696,4.5802,0.0,4.6233,4.6637,4.7228,4.7537,4.7843,4.8267,4.8774,4.9367,5.005,5.0183,5.0239,5.0111,5.0153,5.0223,5.0199,5.0461,5.0757,5.1206,5.1206,5.1206,5.1206,5.1206,5.1206,5.1206,5.1206,5.1206,5.1206,5.1206,5.1339,5.1595,5.1595,5.1718,5.1857,5.1857,5.1787,5.1741,5.1933,5.2169,5.2573,5.3816,5.4711,5.5431,5.603,5.625,5.6201,5.5929,5.5855,5.5841,5.5676,5.5561,5.5441,5.5402,5.5487,5.5628,5.5944,5.6396,5.6818,5.7074,5.7672,5.7999,5.7583,5.7716,5.773,5.7288,5.7311,5.7582,5.8087,5.8187,5.8167,5.8057,5.792,5.7753,5.7641,5.7648,5.8,5.89,5.919,5.9132,5.8668,5.8842,5.8755,5.8319,5.9103,5.9858,6.0526,6.0609,6.0777,6.1027,6.0675,6.0285,5.9856,5.9761,5.9946]}]]